<?xml version="1.0" encoding="UTF-8"?>
<gpx xmlns="http://www.topografix.com/GPX/1/1" xmlns:gpsies="http://www.gpsies.com/GPX/1/0" creator="GPSies http://www.gpsies.com - DONAUBERGLANDWEG" version="1.1" xmlns:xsi="http://www.w3.org/2001/XMLSchema-instance" xsi:schemaLocation="http://www.topografix.com/GPX/1/1 http://www.topografix.com/GPX/1/1/gpx.xsd http://www.gpsies.com/GPX/1/0 http://www.gpsies.com/gpsies.xsd">
  <metadata>
    <name>DONAUBERGLANDWEG</name>
    <author>
      <name>yoeddy01</name>
      <link href="http://www.gpsies.com/mapUser.do?username=yoeddy01">
        <text>yoeddy01 on GPSies.com</text>
        <type>GPSiesUserOnWeb</type>
      </link>
    </author>
    <link href="http://www.gpsies.com/map.do?fileId=tfbxxklpoxrpoatr">
      <text>DONAUBERGLANDWEG on GPSies.com</text>
      <type>trackOnWeb</type>
    </link>
    <time>2014-09-10T12:51:24Z</time>
    <extensions>
      <gpsies:property>one-way trip</gpsies:property>
      <gpsies:trackLengthMeter>56716.66882031867</gpsies:trackLengthMeter>
      <gpsies:totalAscentMeter>1591.0</gpsies:totalAscentMeter>
      <gpsies:totalDescentMeter>1851.0</gpsies:totalDescentMeter>
      <gpsies:minHeightMeter>606.0</gpsies:minHeightMeter>
      <gpsies:maxHeightMeter>1017.0</gpsies:maxHeightMeter>
    </extensions>
  </metadata>
  <trk>
    <name>DONAUBERGLANDWEG on GPSies.com</name>
    <link href="http://www.gpsies.com/map.do?fileId=tfbxxklpoxrpoatr">
      <type>trackOnWeb</type>
    </link>
    <link href="http://www.gpsies.com/charts/tf/map/tfbxxklpoxrpoatr_map.png">
      <type>elevationChartUrlMap</type>
    </link>
    <link href="http://www.gpsies.com/charts/tf/mapThumb/tfbxxklpoxrpoatr_mapThumb.png">
      <type>elevationChartUrlMapThumb</type>
    </link>
    <link href="http://www.gpsies.com/charts/tf/tab/tfbxxklpoxrpoatr_tab.png">
      <type>elevationChartUrlTab</type>
    </link>
    <trkseg>
      <trkpt lat="48.14512630" lon="8.748526410">
        <ele>872.00000</ele>
        <time>2010-01-01T00:00:00Z</time>
      </trkpt>
      <trkpt lat="48.14513700" lon="8.749191960">
        <ele>876.00000</ele>
        <time>2010-01-01T00:00:44Z</time>
      </trkpt>
      <trkpt lat="48.14571600" lon="8.749691020">
        <ele>886.00000</ele>
        <time>2010-01-01T00:01:51Z</time>
      </trkpt>
      <trkpt lat="48.14572800" lon="8.749691020">
        <ele>886.00000</ele>
        <time>2010-01-01T00:01:52Z</time>
      </trkpt>
      <trkpt lat="48.14592900" lon="8.749880030">
        <ele>890.00000</ele>
        <time>2010-01-01T00:02:16Z</time>
      </trkpt>
      <trkpt lat="48.14594190" lon="8.749880030">
        <ele>890.00000</ele>
        <time>2010-01-01T00:02:17Z</time>
      </trkpt>
      <trkpt lat="48.14624390" lon="8.749823030">
        <ele>896.00000</ele>
        <time>2010-01-01T00:02:47Z</time>
      </trkpt>
      <trkpt lat="48.14627500" lon="8.749794960">
        <ele>897.00000</ele>
        <time>2010-01-01T00:02:51Z</time>
      </trkpt>
      <trkpt lat="48.14650190" lon="8.749673000">
        <ele>901.00000</ele>
        <time>2010-01-01T00:03:15Z</time>
      </trkpt>
      <trkpt lat="48.14652000" lon="8.749663020">
        <ele>902.00000</ele>
        <time>2010-01-01T00:03:17Z</time>
      </trkpt>
      <trkpt lat="48.14685400" lon="8.749408970">
        <ele>909.00000</ele>
        <time>2010-01-01T00:03:55Z</time>
      </trkpt>
      <trkpt lat="48.14714890" lon="8.749596970">
        <ele>917.00000</ele>
        <time>2010-01-01T00:04:27Z</time>
      </trkpt>
      <trkpt lat="48.14715600" lon="8.749596970">
        <ele>917.00000</ele>
        <time>2010-01-01T00:04:27Z</time>
      </trkpt>
      <trkpt lat="48.14730590" lon="8.749776010">
        <ele>921.00000</ele>
        <time>2010-01-01T00:04:47Z</time>
      </trkpt>
      <trkpt lat="48.14763290" lon="8.749371000">
        <ele>930.00000</ele>
        <time>2010-01-01T00:05:29Z</time>
      </trkpt>
      <trkpt lat="48.14801090" lon="8.748796000">
        <ele>939.00000</ele>
        <time>2010-01-01T00:06:23Z</time>
      </trkpt>
      <trkpt lat="48.14803000" lon="8.748796000">
        <ele>940.00000</ele>
        <time>2010-01-01T00:06:25Z</time>
      </trkpt>
      <trkpt lat="48.14852590" lon="8.749032030">
        <ele>958.00000</ele>
        <time>2010-01-01T00:07:17Z</time>
      </trkpt>
      <trkpt lat="48.14862690" lon="8.748580000">
        <ele>957.00000</ele>
        <time>2010-01-01T00:07:49Z</time>
      </trkpt>
      <trkpt lat="48.14864600" lon="8.748598020">
        <ele>958.00000</ele>
        <time>2010-01-01T00:07:51Z</time>
      </trkpt>
      <trkpt lat="48.14877090" lon="8.748683010">
        <ele>962.00000</ele>
        <time>2010-01-01T00:08:05Z</time>
      </trkpt>
      <trkpt lat="48.14885990" lon="8.748418980">
        <ele>961.00000</ele>
        <time>2010-01-01T00:08:25Z</time>
      </trkpt>
      <trkpt lat="48.14886600" lon="8.748428960">
        <ele>961.00000</ele>
        <time>2010-01-01T00:08:25Z</time>
      </trkpt>
      <trkpt lat="48.14893500" lon="8.748616960">
        <ele>965.00000</ele>
        <time>2010-01-01T00:08:40Z</time>
      </trkpt>
      <trkpt lat="48.14893500" lon="8.748635990">
        <ele>965.00000</ele>
        <time>2010-01-01T00:08:41Z</time>
      </trkpt>
      <trkpt lat="48.14890390" lon="8.749003950">
        <ele>970.00000</ele>
        <time>2010-01-01T00:09:06Z</time>
      </trkpt>
      <trkpt lat="48.14914290" lon="8.748928010">
        <ele>976.00000</ele>
        <time>2010-01-01T00:09:30Z</time>
      </trkpt>
      <trkpt lat="48.14916090" lon="8.748946960">
        <ele>977.00000</ele>
        <time>2010-01-01T00:09:32Z</time>
      </trkpt>
      <trkpt lat="48.14923090" lon="8.749126000">
        <ele>982.00000</ele>
        <time>2010-01-01T00:09:46Z</time>
      </trkpt>
      <trkpt lat="48.14927490" lon="8.749126000">
        <ele>984.00000</ele>
        <time>2010-01-01T00:09:51Z</time>
      </trkpt>
      <trkpt lat="48.14948200" lon="8.748890970">
        <ele>986.00000</ele>
        <time>2010-01-01T00:10:17Z</time>
      </trkpt>
      <trkpt lat="48.14948790" lon="8.748890970">
        <ele>986.00000</ele>
        <time>2010-01-01T00:10:17Z</time>
      </trkpt>
      <trkpt lat="48.14989090" lon="8.748712010">
        <ele>994.00000</ele>
        <time>2010-01-01T00:10:59Z</time>
      </trkpt>
      <trkpt lat="48.15013590" lon="8.748692990">
        <ele>999.00000</ele>
        <time>2010-01-01T00:11:24Z</time>
      </trkpt>
      <trkpt lat="48.15015490" lon="8.748692990">
        <ele>999.00000</ele>
        <time>2010-01-01T00:11:26Z</time>
      </trkpt>
      <trkpt lat="48.15040600" lon="8.748796000">
        <ele>1005.0000</ele>
        <time>2010-01-01T00:11:52Z</time>
      </trkpt>
      <trkpt lat="48.15041290" lon="8.748796000">
        <ele>1005.0000</ele>
        <time>2010-01-01T00:11:53Z</time>
      </trkpt>
      <trkpt lat="48.15083990" lon="8.749060030">
        <ele>1017.0000</ele>
        <time>2010-01-01T00:12:39Z</time>
      </trkpt>
      <trkpt lat="48.15066990" lon="8.749380970">
        <ele>1016.0000</ele>
        <time>2010-01-01T00:13:06Z</time>
      </trkpt>
      <trkpt lat="48.15043200" lon="8.749937030">
        <ele>1011.0000</ele>
        <time>2010-01-01T00:13:50Z</time>
      </trkpt>
      <trkpt lat="48.15043200" lon="8.749965020">
        <ele>1011.0000</ele>
        <time>2010-01-01T00:13:52Z</time>
      </trkpt>
      <trkpt lat="48.15036200" lon="8.750267020">
        <ele>1009.0000</ele>
        <time>2010-01-01T00:14:13Z</time>
      </trkpt>
      <trkpt lat="48.15034300" lon="8.750870020">
        <ele>1006.0000</ele>
        <time>2010-01-01T00:14:54Z</time>
      </trkpt>
      <trkpt lat="48.15034300" lon="8.750907990">
        <ele>1006.0000</ele>
        <time>2010-01-01T00:14:56Z</time>
      </trkpt>
      <trkpt lat="48.15034300" lon="8.751633020">
        <ele>999.00000</ele>
        <time>2010-01-01T00:15:45Z</time>
      </trkpt>
      <trkpt lat="48.15036200" lon="8.751679960">
        <ele>999.00000</ele>
        <time>2010-01-01T00:15:48Z</time>
      </trkpt>
      <trkpt lat="48.15036890" lon="8.751775010">
        <ele>997.00000</ele>
        <time>2010-01-01T00:15:55Z</time>
      </trkpt>
      <trkpt lat="48.15037500" lon="8.751783980">
        <ele>997.00000</ele>
        <time>2010-01-01T00:15:56Z</time>
      </trkpt>
      <trkpt lat="48.15039990" lon="8.751803010">
        <ele>997.00000</ele>
        <time>2010-01-01T00:15:58Z</time>
      </trkpt>
      <trkpt lat="48.15083990" lon="8.751783980">
        <ele>1007.0000</ele>
        <time>2010-01-01T00:16:42Z</time>
      </trkpt>
      <trkpt lat="48.15121690" lon="8.751822030">
        <ele>993.00000</ele>
        <time>2010-01-01T00:17:20Z</time>
      </trkpt>
      <trkpt lat="48.15094090" lon="8.752490990">
        <ele>992.00000</ele>
        <time>2010-01-01T00:18:13Z</time>
      </trkpt>
      <trkpt lat="48.15066990" lon="8.753000030">
        <ele>977.00000</ele>
        <time>2010-01-01T00:18:56Z</time>
      </trkpt>
      <trkpt lat="48.15066400" lon="8.753141010">
        <ele>973.00000</ele>
        <time>2010-01-01T00:19:06Z</time>
      </trkpt>
      <trkpt lat="48.15144390" lon="8.753320970">
        <ele>963.00000</ele>
        <time>2010-01-01T00:20:25Z</time>
      </trkpt>
      <trkpt lat="48.15144990" lon="8.753320970">
        <ele>963.00000</ele>
        <time>2010-01-01T00:20:25Z</time>
      </trkpt>
      <trkpt lat="48.15221090" lon="8.753395990">
        <ele>951.00000</ele>
        <time>2010-01-01T00:21:42Z</time>
      </trkpt>
      <trkpt lat="48.15221800" lon="8.753395990">
        <ele>951.00000</ele>
        <time>2010-01-01T00:21:42Z</time>
      </trkpt>
      <trkpt lat="48.15312300" lon="8.753451980">
        <ele>942.00000</ele>
        <time>2010-01-01T00:23:13Z</time>
      </trkpt>
      <trkpt lat="48.15312300" lon="8.753461950">
        <ele>942.00000</ele>
        <time>2010-01-01T00:23:14Z</time>
      </trkpt>
      <trkpt lat="48.15316090" lon="8.753810980">
        <ele>941.00000</ele>
        <time>2010-01-01T00:23:37Z</time>
      </trkpt>
      <trkpt lat="48.15316090" lon="8.753830000">
        <ele>941.00000</ele>
        <time>2010-01-01T00:23:38Z</time>
      </trkpt>
      <trkpt lat="48.15305390" lon="8.754339040">
        <ele>938.00000</ele>
        <time>2010-01-01T00:24:14Z</time>
      </trkpt>
      <trkpt lat="48.15305390" lon="8.754348000">
        <ele>938.00000</ele>
        <time>2010-01-01T00:24:15Z</time>
      </trkpt>
      <trkpt lat="48.15279590" lon="8.754988970">
        <ele>932.00000</ele>
        <time>2010-01-01T00:25:05Z</time>
      </trkpt>
      <trkpt lat="48.15248800" lon="8.755591960">
        <ele>925.00000</ele>
        <time>2010-01-01T00:25:55Z</time>
      </trkpt>
      <trkpt lat="48.15226200" lon="8.755526000">
        <ele>925.00000</ele>
        <time>2010-01-01T00:26:18Z</time>
      </trkpt>
      <trkpt lat="48.15192800" lon="8.755563970">
        <ele>923.00000</ele>
        <time>2010-01-01T00:26:52Z</time>
      </trkpt>
      <trkpt lat="48.15148790" lon="8.755676960">
        <ele>920.00000</ele>
        <time>2010-01-01T00:27:37Z</time>
      </trkpt>
      <trkpt lat="48.15099790" lon="8.755790030">
        <ele>917.00000</ele>
        <time>2010-01-01T00:28:26Z</time>
      </trkpt>
      <trkpt lat="48.15075200" lon="8.755847020">
        <ele>915.00000</ele>
        <time>2010-01-01T00:28:51Z</time>
      </trkpt>
      <trkpt lat="48.15075200" lon="8.755855990">
        <ele>915.00000</ele>
        <time>2010-01-01T00:28:52Z</time>
      </trkpt>
      <trkpt lat="48.15055100" lon="8.755931010">
        <ele>913.00000</ele>
        <time>2010-01-01T00:29:12Z</time>
      </trkpt>
      <trkpt lat="48.15021190" lon="8.755960010">
        <ele>911.00000</ele>
        <time>2010-01-01T00:29:46Z</time>
      </trkpt>
      <trkpt lat="48.14990990" lon="8.755960010">
        <ele>908.00000</ele>
        <time>2010-01-01T00:30:17Z</time>
      </trkpt>
      <trkpt lat="48.14963900" lon="8.755771000">
        <ele>907.00000</ele>
        <time>2010-01-01T00:30:47Z</time>
      </trkpt>
      <trkpt lat="48.14952600" lon="8.755638990">
        <ele>907.00000</ele>
        <time>2010-01-01T00:31:01Z</time>
      </trkpt>
      <trkpt lat="48.14941300" lon="8.756007030">
        <ele>899.00000</ele>
        <time>2010-01-01T00:31:28Z</time>
      </trkpt>
      <trkpt lat="48.14941300" lon="8.756016000">
        <ele>899.00000</ele>
        <time>2010-01-01T00:31:29Z</time>
      </trkpt>
      <trkpt lat="48.14945700" lon="8.756675990">
        <ele>891.00000</ele>
        <time>2010-01-01T00:32:13Z</time>
      </trkpt>
      <trkpt lat="48.14947000" lon="8.756741960">
        <ele>890.00000</ele>
        <time>2010-01-01T00:32:17Z</time>
      </trkpt>
      <trkpt lat="48.14948200" lon="8.756816980">
        <ele>890.00000</ele>
        <time>2010-01-01T00:32:23Z</time>
      </trkpt>
      <trkpt lat="48.14948200" lon="8.756883030">
        <ele>889.00000</ele>
        <time>2010-01-01T00:32:27Z</time>
      </trkpt>
      <trkpt lat="48.14955090" lon="8.757166000">
        <ele>887.00000</ele>
        <time>2010-01-01T00:32:47Z</time>
      </trkpt>
      <trkpt lat="48.14956390" lon="8.757175980">
        <ele>886.00000</ele>
        <time>2010-01-01T00:32:49Z</time>
      </trkpt>
      <trkpt lat="48.14968300" lon="8.757468000">
        <ele>884.00000</ele>
        <time>2010-01-01T00:33:11Z</time>
      </trkpt>
      <trkpt lat="48.14987890" lon="8.757693980">
        <ele>883.00000</ele>
        <time>2010-01-01T00:33:36Z</time>
      </trkpt>
      <trkpt lat="48.15017500" lon="8.758005030">
        <ele>881.00000</ele>
        <time>2010-01-01T00:34:12Z</time>
      </trkpt>
      <trkpt lat="48.15018090" lon="8.758005030">
        <ele>881.00000</ele>
        <time>2010-01-01T00:34:13Z</time>
      </trkpt>
      <trkpt lat="48.15028800" lon="8.758183980">
        <ele>879.00000</ele>
        <time>2010-01-01T00:34:29Z</time>
      </trkpt>
      <trkpt lat="48.15044500" lon="8.758061020">
        <ele>882.00000</ele>
        <time>2010-01-01T00:34:47Z</time>
      </trkpt>
      <trkpt lat="48.15045090" lon="8.758061020">
        <ele>882.00000</ele>
        <time>2010-01-01T00:34:47Z</time>
      </trkpt>
      <trkpt lat="48.15075890" lon="8.757976030">
        <ele>885.00000</ele>
        <time>2010-01-01T00:35:19Z</time>
      </trkpt>
      <trkpt lat="48.15077800" lon="8.757986000">
        <ele>885.00000</ele>
        <time>2010-01-01T00:35:21Z</time>
      </trkpt>
      <trkpt lat="48.15121790" lon="8.757948030">
        <ele>890.00000</ele>
        <time>2010-01-01T00:36:05Z</time>
      </trkpt>
      <trkpt lat="48.15123090" lon="8.757948030">
        <ele>890.00000</ele>
        <time>2010-01-01T00:36:06Z</time>
      </trkpt>
      <trkpt lat="48.15136290" lon="8.757948030">
        <ele>891.00000</ele>
        <time>2010-01-01T00:36:19Z</time>
      </trkpt>
      <trkpt lat="48.15150800" lon="8.758070990">
        <ele>891.00000</ele>
        <time>2010-01-01T00:36:36Z</time>
      </trkpt>
      <trkpt lat="48.15151400" lon="8.758079960">
        <ele>891.00000</ele>
        <time>2010-01-01T00:36:37Z</time>
      </trkpt>
      <trkpt lat="48.15157690" lon="8.758231010">
        <ele>891.00000</ele>
        <time>2010-01-01T00:36:49Z</time>
      </trkpt>
      <trkpt lat="48.15157690" lon="8.758239970">
        <ele>891.00000</ele>
        <time>2010-01-01T00:36:49Z</time>
      </trkpt>
      <trkpt lat="48.15159600" lon="8.758636020">
        <ele>888.00000</ele>
        <time>2010-01-01T00:37:16Z</time>
      </trkpt>
      <trkpt lat="48.15159600" lon="8.758654960">
        <ele>888.00000</ele>
        <time>2010-01-01T00:37:17Z</time>
      </trkpt>
      <trkpt lat="48.15155800" lon="8.759381000">
        <ele>883.00000</ele>
        <time>2010-01-01T00:38:06Z</time>
      </trkpt>
      <trkpt lat="48.15155800" lon="8.759389970">
        <ele>883.00000</ele>
        <time>2010-01-01T00:38:06Z</time>
      </trkpt>
      <trkpt lat="48.15150090" lon="8.760257000">
        <ele>878.00000</ele>
        <time>2010-01-01T00:39:04Z</time>
      </trkpt>
      <trkpt lat="48.15150090" lon="8.760276020">
        <ele>878.00000</ele>
        <time>2010-01-01T00:39:06Z</time>
      </trkpt>
      <trkpt lat="48.15145700" lon="8.761256030">
        <ele>875.00000</ele>
        <time>2010-01-01T00:40:11Z</time>
      </trkpt>
      <trkpt lat="48.15145700" lon="8.761266010">
        <ele>875.00000</ele>
        <time>2010-01-01T00:40:12Z</time>
      </trkpt>
      <trkpt lat="48.15142600" lon="8.761802950">
        <ele>874.00000</ele>
        <time>2010-01-01T00:40:48Z</time>
      </trkpt>
      <trkpt lat="48.15142600" lon="8.761812010">
        <ele>874.00000</ele>
        <time>2010-01-01T00:40:49Z</time>
      </trkpt>
      <trkpt lat="48.15129400" lon="8.762303020">
        <ele>873.00000</ele>
        <time>2010-01-01T00:41:24Z</time>
      </trkpt>
      <trkpt lat="48.15107390" lon="8.763027970">
        <ele>872.00000</ele>
        <time>2010-01-01T00:42:17Z</time>
      </trkpt>
      <trkpt lat="48.15107390" lon="8.763038030">
        <ele>872.00000</ele>
        <time>2010-01-01T00:42:18Z</time>
      </trkpt>
      <trkpt lat="48.15094190" lon="8.763471040">
        <ele>872.00000</ele>
        <time>2010-01-01T00:42:50Z</time>
      </trkpt>
      <trkpt lat="48.15075890" lon="8.763819970">
        <ele>871.00000</ele>
        <time>2010-01-01T00:43:19Z</time>
      </trkpt>
      <trkpt lat="48.15096090" lon="8.764582980">
        <ele>879.00000</ele>
        <time>2010-01-01T00:44:14Z</time>
      </trkpt>
      <trkpt lat="48.15096700" lon="8.764582980">
        <ele>879.00000</ele>
        <time>2010-01-01T00:44:15Z</time>
      </trkpt>
      <trkpt lat="48.15117390" lon="8.765374990">
        <ele>887.00000</ele>
        <time>2010-01-01T00:45:11Z</time>
      </trkpt>
      <trkpt lat="48.15161500" lon="8.766572000">
        <ele>894.00000</ele>
        <time>2010-01-01T00:46:43Z</time>
      </trkpt>
      <trkpt lat="48.15141400" lon="8.766657000">
        <ele>894.00000</ele>
        <time>2010-01-01T00:47:04Z</time>
      </trkpt>
      <trkpt lat="48.15124390" lon="8.766676020">
        <ele>894.00000</ele>
        <time>2010-01-01T00:47:21Z</time>
      </trkpt>
      <trkpt lat="48.15110600" lon="8.766629000">
        <ele>894.00000</ele>
        <time>2010-01-01T00:47:35Z</time>
      </trkpt>
      <trkpt lat="48.15086700" lon="8.766431020">
        <ele>892.00000</ele>
        <time>2010-01-01T00:48:02Z</time>
      </trkpt>
      <trkpt lat="48.15075390" lon="8.766384000">
        <ele>892.00000</ele>
        <time>2010-01-01T00:48:14Z</time>
      </trkpt>
      <trkpt lat="48.15073500" lon="8.766384000">
        <ele>892.00000</ele>
        <time>2010-01-01T00:48:16Z</time>
      </trkpt>
      <trkpt lat="48.15059590" lon="8.766411990">
        <ele>891.00000</ele>
        <time>2010-01-01T00:48:30Z</time>
      </trkpt>
      <trkpt lat="48.15052690" lon="8.766487010">
        <ele>890.00000</ele>
        <time>2010-01-01T00:48:38Z</time>
      </trkpt>
      <trkpt lat="48.15050200" lon="8.766552980">
        <ele>890.00000</ele>
        <time>2010-01-01T00:48:43Z</time>
      </trkpt>
      <trkpt lat="48.15040790" lon="8.766902000">
        <ele>888.00000</ele>
        <time>2010-01-01T00:49:09Z</time>
      </trkpt>
      <trkpt lat="48.15040790" lon="8.766939970">
        <ele>888.00000</ele>
        <time>2010-01-01T00:49:11Z</time>
      </trkpt>
      <trkpt lat="48.15030690" lon="8.767477000">
        <ele>885.00000</ele>
        <time>2010-01-01T00:49:48Z</time>
      </trkpt>
      <trkpt lat="48.15030690" lon="8.767485970">
        <ele>885.00000</ele>
        <time>2010-01-01T00:49:49Z</time>
      </trkpt>
      <trkpt lat="48.15007400" lon="8.768173950">
        <ele>885.00000</ele>
        <time>2010-01-01T00:50:40Z</time>
      </trkpt>
      <trkpt lat="48.14994200" lon="8.768504030">
        <ele>887.00000</ele>
        <time>2010-01-01T00:51:06Z</time>
      </trkpt>
      <trkpt lat="48.14993000" lon="8.768514010">
        <ele>888.00000</ele>
        <time>2010-01-01T00:51:08Z</time>
      </trkpt>
      <trkpt lat="48.14976590" lon="8.768787010">
        <ele>892.00000</ele>
        <time>2010-01-01T00:51:32Z</time>
      </trkpt>
      <trkpt lat="48.14975400" lon="8.768787010">
        <ele>892.00000</ele>
        <time>2010-01-01T00:51:33Z</time>
      </trkpt>
      <trkpt lat="48.14964690" lon="8.769012980">
        <ele>896.00000</ele>
        <time>2010-01-01T00:51:52Z</time>
      </trkpt>
      <trkpt lat="48.14935500" lon="8.769196970">
        <ele>900.00000</ele>
        <time>2010-01-01T00:52:23Z</time>
      </trkpt>
      <trkpt lat="48.14918500" lon="8.769235020">
        <ele>902.00000</ele>
        <time>2010-01-01T00:52:41Z</time>
      </trkpt>
      <trkpt lat="48.14872000" lon="8.769433000">
        <ele>903.00000</ele>
        <time>2010-01-01T00:53:29Z</time>
      </trkpt>
      <trkpt lat="48.14845000" lon="8.769565010">
        <ele>904.00000</ele>
        <time>2010-01-01T00:53:57Z</time>
      </trkpt>
      <trkpt lat="48.14844290" lon="8.769733990">
        <ele>905.00000</ele>
        <time>2010-01-01T00:54:09Z</time>
      </trkpt>
      <trkpt lat="48.14821700" lon="8.770168010">
        <ele>907.00000</ele>
        <time>2010-01-01T00:54:46Z</time>
      </trkpt>
      <trkpt lat="48.14807200" lon="8.770545030">
        <ele>908.00000</ele>
        <time>2010-01-01T00:55:15Z</time>
      </trkpt>
      <trkpt lat="48.14806590" lon="8.770931010">
        <ele>910.00000</ele>
        <time>2010-01-01T00:55:40Z</time>
      </trkpt>
      <trkpt lat="48.14807200" lon="8.770931010">
        <ele>910.00000</ele>
        <time>2010-01-01T00:55:41Z</time>
      </trkpt>
      <trkpt lat="48.14821700" lon="8.771251960">
        <ele>911.00000</ele>
        <time>2010-01-01T00:56:07Z</time>
      </trkpt>
      <trkpt lat="48.14821700" lon="8.771261010">
        <ele>911.00000</ele>
        <time>2010-01-01T00:56:07Z</time>
      </trkpt>
      <trkpt lat="48.14834290" lon="8.771467960">
        <ele>911.00000</ele>
        <time>2010-01-01T00:56:26Z</time>
      </trkpt>
      <trkpt lat="48.14841800" lon="8.771563010">
        <ele>912.00000</ele>
        <time>2010-01-01T00:56:36Z</time>
      </trkpt>
      <trkpt lat="48.14831090" lon="8.771797950">
        <ele>911.00000</ele>
        <time>2010-01-01T00:56:55Z</time>
      </trkpt>
      <trkpt lat="48.14831090" lon="8.771808010">
        <ele>911.00000</ele>
        <time>2010-01-01T00:56:56Z</time>
      </trkpt>
      <trkpt lat="48.14810990" lon="8.772053020">
        <ele>910.00000</ele>
        <time>2010-01-01T00:57:22Z</time>
      </trkpt>
      <trkpt lat="48.14810990" lon="8.772061980">
        <ele>910.00000</ele>
        <time>2010-01-01T00:57:22Z</time>
      </trkpt>
      <trkpt lat="48.14775090" lon="8.772523990">
        <ele>907.00000</ele>
        <time>2010-01-01T00:58:10Z</time>
      </trkpt>
      <trkpt lat="48.14752500" lon="8.772551990">
        <ele>906.00000</ele>
        <time>2010-01-01T00:58:32Z</time>
      </trkpt>
      <trkpt lat="48.14751890" lon="8.772551990">
        <ele>906.00000</ele>
        <time>2010-01-01T00:58:33Z</time>
      </trkpt>
      <trkpt lat="48.14728600" lon="8.772401030">
        <ele>902.00000</ele>
        <time>2010-01-01T00:58:58Z</time>
      </trkpt>
      <trkpt lat="48.14718600" lon="8.772344960">
        <ele>901.00000</ele>
        <time>2010-01-01T00:59:09Z</time>
      </trkpt>
      <trkpt lat="48.14718600" lon="8.772354010">
        <ele>901.00000</ele>
        <time>2010-01-01T00:59:10Z</time>
      </trkpt>
      <trkpt lat="48.14711590" lon="8.772354010">
        <ele>899.00000</ele>
        <time>2010-01-01T00:59:17Z</time>
      </trkpt>
      <trkpt lat="48.14711000" lon="8.772354010">
        <ele>899.00000</ele>
        <time>2010-01-01T00:59:17Z</time>
      </trkpt>
      <trkpt lat="48.14701590" lon="8.772741000">
        <ele>896.00000</ele>
        <time>2010-01-01T00:59:45Z</time>
      </trkpt>
      <trkpt lat="48.14701590" lon="8.772749970">
        <ele>896.00000</ele>
        <time>2010-01-01T00:59:45Z</time>
      </trkpt>
      <trkpt lat="48.14680800" lon="8.773654960">
        <ele>889.00000</ele>
        <time>2010-01-01T01:00:49Z</time>
      </trkpt>
      <trkpt lat="48.14660800" lon="8.774372040">
        <ele>881.00000</ele>
        <time>2010-01-01T01:01:41Z</time>
      </trkpt>
      <trkpt lat="48.14635590" lon="8.775238980">
        <ele>872.00000</ele>
        <time>2010-01-01T01:02:44Z</time>
      </trkpt>
      <trkpt lat="48.14615490" lon="8.775238980">
        <ele>871.00000</ele>
        <time>2010-01-01T01:03:04Z</time>
      </trkpt>
      <trkpt lat="48.14578390" lon="8.775635020">
        <ele>869.00000</ele>
        <time>2010-01-01T01:03:50Z</time>
      </trkpt>
      <trkpt lat="48.14536590" lon="8.775982030">
        <ele>866.00000</ele>
        <time>2010-01-01T01:04:38Z</time>
      </trkpt>
      <trkpt lat="48.14524790" lon="8.776045990">
        <ele>865.00000</ele>
        <time>2010-01-01T01:04:50Z</time>
      </trkpt>
      <trkpt lat="48.14524790" lon="8.776051020">
        <ele>865.00000</ele>
        <time>2010-01-01T01:04:51Z</time>
      </trkpt>
      <trkpt lat="48.14524490" lon="8.776309010">
        <ele>864.00000</ele>
        <time>2010-01-01T01:05:08Z</time>
      </trkpt>
      <trkpt lat="48.14517990" lon="8.776401970">
        <ele>863.00000</ele>
        <time>2010-01-01T01:05:17Z</time>
      </trkpt>
      <trkpt lat="48.14508990" lon="8.776380000">
        <ele>863.00000</ele>
        <time>2010-01-01T01:05:26Z</time>
      </trkpt>
      <trkpt lat="48.14504200" lon="8.776299040">
        <ele>863.00000</ele>
        <time>2010-01-01T01:05:33Z</time>
      </trkpt>
      <trkpt lat="48.14504200" lon="8.776295010">
        <ele>863.00000</ele>
        <time>2010-01-01T01:05:33Z</time>
      </trkpt>
      <trkpt lat="48.14506900" lon="8.776141040">
        <ele>864.00000</ele>
        <time>2010-01-01T01:05:44Z</time>
      </trkpt>
      <trkpt lat="48.14517100" lon="8.775987980">
        <ele>865.00000</ele>
        <time>2010-01-01T01:05:59Z</time>
      </trkpt>
      <trkpt lat="48.14523290" lon="8.775753960">
        <ele>866.00000</ele>
        <time>2010-01-01T01:06:15Z</time>
      </trkpt>
      <trkpt lat="48.14522800" lon="8.775753960">
        <ele>866.00000</ele>
        <time>2010-01-01T01:06:16Z</time>
      </trkpt>
      <trkpt lat="48.14514200" lon="8.775728980">
        <ele>865.00000</ele>
        <time>2010-01-01T01:06:25Z</time>
      </trkpt>
      <trkpt lat="48.14513900" lon="8.775724960">
        <ele>865.00000</ele>
        <time>2010-01-01T01:06:25Z</time>
      </trkpt>
      <trkpt lat="48.14508000" lon="8.775627980">
        <ele>864.00000</ele>
        <time>2010-01-01T01:06:34Z</time>
      </trkpt>
      <trkpt lat="48.14507690" lon="8.775627980">
        <ele>864.00000</ele>
        <time>2010-01-01T01:06:34Z</time>
      </trkpt>
      <trkpt lat="48.14495600" lon="8.775665030">
        <ele>862.00000</ele>
        <time>2010-01-01T01:06:46Z</time>
      </trkpt>
      <trkpt lat="48.14475890" lon="8.775867030">
        <ele>857.00000</ele>
        <time>2010-01-01T01:07:10Z</time>
      </trkpt>
      <trkpt lat="48.14464000" lon="8.776128970">
        <ele>853.00000</ele>
        <time>2010-01-01T01:07:31Z</time>
      </trkpt>
      <trkpt lat="48.14464000" lon="8.776137010">
        <ele>853.00000</ele>
        <time>2010-01-01T01:07:32Z</time>
      </trkpt>
      <trkpt lat="48.14462100" lon="8.776302980">
        <ele>851.00000</ele>
        <time>2010-01-01T01:07:43Z</time>
      </trkpt>
      <trkpt lat="48.14462100" lon="8.776318980">
        <ele>851.00000</ele>
        <time>2010-01-01T01:07:44Z</time>
      </trkpt>
      <trkpt lat="48.14462690" lon="8.776391990">
        <ele>851.00000</ele>
        <time>2010-01-01T01:07:49Z</time>
      </trkpt>
      <trkpt lat="48.14462890" lon="8.776408000">
        <ele>851.00000</ele>
        <time>2010-01-01T01:07:50Z</time>
      </trkpt>
      <trkpt lat="48.14466700" lon="8.776553010">
        <ele>852.00000</ele>
        <time>2010-01-01T01:08:01Z</time>
      </trkpt>
      <trkpt lat="48.14467290" lon="8.776553010">
        <ele>852.00000</ele>
        <time>2010-01-01T01:08:01Z</time>
      </trkpt>
      <trkpt lat="48.14474290" lon="8.776706980">
        <ele>853.00000</ele>
        <time>2010-01-01T01:08:14Z</time>
      </trkpt>
      <trkpt lat="48.14474790" lon="8.776722990">
        <ele>853.00000</ele>
        <time>2010-01-01T01:08:15Z</time>
      </trkpt>
      <trkpt lat="48.14481790" lon="8.776925000">
        <ele>852.00000</ele>
        <time>2010-01-01T01:08:30Z</time>
      </trkpt>
      <trkpt lat="48.14482400" lon="8.776925000">
        <ele>853.00000</ele>
        <time>2010-01-01T01:08:31Z</time>
      </trkpt>
      <trkpt lat="48.14496090" lon="8.777127000">
        <ele>854.00000</ele>
        <time>2010-01-01T01:08:50Z</time>
      </trkpt>
      <trkpt lat="48.14497190" lon="8.777143010">
        <ele>854.00000</ele>
        <time>2010-01-01T01:08:51Z</time>
      </trkpt>
      <trkpt lat="48.14502600" lon="8.777305030">
        <ele>853.00000</ele>
        <time>2010-01-01T01:09:04Z</time>
      </trkpt>
      <trkpt lat="48.14502600" lon="8.777308970">
        <ele>853.00000</ele>
        <time>2010-01-01T01:09:04Z</time>
      </trkpt>
      <trkpt lat="48.14502600" lon="8.777380970">
        <ele>852.00000</ele>
        <time>2010-01-01T01:09:09Z</time>
      </trkpt>
      <trkpt lat="48.14502300" lon="8.777392960">
        <ele>851.00000</ele>
        <time>2010-01-01T01:09:10Z</time>
      </trkpt>
      <trkpt lat="48.14494490" lon="8.777591020">
        <ele>847.00000</ele>
        <time>2010-01-01T01:09:25Z</time>
      </trkpt>
      <trkpt lat="48.14494490" lon="8.777587000">
        <ele>847.00000</ele>
        <time>2010-01-01T01:09:25Z</time>
      </trkpt>
      <trkpt lat="48.14504200" lon="8.777853960">
        <ele>845.00000</ele>
        <time>2010-01-01T01:09:45Z</time>
      </trkpt>
      <trkpt lat="48.14505500" lon="8.777869970">
        <ele>845.00000</ele>
        <time>2010-01-01T01:09:47Z</time>
      </trkpt>
      <trkpt lat="48.14506090" lon="8.777885980">
        <ele>845.00000</ele>
        <time>2010-01-01T01:09:48Z</time>
      </trkpt>
      <trkpt lat="48.14514400" lon="8.778144980">
        <ele>841.00000</ele>
        <time>2010-01-01T01:10:08Z</time>
      </trkpt>
      <trkpt lat="48.14515200" lon="8.778160990">
        <ele>841.00000</ele>
        <time>2010-01-01T01:10:09Z</time>
      </trkpt>
      <trkpt lat="48.14520100" lon="8.778285970">
        <ele>839.00000</ele>
        <time>2010-01-01T01:10:19Z</time>
      </trkpt>
      <trkpt lat="48.14520590" lon="8.778306000">
        <ele>839.00000</ele>
        <time>2010-01-01T01:10:20Z</time>
      </trkpt>
      <trkpt lat="48.14531400" lon="8.778503980">
        <ele>836.00000</ele>
        <time>2010-01-01T01:10:37Z</time>
      </trkpt>
      <trkpt lat="48.14545090" lon="8.778790980">
        <ele>832.00000</ele>
        <time>2010-01-01T01:11:01Z</time>
      </trkpt>
      <trkpt lat="48.14557890" lon="8.779191970">
        <ele>826.00000</ele>
        <time>2010-01-01T01:11:30Z</time>
      </trkpt>
      <trkpt lat="48.14557890" lon="8.779204960">
        <ele>826.00000</ele>
        <time>2010-01-01T01:11:31Z</time>
      </trkpt>
      <trkpt lat="48.14573690" lon="8.779622960">
        <ele>821.00000</ele>
        <time>2010-01-01T01:12:03Z</time>
      </trkpt>
      <trkpt lat="48.14574100" lon="8.779629000">
        <ele>820.00000</ele>
        <time>2010-01-01T01:12:04Z</time>
      </trkpt>
      <trkpt lat="48.14575390" lon="8.779770990">
        <ele>819.00000</ele>
        <time>2010-01-01T01:12:13Z</time>
      </trkpt>
      <trkpt lat="48.14553890" lon="8.780099980">
        <ele>815.00000</ele>
        <time>2010-01-01T01:12:44Z</time>
      </trkpt>
      <trkpt lat="48.14530100" lon="8.780443970">
        <ele>812.00000</ele>
        <time>2010-01-01T01:13:17Z</time>
      </trkpt>
      <trkpt lat="48.14519800" lon="8.780544970">
        <ele>811.00000</ele>
        <time>2010-01-01T01:13:30Z</time>
      </trkpt>
      <trkpt lat="48.14519290" lon="8.780544970">
        <ele>811.00000</ele>
        <time>2010-01-01T01:13:30Z</time>
      </trkpt>
      <trkpt lat="48.14500390" lon="8.780612030">
        <ele>810.00000</ele>
        <time>2010-01-01T01:13:49Z</time>
      </trkpt>
      <trkpt lat="48.14491000" lon="8.780800960">
        <ele>808.00000</ele>
        <time>2010-01-01T01:14:05Z</time>
      </trkpt>
      <trkpt lat="48.14478890" lon="8.781097000">
        <ele>804.00000</ele>
        <time>2010-01-01T01:14:28Z</time>
      </trkpt>
      <trkpt lat="48.14478890" lon="8.781110000">
        <ele>804.00000</ele>
        <time>2010-01-01T01:14:29Z</time>
      </trkpt>
      <trkpt lat="48.14479300" lon="8.781264980">
        <ele>803.00000</ele>
        <time>2010-01-01T01:14:40Z</time>
      </trkpt>
      <trkpt lat="48.14479300" lon="8.781277970">
        <ele>803.00000</ele>
        <time>2010-01-01T01:14:40Z</time>
      </trkpt>
      <trkpt lat="48.14510790" lon="8.781634960">
        <ele>800.00000</ele>
        <time>2010-01-01T01:15:20Z</time>
      </trkpt>
      <trkpt lat="48.14511200" lon="8.781629000">
        <ele>800.00000</ele>
        <time>2010-01-01T01:15:21Z</time>
      </trkpt>
      <trkpt lat="48.14528300" lon="8.781878030">
        <ele>798.00000</ele>
        <time>2010-01-01T01:15:44Z</time>
      </trkpt>
      <trkpt lat="48.14528700" lon="8.781883980">
        <ele>798.00000</ele>
        <time>2010-01-01T01:15:45Z</time>
      </trkpt>
      <trkpt lat="48.14536390" lon="8.782038960">
        <ele>797.00000</ele>
        <time>2010-01-01T01:15:58Z</time>
      </trkpt>
      <trkpt lat="48.14515700" lon="8.782174000">
        <ele>797.00000</ele>
        <time>2010-01-01T01:16:20Z</time>
      </trkpt>
      <trkpt lat="48.14492800" lon="8.782308020">
        <ele>795.00000</ele>
        <time>2010-01-01T01:16:45Z</time>
      </trkpt>
      <trkpt lat="48.14439400" lon="8.782679010">
        <ele>791.00000</ele>
        <time>2010-01-01T01:17:44Z</time>
      </trkpt>
      <trkpt lat="48.14439400" lon="8.782684960">
        <ele>791.00000</ele>
        <time>2010-01-01T01:17:44Z</time>
      </trkpt>
      <trkpt lat="48.14455490" lon="8.783061970">
        <ele>790.00000</ele>
        <time>2010-01-01T01:18:14Z</time>
      </trkpt>
      <trkpt lat="48.14456400" lon="8.783069020">
        <ele>790.00000</ele>
        <time>2010-01-01T01:18:15Z</time>
      </trkpt>
      <trkpt lat="48.14470290" lon="8.783284010">
        <ele>789.00000</ele>
        <time>2010-01-01T01:18:35Z</time>
      </trkpt>
      <trkpt lat="48.14470290" lon="8.783290970">
        <ele>789.00000</ele>
        <time>2010-01-01T01:18:36Z</time>
      </trkpt>
      <trkpt lat="48.14527590" lon="8.784419000">
        <ele>789.00000</ele>
        <time>2010-01-01T01:20:10Z</time>
      </trkpt>
      <trkpt lat="48.14528500" lon="8.784419000">
        <ele>789.00000</ele>
        <time>2010-01-01T01:20:11Z</time>
      </trkpt>
      <trkpt lat="48.14554990" lon="8.784943960">
        <ele>789.00000</ele>
        <time>2010-01-01T01:20:55Z</time>
      </trkpt>
      <trkpt lat="48.14554990" lon="8.784951000">
        <ele>789.00000</ele>
        <time>2010-01-01T01:20:56Z</time>
      </trkpt>
      <trkpt lat="48.14563590" lon="8.785071950">
        <ele>789.00000</ele>
        <time>2010-01-01T01:21:08Z</time>
      </trkpt>
      <trkpt lat="48.14564500" lon="8.785085030">
        <ele>789.00000</ele>
        <time>2010-01-01T01:21:09Z</time>
      </trkpt>
      <trkpt lat="48.14585600" lon="8.785522980">
        <ele>789.00000</ele>
        <time>2010-01-01T01:21:45Z</time>
      </trkpt>
      <trkpt lat="48.14586890" lon="8.785549970">
        <ele>789.00000</ele>
        <time>2010-01-01T01:21:47Z</time>
      </trkpt>
      <trkpt lat="48.14609390" lon="8.785993960">
        <ele>788.00000</ele>
        <time>2010-01-01T01:22:24Z</time>
      </trkpt>
      <trkpt lat="48.14648690" lon="8.786752020">
        <ele>788.00000</ele>
        <time>2010-01-01T01:23:28Z</time>
      </trkpt>
      <trkpt lat="48.14649590" lon="8.786752020">
        <ele>788.00000</ele>
        <time>2010-01-01T01:23:29Z</time>
      </trkpt>
      <trkpt lat="48.14686900" lon="8.787505980">
        <ele>786.00000</ele>
        <time>2010-01-01T01:24:32Z</time>
      </trkpt>
      <trkpt lat="48.14687290" lon="8.787512010">
        <ele>786.00000</ele>
        <time>2010-01-01T01:24:33Z</time>
      </trkpt>
      <trkpt lat="48.14717790" lon="8.788063960">
        <ele>784.00000</ele>
        <time>2010-01-01T01:25:20Z</time>
      </trkpt>
      <trkpt lat="48.14690900" lon="8.788233020">
        <ele>784.00000</ele>
        <time>2010-01-01T01:25:50Z</time>
      </trkpt>
      <trkpt lat="48.14672500" lon="8.788366960">
        <ele>783.00000</ele>
        <time>2010-01-01T01:26:10Z</time>
      </trkpt>
      <trkpt lat="48.14654090" lon="8.788448020">
        <ele>783.00000</ele>
        <time>2010-01-01T01:26:29Z</time>
      </trkpt>
      <trkpt lat="48.14632100" lon="8.788427980">
        <ele>782.00000</ele>
        <time>2010-01-01T01:26:51Z</time>
      </trkpt>
      <trkpt lat="48.14631190" lon="8.788421030">
        <ele>782.00000</ele>
        <time>2010-01-01T01:26:52Z</time>
      </trkpt>
      <trkpt lat="48.14600600" lon="8.788307030">
        <ele>781.00000</ele>
        <time>2010-01-01T01:27:24Z</time>
      </trkpt>
      <trkpt lat="48.14583100" lon="8.788238970">
        <ele>781.00000</ele>
        <time>2010-01-01T01:27:42Z</time>
      </trkpt>
      <trkpt lat="48.14582690" lon="8.788238970">
        <ele>781.00000</ele>
        <time>2010-01-01T01:27:42Z</time>
      </trkpt>
      <trkpt lat="48.14570990" lon="8.788299990">
        <ele>781.00000</ele>
        <time>2010-01-01T01:27:55Z</time>
      </trkpt>
      <trkpt lat="48.14553890" lon="8.788541980">
        <ele>780.00000</ele>
        <time>2010-01-01T01:28:18Z</time>
      </trkpt>
      <trkpt lat="48.14543590" lon="8.788637030">
        <ele>780.00000</ele>
        <time>2010-01-01T01:28:30Z</time>
      </trkpt>
      <trkpt lat="48.14533190" lon="8.788716990">
        <ele>780.00000</ele>
        <time>2010-01-01T01:28:42Z</time>
      </trkpt>
      <trkpt lat="48.14525200" lon="8.788805000">
        <ele>780.00000</ele>
        <time>2010-01-01T01:28:52Z</time>
      </trkpt>
      <trkpt lat="48.14516190" lon="8.789155030">
        <ele>779.00000</ele>
        <time>2010-01-01T01:29:17Z</time>
      </trkpt>
      <trkpt lat="48.14507890" lon="8.789414030">
        <ele>779.00000</ele>
        <time>2010-01-01T01:29:36Z</time>
      </trkpt>
      <trkpt lat="48.14508300" lon="8.789414030">
        <ele>779.00000</ele>
        <time>2010-01-01T01:29:37Z</time>
      </trkpt>
      <trkpt lat="48.14498400" lon="8.789529030">
        <ele>779.00000</ele>
        <time>2010-01-01T01:29:49Z</time>
      </trkpt>
      <trkpt lat="48.14483600" lon="8.789710000">
        <ele>780.00000</ele>
        <time>2010-01-01T01:30:08Z</time>
      </trkpt>
      <trkpt lat="48.14459400" lon="8.789758030">
        <ele>781.00000</ele>
        <time>2010-01-01T01:30:33Z</time>
      </trkpt>
      <trkpt lat="48.14436500" lon="8.789758030">
        <ele>783.00000</ele>
        <time>2010-01-01T01:30:56Z</time>
      </trkpt>
      <trkpt lat="48.14417090" lon="8.789731040">
        <ele>784.00000</ele>
        <time>2010-01-01T01:31:15Z</time>
      </trkpt>
      <trkpt lat="48.14407700" lon="8.789622990">
        <ele>785.00000</ele>
        <time>2010-01-01T01:31:27Z</time>
      </trkpt>
      <trkpt lat="48.14408190" lon="8.789622990">
        <ele>785.00000</ele>
        <time>2010-01-01T01:31:28Z</time>
      </trkpt>
      <trkpt lat="48.14390600" lon="8.789258970">
        <ele>787.00000</ele>
        <time>2010-01-01T01:31:58Z</time>
      </trkpt>
      <trkpt lat="48.14390600" lon="8.789266010">
        <ele>787.00000</ele>
        <time>2010-01-01T01:31:58Z</time>
      </trkpt>
      <trkpt lat="48.14389290" lon="8.789556020">
        <ele>787.00000</ele>
        <time>2010-01-01T01:32:17Z</time>
      </trkpt>
      <trkpt lat="48.14387500" lon="8.789684010">
        <ele>787.00000</ele>
        <time>2010-01-01T01:32:26Z</time>
      </trkpt>
      <trkpt lat="48.14386990" lon="8.789689960">
        <ele>787.00000</ele>
        <time>2010-01-01T01:32:27Z</time>
      </trkpt>
      <trkpt lat="48.14375800" lon="8.789777970">
        <ele>788.00000</ele>
        <time>2010-01-01T01:32:39Z</time>
      </trkpt>
      <trkpt lat="48.14302090" lon="8.789703960">
        <ele>795.00000</ele>
        <time>2010-01-01T01:33:53Z</time>
      </trkpt>
      <trkpt lat="48.14259500" lon="8.789731040">
        <ele>800.00000</ele>
        <time>2010-01-01T01:34:36Z</time>
      </trkpt>
      <trkpt lat="48.14245490" lon="8.789703960">
        <ele>801.00000</ele>
        <time>2010-01-01T01:34:50Z</time>
      </trkpt>
      <trkpt lat="48.14244590" lon="8.789703960">
        <ele>802.00000</ele>
        <time>2010-01-01T01:34:51Z</time>
      </trkpt>
      <trkpt lat="48.14209200" lon="8.789468010">
        <ele>807.00000</ele>
        <time>2010-01-01T01:35:30Z</time>
      </trkpt>
      <trkpt lat="48.14164190" lon="8.789286960">
        <ele>814.00000</ele>
        <time>2010-01-01T01:36:16Z</time>
      </trkpt>
      <trkpt lat="48.14140400" lon="8.789185960">
        <ele>818.00000</ele>
        <time>2010-01-01T01:36:41Z</time>
      </trkpt>
      <trkpt lat="48.14140400" lon="8.789192000">
        <ele>818.00000</ele>
        <time>2010-01-01T01:36:42Z</time>
      </trkpt>
      <trkpt lat="48.14103100" lon="8.789065010">
        <ele>825.00000</ele>
        <time>2010-01-01T01:37:20Z</time>
      </trkpt>
      <trkpt lat="48.14087790" lon="8.789003990">
        <ele>828.00000</ele>
        <time>2010-01-01T01:37:36Z</time>
      </trkpt>
      <trkpt lat="48.14070800" lon="8.788882950">
        <ele>832.00000</ele>
        <time>2010-01-01T01:37:55Z</time>
      </trkpt>
      <trkpt lat="48.14051000" lon="8.788673990">
        <ele>836.00000</ele>
        <time>2010-01-01T01:38:19Z</time>
      </trkpt>
      <trkpt lat="48.14050590" lon="8.788673990">
        <ele>836.00000</ele>
        <time>2010-01-01T01:38:19Z</time>
      </trkpt>
      <trkpt lat="48.14034900" lon="8.788479030">
        <ele>840.00000</ele>
        <time>2010-01-01T01:38:40Z</time>
      </trkpt>
      <trkpt lat="48.14025400" lon="8.788230000">
        <ele>842.00000</ele>
        <time>2010-01-01T01:38:59Z</time>
      </trkpt>
      <trkpt lat="48.14009690" lon="8.787933960">
        <ele>847.00000</ele>
        <time>2010-01-01T01:39:24Z</time>
      </trkpt>
      <trkpt lat="48.14009200" lon="8.787927000">
        <ele>847.00000</ele>
        <time>2010-01-01T01:39:25Z</time>
      </trkpt>
      <trkpt lat="48.13992200" lon="8.787549980">
        <ele>854.00000</ele>
        <time>2010-01-01T01:39:55Z</time>
      </trkpt>
      <trkpt lat="48.13972890" lon="8.787206990">
        <ele>861.00000</ele>
        <time>2010-01-01T01:40:25Z</time>
      </trkpt>
      <trkpt lat="48.13950000" lon="8.786916980">
        <ele>868.00000</ele>
        <time>2010-01-01T01:40:55Z</time>
      </trkpt>
      <trkpt lat="48.13927500" lon="8.786668040">
        <ele>874.00000</ele>
        <time>2010-01-01T01:41:23Z</time>
      </trkpt>
      <trkpt lat="48.13897400" lon="8.786406020">
        <ele>879.00000</ele>
        <time>2010-01-01T01:41:58Z</time>
      </trkpt>
      <trkpt lat="48.13864100" lon="8.786076020">
        <ele>884.00000</ele>
        <time>2010-01-01T01:42:38Z</time>
      </trkpt>
      <trkpt lat="48.13853390" lon="8.785968990">
        <ele>885.00000</ele>
        <time>2010-01-01T01:42:51Z</time>
      </trkpt>
      <trkpt lat="48.13853390" lon="8.785962030">
        <ele>885.00000</ele>
        <time>2010-01-01T01:42:51Z</time>
      </trkpt>
      <trkpt lat="48.13832300" lon="8.785827000">
        <ele>888.00000</ele>
        <time>2010-01-01T01:43:14Z</time>
      </trkpt>
      <trkpt lat="48.13831390" lon="8.785819960">
        <ele>889.00000</ele>
        <time>2010-01-01T01:43:15Z</time>
      </trkpt>
      <trkpt lat="48.13808000" lon="8.785558020">
        <ele>895.00000</ele>
        <time>2010-01-01T01:43:44Z</time>
      </trkpt>
      <trkpt lat="48.13790500" lon="8.785288960">
        <ele>898.00000</ele>
        <time>2010-01-01T01:44:09Z</time>
      </trkpt>
      <trkpt lat="48.13759890" lon="8.784777000">
        <ele>903.00000</ele>
        <time>2010-01-01T01:44:55Z</time>
      </trkpt>
      <trkpt lat="48.13746490" lon="8.784548000">
        <ele>905.00000</ele>
        <time>2010-01-01T01:45:16Z</time>
      </trkpt>
      <trkpt lat="48.13727200" lon="8.784830980">
        <ele>915.00000</ele>
        <time>2010-01-01T01:45:43Z</time>
      </trkpt>
      <trkpt lat="48.13727600" lon="8.784830980">
        <ele>914.00000</ele>
        <time>2010-01-01T01:45:43Z</time>
      </trkpt>
      <trkpt lat="48.13717300" lon="8.784500980">
        <ele>915.00000</ele>
        <time>2010-01-01T01:46:07Z</time>
      </trkpt>
      <trkpt lat="48.13717300" lon="8.784487990">
        <ele>915.00000</ele>
        <time>2010-01-01T01:46:08Z</time>
      </trkpt>
      <trkpt lat="48.13706890" lon="8.783916010">
        <ele>912.00000</ele>
        <time>2010-01-01T01:46:48Z</time>
      </trkpt>
      <trkpt lat="48.13706890" lon="8.783902010">
        <ele>912.00000</ele>
        <time>2010-01-01T01:46:49Z</time>
      </trkpt>
      <trkpt lat="48.13692090" lon="8.783169010">
        <ele>909.00000</ele>
        <time>2010-01-01T01:47:40Z</time>
      </trkpt>
      <trkpt lat="48.13687000" lon="8.782949990">
        <ele>909.00000</ele>
        <time>2010-01-01T01:47:56Z</time>
      </trkpt>
      <trkpt lat="48.13687000" lon="8.782943960">
        <ele>909.00000</ele>
        <time>2010-01-01T01:47:56Z</time>
      </trkpt>
      <trkpt lat="48.13669390" lon="8.782526040">
        <ele>911.00000</ele>
        <time>2010-01-01T01:48:29Z</time>
      </trkpt>
      <trkpt lat="48.13656900" lon="8.782223030">
        <ele>916.00000</ele>
        <time>2010-01-01T01:48:53Z</time>
      </trkpt>
      <trkpt lat="48.13651000" lon="8.781705030">
        <ele>918.00000</ele>
        <time>2010-01-01T01:49:28Z</time>
      </trkpt>
      <trkpt lat="48.13651000" lon="8.781697990">
        <ele>918.00000</ele>
        <time>2010-01-01T01:49:28Z</time>
      </trkpt>
      <trkpt lat="48.13648300" lon="8.781389030">
        <ele>921.00000</ele>
        <time>2010-01-01T01:49:49Z</time>
      </trkpt>
      <trkpt lat="48.13647390" lon="8.781114020">
        <ele>922.00000</ele>
        <time>2010-01-01T01:50:07Z</time>
      </trkpt>
      <trkpt lat="48.13647000" lon="8.780784020">
        <ele>923.00000</ele>
        <time>2010-01-01T01:50:30Z</time>
      </trkpt>
      <trkpt lat="48.13647000" lon="8.780776980">
        <ele>923.00000</ele>
        <time>2010-01-01T01:50:30Z</time>
      </trkpt>
      <trkpt lat="48.13649190" lon="8.780541030">
        <ele>920.00000</ele>
        <time>2010-01-01T01:50:46Z</time>
      </trkpt>
      <trkpt lat="48.13649190" lon="8.780535000">
        <ele>920.00000</ele>
        <time>2010-01-01T01:50:46Z</time>
      </trkpt>
      <trkpt lat="48.13647890" lon="8.780211960">
        <ele>919.00000</ele>
        <time>2010-01-01T01:51:08Z</time>
      </trkpt>
      <trkpt lat="48.13640290" lon="8.779840980">
        <ele>919.00000</ele>
        <time>2010-01-01T01:51:34Z</time>
      </trkpt>
      <trkpt lat="48.13640290" lon="8.779835030">
        <ele>919.00000</ele>
        <time>2010-01-01T01:51:34Z</time>
      </trkpt>
      <trkpt lat="48.13620900" lon="8.779269000">
        <ele>921.00000</ele>
        <time>2010-01-01T01:52:17Z</time>
      </trkpt>
      <trkpt lat="48.13620900" lon="8.779262960">
        <ele>921.00000</ele>
        <time>2010-01-01T01:52:17Z</time>
      </trkpt>
      <trkpt lat="48.13577800" lon="8.778193010">
        <ele>933.00000</ele>
        <time>2010-01-01T01:53:41Z</time>
      </trkpt>
      <trkpt lat="48.13558490" lon="8.777674000">
        <ele>939.00000</ele>
        <time>2010-01-01T01:54:20Z</time>
      </trkpt>
      <trkpt lat="48.13539200" lon="8.777028010">
        <ele>941.00000</ele>
        <time>2010-01-01T01:55:08Z</time>
      </trkpt>
      <trkpt lat="48.13537900" lon="8.776813010">
        <ele>939.00000</ele>
        <time>2010-01-01T01:55:22Z</time>
      </trkpt>
      <trkpt lat="48.13528390" lon="8.776571030">
        <ele>939.00000</ele>
        <time>2010-01-01T01:55:41Z</time>
      </trkpt>
      <trkpt lat="48.13527990" lon="8.776557030">
        <ele>939.00000</ele>
        <time>2010-01-01T01:55:42Z</time>
      </trkpt>
      <trkpt lat="48.13518090" lon="8.776423000">
        <ele>940.00000</ele>
        <time>2010-01-01T01:55:55Z</time>
      </trkpt>
      <trkpt lat="48.13498290" lon="8.776199960">
        <ele>944.00000</ele>
        <time>2010-01-01T01:56:20Z</time>
      </trkpt>
      <trkpt lat="48.13477200" lon="8.775810040">
        <ele>949.00000</ele>
        <time>2010-01-01T01:56:53Z</time>
      </trkpt>
      <trkpt lat="48.13460590" lon="8.775399990">
        <ele>951.00000</ele>
        <time>2010-01-01T01:57:25Z</time>
      </trkpt>
      <trkpt lat="48.13438400" lon="8.774803960">
        <ele>950.00000</ele>
        <time>2010-01-01T01:58:11Z</time>
      </trkpt>
      <trkpt lat="48.13438400" lon="8.774798000">
        <ele>950.00000</ele>
        <time>2010-01-01T01:58:11Z</time>
      </trkpt>
      <trkpt lat="48.13420390" lon="8.774367010">
        <ele>951.00000</ele>
        <time>2010-01-01T01:58:45Z</time>
      </trkpt>
      <trkpt lat="48.13420390" lon="8.774354020">
        <ele>951.00000</ele>
        <time>2010-01-01T01:58:46Z</time>
      </trkpt>
      <trkpt lat="48.13394390" lon="8.773828970">
        <ele>957.00000</ele>
        <time>2010-01-01T01:59:30Z</time>
      </trkpt>
      <trkpt lat="48.13383090" lon="8.773607020">
        <ele>960.00000</ele>
        <time>2010-01-01T01:59:49Z</time>
      </trkpt>
      <trkpt lat="48.13369200" lon="8.773168980">
        <ele>961.00000</ele>
        <time>2010-01-01T02:00:21Z</time>
      </trkpt>
      <trkpt lat="48.13352990" lon="8.772543020">
        <ele>963.00000</ele>
        <time>2010-01-01T02:01:06Z</time>
      </trkpt>
      <trkpt lat="48.13352990" lon="8.772530030">
        <ele>962.00000</ele>
        <time>2010-01-01T02:01:07Z</time>
      </trkpt>
      <trkpt lat="48.13345390" lon="8.772307990">
        <ele>964.00000</ele>
        <time>2010-01-01T02:01:23Z</time>
      </trkpt>
      <trkpt lat="48.13345390" lon="8.772293990">
        <ele>964.00000</ele>
        <time>2010-01-01T02:01:24Z</time>
      </trkpt>
      <trkpt lat="48.13334190" lon="8.771668030">
        <ele>967.00000</ele>
        <time>2010-01-01T02:02:08Z</time>
      </trkpt>
      <trkpt lat="48.13334190" lon="8.771654960">
        <ele>967.00000</ele>
        <time>2010-01-01T02:02:08Z</time>
      </trkpt>
      <trkpt lat="48.13335490" lon="8.771164030">
        <ele>962.00000</ele>
        <time>2010-01-01T02:02:41Z</time>
      </trkpt>
      <trkpt lat="48.13339590" lon="8.770470010">
        <ele>953.00000</ele>
        <time>2010-01-01T02:03:28Z</time>
      </trkpt>
      <trkpt lat="48.13339590" lon="8.770463970">
        <ele>952.00000</ele>
        <time>2010-01-01T02:03:28Z</time>
      </trkpt>
      <trkpt lat="48.13334600" lon="8.770092990">
        <ele>947.00000</ele>
        <time>2010-01-01T02:03:53Z</time>
      </trkpt>
      <trkpt lat="48.13318900" lon="8.769857960">
        <ele>946.00000</ele>
        <time>2010-01-01T02:04:16Z</time>
      </trkpt>
      <trkpt lat="48.13318390" lon="8.769851010">
        <ele>946.00000</ele>
        <time>2010-01-01T02:04:16Z</time>
      </trkpt>
      <trkpt lat="48.13296890" lon="8.769535010">
        <ele>943.00000</ele>
        <time>2010-01-01T02:04:47Z</time>
      </trkpt>
      <trkpt lat="48.13274200" lon="8.769295960">
        <ele>939.00000</ele>
        <time>2010-01-01T02:05:14Z</time>
      </trkpt>
      <trkpt lat="48.13255800" lon="8.769194950">
        <ele>936.00000</ele>
        <time>2010-01-01T02:05:34Z</time>
      </trkpt>
      <trkpt lat="48.13236900" lon="8.769484970">
        <ele>942.00000</ele>
        <time>2010-01-01T02:06:01Z</time>
      </trkpt>
      <trkpt lat="48.13237390" lon="8.769491000">
        <ele>942.00000</ele>
        <time>2010-01-01T02:06:02Z</time>
      </trkpt>
      <trkpt lat="48.13223390" lon="8.769928960">
        <ele>951.00000</ele>
        <time>2010-01-01T02:06:34Z</time>
      </trkpt>
      <trkpt lat="48.13223390" lon="8.769934990">
        <ele>951.00000</ele>
        <time>2010-01-01T02:06:34Z</time>
      </trkpt>
      <trkpt lat="48.13210390" lon="8.770466990">
        <ele>963.00000</ele>
        <time>2010-01-01T02:07:12Z</time>
      </trkpt>
      <trkpt lat="48.13186190" lon="8.771126980">
        <ele>975.00000</ele>
        <time>2010-01-01T02:08:03Z</time>
      </trkpt>
      <trkpt lat="48.13186190" lon="8.771133020">
        <ele>975.00000</ele>
        <time>2010-01-01T02:08:03Z</time>
      </trkpt>
      <trkpt lat="48.13161490" lon="8.771826960">
        <ele>982.00000</ele>
        <time>2010-01-01T02:08:56Z</time>
      </trkpt>
      <trkpt lat="48.13147500" lon="8.771921000">
        <ele>978.00000</ele>
        <time>2010-01-01T02:09:11Z</time>
      </trkpt>
      <trkpt lat="48.13115590" lon="8.772312020">
        <ele>973.00000</ele>
        <time>2010-01-01T02:09:52Z</time>
      </trkpt>
      <trkpt lat="48.13071990" lon="8.772830020">
        <ele>970.00000</ele>
        <time>2010-01-01T02:10:48Z</time>
      </trkpt>
      <trkpt lat="48.13071600" lon="8.772830020">
        <ele>970.00000</ele>
        <time>2010-01-01T02:10:48Z</time>
      </trkpt>
      <trkpt lat="48.13025800" lon="8.773274010">
        <ele>972.00000</ele>
        <time>2010-01-01T02:11:43Z</time>
      </trkpt>
      <trkpt lat="48.13025800" lon="8.773280960">
        <ele>972.00000</ele>
        <time>2010-01-01T02:11:43Z</time>
      </trkpt>
      <trkpt lat="48.13017200" lon="8.773616990">
        <ele>974.00000</ele>
        <time>2010-01-01T02:12:07Z</time>
      </trkpt>
      <trkpt lat="48.13017200" lon="8.773624040">
        <ele>975.00000</ele>
        <time>2010-01-01T02:12:08Z</time>
      </trkpt>
      <trkpt lat="48.13022600" lon="8.773920000">
        <ele>977.00000</ele>
        <time>2010-01-01T02:12:28Z</time>
      </trkpt>
      <trkpt lat="48.13020390" lon="8.774095010">
        <ele>978.00000</ele>
        <time>2010-01-01T02:12:40Z</time>
      </trkpt>
      <trkpt lat="48.13014890" lon="8.774263990">
        <ele>978.00000</ele>
        <time>2010-01-01T02:12:53Z</time>
      </trkpt>
      <trkpt lat="48.13007790" lon="8.774431970">
        <ele>979.00000</ele>
        <time>2010-01-01T02:13:06Z</time>
      </trkpt>
      <trkpt lat="48.13000590" lon="8.774545960">
        <ele>979.00000</ele>
        <time>2010-01-01T02:13:16Z</time>
      </trkpt>
      <trkpt lat="48.13000590" lon="8.774553000">
        <ele>979.00000</ele>
        <time>2010-01-01T02:13:17Z</time>
      </trkpt>
      <trkpt lat="48.12989800" lon="8.774633970">
        <ele>979.00000</ele>
        <time>2010-01-01T02:13:29Z</time>
      </trkpt>
      <trkpt lat="48.12986190" lon="8.774646960">
        <ele>979.00000</ele>
        <time>2010-01-01T02:13:33Z</time>
      </trkpt>
      <trkpt lat="48.12986190" lon="8.774640010">
        <ele>979.00000</ele>
        <time>2010-01-01T02:13:33Z</time>
      </trkpt>
      <trkpt lat="48.12979500" lon="8.774257040">
        <ele>976.00000</ele>
        <time>2010-01-01T02:14:00Z</time>
      </trkpt>
      <trkpt lat="48.12979900" lon="8.774250000">
        <ele>976.00000</ele>
        <time>2010-01-01T02:14:00Z</time>
      </trkpt>
      <trkpt lat="48.12976290" lon="8.774142040">
        <ele>975.00000</ele>
        <time>2010-01-01T02:14:08Z</time>
      </trkpt>
      <trkpt lat="48.12978100" lon="8.774109010">
        <ele>975.00000</ele>
        <time>2010-01-01T02:14:11Z</time>
      </trkpt>
      <trkpt lat="48.12979500" lon="8.773987980">
        <ele>974.00000</ele>
        <time>2010-01-01T02:14:19Z</time>
      </trkpt>
      <trkpt lat="48.12979500" lon="8.773994010">
        <ele>974.00000</ele>
        <time>2010-01-01T02:14:20Z</time>
      </trkpt>
      <trkpt lat="48.12956600" lon="8.774021000">
        <ele>971.00000</ele>
        <time>2010-01-01T02:14:43Z</time>
      </trkpt>
      <trkpt lat="48.12955690" lon="8.774027960">
        <ele>971.00000</ele>
        <time>2010-01-01T02:14:44Z</time>
      </trkpt>
      <trkpt lat="48.12930090" lon="8.774169030">
        <ele>970.00000</ele>
        <time>2010-01-01T02:15:11Z</time>
      </trkpt>
      <trkpt lat="48.12927800" lon="8.774169030">
        <ele>970.00000</ele>
        <time>2010-01-01T02:15:13Z</time>
      </trkpt>
      <trkpt lat="48.12884190" lon="8.774284030">
        <ele>965.00000</ele>
        <time>2010-01-01T02:15:58Z</time>
      </trkpt>
      <trkpt lat="48.12883790" lon="8.774284030">
        <ele>964.00000</ele>
        <time>2010-01-01T02:15:58Z</time>
      </trkpt>
      <trkpt lat="48.12867600" lon="8.774412020">
        <ele>965.00000</ele>
        <time>2010-01-01T02:16:16Z</time>
      </trkpt>
      <trkpt lat="48.12867200" lon="8.774417970">
        <ele>965.00000</ele>
        <time>2010-01-01T02:16:17Z</time>
      </trkpt>
      <trkpt lat="48.12835700" lon="8.774848970">
        <ele>972.00000</ele>
        <time>2010-01-01T02:17:00Z</time>
      </trkpt>
      <trkpt lat="48.12815990" lon="8.775050970">
        <ele>973.00000</ele>
        <time>2010-01-01T02:17:24Z</time>
      </trkpt>
      <trkpt lat="48.12809190" lon="8.775347020">
        <ele>980.00000</ele>
        <time>2010-01-01T02:17:44Z</time>
      </trkpt>
      <trkpt lat="48.12789900" lon="8.775737030">
        <ele>989.00000</ele>
        <time>2010-01-01T02:18:17Z</time>
      </trkpt>
      <trkpt lat="48.12774590" lon="8.775986980">
        <ele>992.00000</ele>
        <time>2010-01-01T02:18:40Z</time>
      </trkpt>
      <trkpt lat="48.12757090" lon="8.776323010">
        <ele>993.00000</ele>
        <time>2010-01-01T02:19:08Z</time>
      </trkpt>
      <trkpt lat="48.12743600" lon="8.776531970">
        <ele>995.00000</ele>
        <time>2010-01-01T02:19:27Z</time>
      </trkpt>
      <trkpt lat="48.12741790" lon="8.776645960">
        <ele>996.00000</ele>
        <time>2010-01-01T02:19:35Z</time>
      </trkpt>
      <trkpt lat="48.12715300" lon="8.776956010">
        <ele>995.00000</ele>
        <time>2010-01-01T02:20:09Z</time>
      </trkpt>
      <trkpt lat="48.12691090" lon="8.777171010">
        <ele>995.00000</ele>
        <time>2010-01-01T02:20:37Z</time>
      </trkpt>
      <trkpt lat="48.12660600" lon="8.777420030">
        <ele>994.00000</ele>
        <time>2010-01-01T02:21:12Z</time>
      </trkpt>
      <trkpt lat="48.12659200" lon="8.777420030">
        <ele>994.00000</ele>
        <time>2010-01-01T02:21:13Z</time>
      </trkpt>
      <trkpt lat="48.12636690" lon="8.777466970">
        <ele>992.00000</ele>
        <time>2010-01-01T02:21:36Z</time>
      </trkpt>
      <trkpt lat="48.12559190" lon="8.777605020">
        <ele>987.00000</ele>
        <time>2010-01-01T02:22:54Z</time>
      </trkpt>
      <trkpt lat="48.12559190" lon="8.777611980">
        <ele>987.00000</ele>
        <time>2010-01-01T02:22:55Z</time>
      </trkpt>
      <trkpt lat="48.12555200" lon="8.777706020">
        <ele>988.00000</ele>
        <time>2010-01-01T02:23:02Z</time>
      </trkpt>
      <trkpt lat="48.12542200" lon="8.777698980">
        <ele>987.00000</ele>
        <time>2010-01-01T02:23:15Z</time>
      </trkpt>
      <trkpt lat="48.12520190" lon="8.777908030">
        <ele>988.00000</ele>
        <time>2010-01-01T02:23:41Z</time>
      </trkpt>
      <trkpt lat="48.12449000" lon="8.777783970">
        <ele>985.00000</ele>
        <time>2010-01-01T02:24:53Z</time>
      </trkpt>
      <trkpt lat="48.12395500" lon="8.777737040">
        <ele>981.00000</ele>
        <time>2010-01-01T02:25:46Z</time>
      </trkpt>
      <trkpt lat="48.12352400" lon="8.777589010">
        <ele>974.00000</ele>
        <time>2010-01-01T02:26:31Z</time>
      </trkpt>
      <trkpt lat="48.12351890" lon="8.777589010">
        <ele>974.00000</ele>
        <time>2010-01-01T02:26:31Z</time>
      </trkpt>
      <trkpt lat="48.12321890" lon="8.777379970">
        <ele>971.00000</ele>
        <time>2010-01-01T02:27:04Z</time>
      </trkpt>
      <trkpt lat="48.12321890" lon="8.777387010">
        <ele>971.00000</ele>
        <time>2010-01-01T02:27:05Z</time>
      </trkpt>
      <trkpt lat="48.12279590" lon="8.777090960">
        <ele>974.00000</ele>
        <time>2010-01-01T02:27:52Z</time>
      </trkpt>
      <trkpt lat="48.12251290" lon="8.776794990">
        <ele>975.00000</ele>
        <time>2010-01-01T02:28:26Z</time>
      </trkpt>
      <trkpt lat="48.12232000" lon="8.776438010">
        <ele>976.00000</ele>
        <time>2010-01-01T02:28:57Z</time>
      </trkpt>
      <trkpt lat="48.12232000" lon="8.776430970">
        <ele>976.00000</ele>
        <time>2010-01-01T02:28:57Z</time>
      </trkpt>
      <trkpt lat="48.12223000" lon="8.776270030">
        <ele>976.00000</ele>
        <time>2010-01-01T02:29:11Z</time>
      </trkpt>
      <trkpt lat="48.12222590" lon="8.776270030">
        <ele>976.00000</ele>
        <time>2010-01-01T02:29:12Z</time>
      </trkpt>
      <trkpt lat="48.12215390" lon="8.776169030">
        <ele>977.00000</ele>
        <time>2010-01-01T02:29:22Z</time>
      </trkpt>
      <trkpt lat="48.12213990" lon="8.775274010">
        <ele>979.00000</ele>
        <time>2010-01-01T02:30:21Z</time>
      </trkpt>
      <trkpt lat="48.12205090" lon="8.774642020">
        <ele>981.00000</ele>
        <time>2010-01-01T02:31:04Z</time>
      </trkpt>
      <trkpt lat="48.12183100" lon="8.773747000">
        <ele>981.00000</ele>
        <time>2010-01-01T02:32:08Z</time>
      </trkpt>
      <trkpt lat="48.12183100" lon="8.773734010">
        <ele>981.00000</ele>
        <time>2010-01-01T02:32:09Z</time>
      </trkpt>
      <trkpt lat="48.12178600" lon="8.772777970">
        <ele>981.00000</ele>
        <time>2010-01-01T02:33:13Z</time>
      </trkpt>
      <trkpt lat="48.12153000" lon="8.771452950">
        <ele>979.00000</ele>
        <time>2010-01-01T02:34:45Z</time>
      </trkpt>
      <trkpt lat="48.12153000" lon="8.771446000">
        <ele>979.00000</ele>
        <time>2010-01-01T02:34:46Z</time>
      </trkpt>
      <trkpt lat="48.12139090" lon="8.770577970">
        <ele>981.00000</ele>
        <time>2010-01-01T02:35:45Z</time>
      </trkpt>
      <trkpt lat="48.12137290" lon="8.770321980">
        <ele>981.00000</ele>
        <time>2010-01-01T02:36:03Z</time>
      </trkpt>
      <trkpt lat="48.12135890" lon="8.769824020">
        <ele>981.00000</ele>
        <time>2010-01-01T02:36:36Z</time>
      </trkpt>
      <trkpt lat="48.12120590" lon="8.769145000">
        <ele>985.00000</ele>
        <time>2010-01-01T02:37:24Z</time>
      </trkpt>
      <trkpt lat="48.12107590" lon="8.768890020">
        <ele>987.00000</ele>
        <time>2010-01-01T02:37:45Z</time>
      </trkpt>
      <trkpt lat="48.12106700" lon="8.768843000">
        <ele>987.00000</ele>
        <time>2010-01-01T02:37:48Z</time>
      </trkpt>
      <trkpt lat="48.12104490" lon="8.768667980">
        <ele>988.00000</ele>
        <time>2010-01-01T02:38:00Z</time>
      </trkpt>
      <trkpt lat="48.12104490" lon="8.768661030">
        <ele>988.00000</ele>
        <time>2010-01-01T02:38:01Z</time>
      </trkpt>
      <trkpt lat="48.12104000" lon="8.768539990">
        <ele>988.00000</ele>
        <time>2010-01-01T02:38:09Z</time>
      </trkpt>
      <trkpt lat="48.12104900" lon="8.768513000">
        <ele>988.00000</ele>
        <time>2010-01-01T02:38:11Z</time>
      </trkpt>
      <trkpt lat="48.12109890" lon="8.768276970">
        <ele>987.00000</ele>
        <time>2010-01-01T02:38:27Z</time>
      </trkpt>
      <trkpt lat="48.12109890" lon="8.768271020">
        <ele>987.00000</ele>
        <time>2010-01-01T02:38:28Z</time>
      </trkpt>
      <trkpt lat="48.12109890" lon="8.767987960">
        <ele>988.00000</ele>
        <time>2010-01-01T02:38:47Z</time>
      </trkpt>
      <trkpt lat="48.12109890" lon="8.767974970">
        <ele>988.00000</ele>
        <time>2010-01-01T02:38:48Z</time>
      </trkpt>
      <trkpt lat="48.12096800" lon="8.767564000">
        <ele>992.00000</ele>
        <time>2010-01-01T02:39:18Z</time>
      </trkpt>
      <trkpt lat="48.12096800" lon="8.767556960">
        <ele>992.00000</ele>
        <time>2010-01-01T02:39:19Z</time>
      </trkpt>
      <trkpt lat="48.12093700" lon="8.767376000">
        <ele>993.00000</ele>
        <time>2010-01-01T02:39:31Z</time>
      </trkpt>
      <trkpt lat="48.12087390" lon="8.766884990">
        <ele>996.00000</ele>
        <time>2010-01-01T02:40:04Z</time>
      </trkpt>
      <trkpt lat="48.12095890" lon="8.766150980">
        <ele>991.00000</ele>
        <time>2010-01-01T02:40:54Z</time>
      </trkpt>
      <trkpt lat="48.12090090" lon="8.765795000">
        <ele>991.00000</ele>
        <time>2010-01-01T02:41:19Z</time>
      </trkpt>
      <trkpt lat="48.12089700" lon="8.765781000">
        <ele>991.00000</ele>
        <time>2010-01-01T02:41:20Z</time>
      </trkpt>
      <trkpt lat="48.12078390" lon="8.765526030">
        <ele>987.00000</ele>
        <time>2010-01-01T02:41:40Z</time>
      </trkpt>
      <trkpt lat="48.12078390" lon="8.765518990">
        <ele>987.00000</ele>
        <time>2010-01-01T02:41:41Z</time>
      </trkpt>
      <trkpt lat="48.12060900" lon="8.765316980">
        <ele>985.00000</ele>
        <time>2010-01-01T02:42:03Z</time>
      </trkpt>
      <trkpt lat="48.12005700" lon="8.765075000">
        <ele>989.00000</ele>
        <time>2010-01-01T02:43:00Z</time>
      </trkpt>
      <trkpt lat="48.11957200" lon="8.764784980">
        <ele>991.00000</ele>
        <time>2010-01-01T02:43:53Z</time>
      </trkpt>
      <trkpt lat="48.11921200" lon="8.764658000">
        <ele>995.00000</ele>
        <time>2010-01-01T02:44:30Z</time>
      </trkpt>
      <trkpt lat="48.11921200" lon="8.764650960">
        <ele>995.00000</ele>
        <time>2010-01-01T02:44:30Z</time>
      </trkpt>
      <trkpt lat="48.11891590" lon="8.764522960">
        <ele>996.00000</ele>
        <time>2010-01-01T02:45:01Z</time>
      </trkpt>
      <trkpt lat="48.11879890" lon="8.764449040">
        <ele>996.00000</ele>
        <time>2010-01-01T02:45:14Z</time>
      </trkpt>
      <trkpt lat="48.11828190" lon="8.764059030">
        <ele>993.00000</ele>
        <time>2010-01-01T02:46:11Z</time>
      </trkpt>
      <trkpt lat="48.11783300" lon="8.763587960">
        <ele>989.00000</ele>
        <time>2010-01-01T02:47:06Z</time>
      </trkpt>
      <trkpt lat="48.11754600" lon="8.763353020">
        <ele>994.00000</ele>
        <time>2010-01-01T02:47:39Z</time>
      </trkpt>
      <trkpt lat="48.11737490" lon="8.763143970">
        <ele>992.00000</ele>
        <time>2010-01-01T02:48:01Z</time>
      </trkpt>
      <trkpt lat="48.11725400" lon="8.762909030">
        <ele>989.00000</ele>
        <time>2010-01-01T02:48:21Z</time>
      </trkpt>
      <trkpt lat="48.11714990" lon="8.762720020">
        <ele>988.00000</ele>
        <time>2010-01-01T02:48:37Z</time>
      </trkpt>
      <trkpt lat="48.11696600" lon="8.762492030">
        <ele>990.00000</ele>
        <time>2010-01-01T02:49:01Z</time>
      </trkpt>
      <trkpt lat="48.11696190" lon="8.762470990">
        <ele>990.00000</ele>
        <time>2010-01-01T02:49:03Z</time>
      </trkpt>
      <trkpt lat="48.11676800" lon="8.762290030">
        <ele>991.00000</ele>
        <time>2010-01-01T02:49:26Z</time>
      </trkpt>
      <trkpt lat="48.11654800" lon="8.762014010">
        <ele>990.00000</ele>
        <time>2010-01-01T02:49:54Z</time>
      </trkpt>
      <trkpt lat="48.11654390" lon="8.762014010">
        <ele>991.00000</ele>
        <time>2010-01-01T02:49:55Z</time>
      </trkpt>
      <trkpt lat="48.11629200" lon="8.761725000">
        <ele>990.00000</ele>
        <time>2010-01-01T02:50:26Z</time>
      </trkpt>
      <trkpt lat="48.11609000" lon="8.761515960">
        <ele>989.00000</ele>
        <time>2010-01-01T02:50:51Z</time>
      </trkpt>
      <trkpt lat="48.11608090" lon="8.761509000">
        <ele>989.00000</ele>
        <time>2010-01-01T02:50:52Z</time>
      </trkpt>
      <trkpt lat="48.11577600" lon="8.761286960">
        <ele>988.00000</ele>
        <time>2010-01-01T02:51:26Z</time>
      </trkpt>
      <trkpt lat="48.11555090" lon="8.761065010">
        <ele>983.00000</ele>
        <time>2010-01-01T02:51:53Z</time>
      </trkpt>
      <trkpt lat="48.11534500" lon="8.760930980">
        <ele>982.00000</ele>
        <time>2010-01-01T02:52:15Z</time>
      </trkpt>
      <trkpt lat="48.11505300" lon="8.760815980">
        <ele>981.00000</ele>
        <time>2010-01-01T02:52:46Z</time>
      </trkpt>
      <trkpt lat="48.11389590" lon="8.760329000">
        <ele>971.00000</ele>
        <time>2010-01-01T02:54:46Z</time>
      </trkpt>
      <trkpt lat="48.11372490" lon="8.760166970">
        <ele>969.00000</ele>
        <time>2010-01-01T02:55:06Z</time>
      </trkpt>
      <trkpt lat="48.11330690" lon="8.759844020">
        <ele>963.00000</ele>
        <time>2010-01-01T02:55:53Z</time>
      </trkpt>
      <trkpt lat="48.11330300" lon="8.759844020">
        <ele>963.00000</ele>
        <time>2010-01-01T02:55:54Z</time>
      </trkpt>
      <trkpt lat="48.11278600" lon="8.759441020">
        <ele>956.00000</ele>
        <time>2010-01-01T02:56:52Z</time>
      </trkpt>
      <trkpt lat="48.11262200" lon="8.759283020">
        <ele>956.00000</ele>
        <time>2010-01-01T02:57:11Z</time>
      </trkpt>
      <trkpt lat="48.11243390" lon="8.759073970">
        <ele>955.00000</ele>
        <time>2010-01-01T02:57:35Z</time>
      </trkpt>
      <trkpt lat="48.11242890" lon="8.759068020">
        <ele>955.00000</ele>
        <time>2010-01-01T02:57:36Z</time>
      </trkpt>
      <trkpt lat="48.11221790" lon="8.758879010">
        <ele>953.00000</ele>
        <time>2010-01-01T02:58:00Z</time>
      </trkpt>
      <trkpt lat="48.11220900" lon="8.758871970">
        <ele>953.00000</ele>
        <time>2010-01-01T02:58:01Z</time>
      </trkpt>
      <trkpt lat="48.11199300" lon="8.758643980">
        <ele>952.00000</ele>
        <time>2010-01-01T02:58:28Z</time>
      </trkpt>
      <trkpt lat="48.11198900" lon="8.758643980">
        <ele>952.00000</ele>
        <time>2010-01-01T02:58:28Z</time>
      </trkpt>
      <trkpt lat="48.11173300" lon="8.758402000">
        <ele>953.00000</ele>
        <time>2010-01-01T02:58:58Z</time>
      </trkpt>
      <trkpt lat="48.11157090" lon="8.758408030">
        <ele>954.00000</ele>
        <time>2010-01-01T02:59:14Z</time>
      </trkpt>
      <trkpt lat="48.11114500" lon="8.758367970">
        <ele>953.00000</ele>
        <time>2010-01-01T02:59:57Z</time>
      </trkpt>
      <trkpt lat="48.11080290" lon="8.758313990">
        <ele>953.00000</ele>
        <time>2010-01-01T03:00:32Z</time>
      </trkpt>
      <trkpt lat="48.11079900" lon="8.758321030">
        <ele>953.00000</ele>
        <time>2010-01-01T03:00:32Z</time>
      </trkpt>
      <trkpt lat="48.11052500" lon="8.758226980">
        <ele>952.00000</ele>
        <time>2010-01-01T03:01:00Z</time>
      </trkpt>
      <trkpt lat="48.11052500" lon="8.758233020">
        <ele>953.00000</ele>
        <time>2010-01-01T03:01:01Z</time>
      </trkpt>
      <trkpt lat="48.10983990" lon="8.757893970">
        <ele>953.00000</ele>
        <time>2010-01-01T03:02:13Z</time>
      </trkpt>
      <trkpt lat="48.10933200" lon="8.757598000">
        <ele>955.00000</ele>
        <time>2010-01-01T03:03:08Z</time>
      </trkpt>
      <trkpt lat="48.10885090" lon="8.757321990">
        <ele>956.00000</ele>
        <time>2010-01-01T03:03:59Z</time>
      </trkpt>
      <trkpt lat="48.10866700" lon="8.757215030">
        <ele>956.00000</ele>
        <time>2010-01-01T03:04:19Z</time>
      </trkpt>
      <trkpt lat="48.10855890" lon="8.757114030">
        <ele>957.00000</ele>
        <time>2010-01-01T03:04:32Z</time>
      </trkpt>
      <trkpt lat="48.10854100" lon="8.757106990">
        <ele>957.00000</ele>
        <time>2010-01-01T03:04:33Z</time>
      </trkpt>
      <trkpt lat="48.10830800" lon="8.756764000">
        <ele>959.00000</ele>
        <time>2010-01-01T03:05:06Z</time>
      </trkpt>
      <trkpt lat="48.10818590" lon="8.756596030">
        <ele>959.00000</ele>
        <time>2010-01-01T03:05:23Z</time>
      </trkpt>
      <trkpt lat="48.10802000" lon="8.756353960">
        <ele>957.00000</ele>
        <time>2010-01-01T03:05:46Z</time>
      </trkpt>
      <trkpt lat="48.10801100" lon="8.756334010">
        <ele>957.00000</ele>
        <time>2010-01-01T03:05:48Z</time>
      </trkpt>
      <trkpt lat="48.10781390" lon="8.756004020">
        <ele>957.00000</ele>
        <time>2010-01-01T03:06:17Z</time>
      </trkpt>
      <trkpt lat="48.10780500" lon="8.755983980">
        <ele>958.00000</ele>
        <time>2010-01-01T03:06:19Z</time>
      </trkpt>
      <trkpt lat="48.10764800" lon="8.755748960">
        <ele>959.00000</ele>
        <time>2010-01-01T03:06:41Z</time>
      </trkpt>
      <trkpt lat="48.10752200" lon="8.755513010">
        <ele>957.00000</ele>
        <time>2010-01-01T03:07:01Z</time>
      </trkpt>
      <trkpt lat="48.10752200" lon="8.755519960">
        <ele>957.00000</ele>
        <time>2010-01-01T03:07:02Z</time>
      </trkpt>
      <trkpt lat="48.10725700" lon="8.755311000">
        <ele>959.00000</ele>
        <time>2010-01-01T03:07:32Z</time>
      </trkpt>
      <trkpt lat="48.10679390" lon="8.755110000">
        <ele>970.00000</ele>
        <time>2010-01-01T03:08:20Z</time>
      </trkpt>
      <trkpt lat="48.10679390" lon="8.755115950">
        <ele>970.00000</ele>
        <time>2010-01-01T03:08:20Z</time>
      </trkpt>
      <trkpt lat="48.10626390" lon="8.755035990">
        <ele>973.00000</ele>
        <time>2010-01-01T03:09:13Z</time>
      </trkpt>
      <trkpt lat="48.10573800" lon="8.755432960">
        <ele>972.00000</ele>
        <time>2010-01-01T03:10:12Z</time>
      </trkpt>
      <trkpt lat="48.10564900" lon="8.755325000">
        <ele>971.00000</ele>
        <time>2010-01-01T03:10:24Z</time>
      </trkpt>
      <trkpt lat="48.10551800" lon="8.755163980">
        <ele>971.00000</ele>
        <time>2010-01-01T03:10:41Z</time>
      </trkpt>
      <trkpt lat="48.10551390" lon="8.755163980">
        <ele>971.00000</ele>
        <time>2010-01-01T03:10:41Z</time>
      </trkpt>
      <trkpt lat="48.10501500" lon="8.755157030">
        <ele>969.00000</ele>
        <time>2010-01-01T03:11:31Z</time>
      </trkpt>
      <trkpt lat="48.10497500" lon="8.755157030">
        <ele>969.00000</ele>
        <time>2010-01-01T03:11:35Z</time>
      </trkpt>
      <trkpt lat="48.10449900" lon="8.755130040">
        <ele>966.00000</ele>
        <time>2010-01-01T03:12:23Z</time>
      </trkpt>
      <trkpt lat="48.10426900" lon="8.755157030">
        <ele>965.00000</ele>
        <time>2010-01-01T03:12:46Z</time>
      </trkpt>
      <trkpt lat="48.10378000" lon="8.755372020">
        <ele>969.00000</ele>
        <time>2010-01-01T03:13:37Z</time>
      </trkpt>
      <trkpt lat="48.10378000" lon="8.755378980">
        <ele>969.00000</ele>
        <time>2010-01-01T03:13:37Z</time>
      </trkpt>
      <trkpt lat="48.10346500" lon="8.755540000">
        <ele>972.00000</ele>
        <time>2010-01-01T03:14:11Z</time>
      </trkpt>
      <trkpt lat="48.10346100" lon="8.755547040">
        <ele>972.00000</ele>
        <time>2010-01-01T03:14:11Z</time>
      </trkpt>
      <trkpt lat="48.10314700" lon="8.755734960">
        <ele>974.00000</ele>
        <time>2010-01-01T03:14:45Z</time>
      </trkpt>
      <trkpt lat="48.10297600" lon="8.755843000">
        <ele>975.00000</ele>
        <time>2010-01-01T03:15:04Z</time>
      </trkpt>
      <trkpt lat="48.10297090" lon="8.755835960">
        <ele>975.00000</ele>
        <time>2010-01-01T03:15:04Z</time>
      </trkpt>
      <trkpt lat="48.10280100" lon="8.755909970">
        <ele>976.00000</ele>
        <time>2010-01-01T03:15:22Z</time>
      </trkpt>
      <trkpt lat="48.10279590" lon="8.755909970">
        <ele>976.00000</ele>
        <time>2010-01-01T03:15:23Z</time>
      </trkpt>
      <trkpt lat="48.10255390" lon="8.755997980">
        <ele>979.00000</ele>
        <time>2010-01-01T03:15:48Z</time>
      </trkpt>
      <trkpt lat="48.10218700" lon="8.756054980">
        <ele>981.00000</ele>
        <time>2010-01-01T03:16:25Z</time>
      </trkpt>
      <trkpt lat="48.10218300" lon="8.756054980">
        <ele>981.00000</ele>
        <time>2010-01-01T03:16:25Z</time>
      </trkpt>
      <trkpt lat="48.10192200" lon="8.756108960">
        <ele>982.00000</ele>
        <time>2010-01-01T03:16:51Z</time>
      </trkpt>
      <trkpt lat="48.10191790" lon="8.756108960">
        <ele>982.00000</ele>
        <time>2010-01-01T03:16:52Z</time>
      </trkpt>
      <trkpt lat="48.10156800" lon="8.756128990">
        <ele>984.00000</ele>
        <time>2010-01-01T03:17:27Z</time>
      </trkpt>
      <trkpt lat="48.10107800" lon="8.756378020">
        <ele>985.00000</ele>
        <time>2010-01-01T03:18:19Z</time>
      </trkpt>
      <trkpt lat="48.10070100" lon="8.756593010">
        <ele>986.00000</ele>
        <time>2010-01-01T03:18:59Z</time>
      </trkpt>
      <trkpt lat="48.10043490" lon="8.756727960">
        <ele>987.00000</ele>
        <time>2010-01-01T03:19:27Z</time>
      </trkpt>
      <trkpt lat="48.09986900" lon="8.756883030">
        <ele>987.00000</ele>
        <time>2010-01-01T03:20:25Z</time>
      </trkpt>
      <trkpt lat="48.09966700" lon="8.756942960">
        <ele>986.00000</ele>
        <time>2010-01-01T03:20:45Z</time>
      </trkpt>
      <trkpt lat="48.09966290" lon="8.756942960">
        <ele>986.00000</ele>
        <time>2010-01-01T03:20:46Z</time>
      </trkpt>
      <trkpt lat="48.09900300" lon="8.757239010">
        <ele>985.00000</ele>
        <time>2010-01-01T03:21:55Z</time>
      </trkpt>
      <trkpt lat="48.09899790" lon="8.757239010">
        <ele>985.00000</ele>
        <time>2010-01-01T03:21:55Z</time>
      </trkpt>
      <trkpt lat="48.09859790" lon="8.757393990">
        <ele>983.00000</ele>
        <time>2010-01-01T03:22:36Z</time>
      </trkpt>
      <trkpt lat="48.09839190" lon="8.757406980">
        <ele>981.00000</ele>
        <time>2010-01-01T03:22:57Z</time>
      </trkpt>
      <trkpt lat="48.09839190" lon="8.757414020">
        <ele>981.00000</ele>
        <time>2010-01-01T03:22:58Z</time>
      </trkpt>
      <trkpt lat="48.09814200" lon="8.757525000">
        <ele>978.00000</ele>
        <time>2010-01-01T03:23:24Z</time>
      </trkpt>
      <trkpt lat="48.09813290" lon="8.757531950">
        <ele>978.00000</ele>
        <time>2010-01-01T03:23:25Z</time>
      </trkpt>
      <trkpt lat="48.09776490" lon="8.757779980">
        <ele>974.00000</ele>
        <time>2010-01-01T03:24:05Z</time>
      </trkpt>
      <trkpt lat="48.09737390" lon="8.758177030">
        <ele>974.00000</ele>
        <time>2010-01-01T03:24:52Z</time>
      </trkpt>
      <trkpt lat="48.09705100" lon="8.758499980">
        <ele>969.00000</ele>
        <time>2010-01-01T03:25:31Z</time>
      </trkpt>
      <trkpt lat="48.09704590" lon="8.758507020">
        <ele>969.00000</ele>
        <time>2010-01-01T03:25:32Z</time>
      </trkpt>
      <trkpt lat="48.09666890" lon="8.758956960">
        <ele>967.00000</ele>
        <time>2010-01-01T03:26:20Z</time>
      </trkpt>
      <trkpt lat="48.09638600" lon="8.759286960">
        <ele>967.00000</ele>
        <time>2010-01-01T03:26:56Z</time>
      </trkpt>
      <trkpt lat="48.09622190" lon="8.759390980">
        <ele>965.00000</ele>
        <time>2010-01-01T03:27:14Z</time>
      </trkpt>
      <trkpt lat="48.09622590" lon="8.759390980">
        <ele>965.00000</ele>
        <time>2010-01-01T03:27:14Z</time>
      </trkpt>
      <trkpt lat="48.09588890" lon="8.759553000">
        <ele>961.00000</ele>
        <time>2010-01-01T03:27:50Z</time>
      </trkpt>
      <trkpt lat="48.09560590" lon="8.759613010">
        <ele>958.00000</ele>
        <time>2010-01-01T03:28:18Z</time>
      </trkpt>
      <trkpt lat="48.09560190" lon="8.759613010">
        <ele>958.00000</ele>
        <time>2010-01-01T03:28:19Z</time>
      </trkpt>
      <trkpt lat="48.09524690" lon="8.759586020">
        <ele>954.00000</ele>
        <time>2010-01-01T03:28:54Z</time>
      </trkpt>
      <trkpt lat="48.09491000" lon="8.759559030">
        <ele>952.00000</ele>
        <time>2010-01-01T03:29:28Z</time>
      </trkpt>
      <trkpt lat="48.09470800" lon="8.759553000">
        <ele>953.00000</ele>
        <time>2010-01-01T03:29:48Z</time>
      </trkpt>
      <trkpt lat="48.09438490" lon="8.759452000">
        <ele>955.00000</ele>
        <time>2010-01-01T03:30:21Z</time>
      </trkpt>
      <trkpt lat="48.09436690" lon="8.759452000">
        <ele>955.00000</ele>
        <time>2010-01-01T03:30:23Z</time>
      </trkpt>
      <trkpt lat="48.09407890" lon="8.759438000">
        <ele>958.00000</ele>
        <time>2010-01-01T03:30:52Z</time>
      </trkpt>
      <trkpt lat="48.09389090" lon="8.759384020">
        <ele>960.00000</ele>
        <time>2010-01-01T03:31:11Z</time>
      </trkpt>
      <trkpt lat="48.09388190" lon="8.759384020">
        <ele>960.00000</ele>
        <time>2010-01-01T03:31:12Z</time>
      </trkpt>
      <trkpt lat="48.09379190" lon="8.759330960">
        <ele>961.00000</ele>
        <time>2010-01-01T03:31:22Z</time>
      </trkpt>
      <trkpt lat="48.09346090" lon="8.759333980">
        <ele>966.00000</ele>
        <time>2010-01-01T03:31:55Z</time>
      </trkpt>
      <trkpt lat="48.09327690" lon="8.759354010">
        <ele>969.00000</ele>
        <time>2010-01-01T03:32:13Z</time>
      </trkpt>
      <trkpt lat="48.09314290" lon="8.759717030">
        <ele>976.00000</ele>
        <time>2010-01-01T03:32:41Z</time>
      </trkpt>
      <trkpt lat="48.09314290" lon="8.759723990">
        <ele>976.00000</ele>
        <time>2010-01-01T03:32:41Z</time>
      </trkpt>
      <trkpt lat="48.09305690" lon="8.759986010">
        <ele>980.00000</ele>
        <time>2010-01-01T03:33:01Z</time>
      </trkpt>
      <trkpt lat="48.09305690" lon="8.759992970">
        <ele>980.00000</ele>
        <time>2010-01-01T03:33:01Z</time>
      </trkpt>
      <trkpt lat="48.09298490" lon="8.760316000">
        <ele>982.00000</ele>
        <time>2010-01-01T03:33:24Z</time>
      </trkpt>
      <trkpt lat="48.09289100" lon="8.759845020">
        <ele>983.00000</ele>
        <time>2010-01-01T03:33:57Z</time>
      </trkpt>
      <trkpt lat="48.09276990" lon="8.759205990">
        <ele>981.00000</ele>
        <time>2010-01-01T03:34:41Z</time>
      </trkpt>
      <trkpt lat="48.09265690" lon="8.758916980">
        <ele>975.00000</ele>
        <time>2010-01-01T03:35:04Z</time>
      </trkpt>
      <trkpt lat="48.09233890" lon="8.758581030">
        <ele>971.00000</ele>
        <time>2010-01-01T03:35:43Z</time>
      </trkpt>
      <trkpt lat="48.09176590" lon="8.758362010">
        <ele>981.00000</ele>
        <time>2010-01-01T03:36:42Z</time>
      </trkpt>
      <trkpt lat="48.09154100" lon="8.758254980">
        <ele>980.00000</ele>
        <time>2010-01-01T03:37:06Z</time>
      </trkpt>
      <trkpt lat="48.09152800" lon="8.758254980">
        <ele>980.00000</ele>
        <time>2010-01-01T03:37:07Z</time>
      </trkpt>
      <trkpt lat="48.09140590" lon="8.758235030">
        <ele>980.00000</ele>
        <time>2010-01-01T03:37:19Z</time>
      </trkpt>
      <trkpt lat="48.09140590" lon="8.758227990">
        <ele>980.00000</ele>
        <time>2010-01-01T03:37:20Z</time>
      </trkpt>
      <trkpt lat="48.09120390" lon="8.758140980">
        <ele>977.00000</ele>
        <time>2010-01-01T03:37:41Z</time>
      </trkpt>
      <trkpt lat="48.09119500" lon="8.758140980">
        <ele>978.00000</ele>
        <time>2010-01-01T03:37:41Z</time>
      </trkpt>
      <trkpt lat="48.09097090" lon="8.758060010">
        <ele>976.00000</ele>
        <time>2010-01-01T03:38:05Z</time>
      </trkpt>
      <trkpt lat="48.09096600" lon="8.758060010">
        <ele>976.00000</ele>
        <time>2010-01-01T03:38:05Z</time>
      </trkpt>
      <trkpt lat="48.09052990" lon="8.758046020">
        <ele>980.00000</ele>
        <time>2010-01-01T03:38:49Z</time>
      </trkpt>
      <trkpt lat="48.09051190" lon="8.758046020">
        <ele>980.00000</ele>
        <time>2010-01-01T03:38:51Z</time>
      </trkpt>
      <trkpt lat="48.09025190" lon="8.758039980">
        <ele>983.00000</ele>
        <time>2010-01-01T03:39:17Z</time>
      </trkpt>
      <trkpt lat="48.09009490" lon="8.757986000">
        <ele>983.00000</ele>
        <time>2010-01-01T03:39:33Z</time>
      </trkpt>
      <trkpt lat="48.09008600" lon="8.757992960">
        <ele>983.00000</ele>
        <time>2010-01-01T03:39:34Z</time>
      </trkpt>
      <trkpt lat="48.08998700" lon="8.757938980">
        <ele>982.00000</ele>
        <time>2010-01-01T03:39:44Z</time>
      </trkpt>
      <trkpt lat="48.08977790" lon="8.757875030">
        <ele>980.00000</ele>
        <time>2010-01-01T03:40:06Z</time>
      </trkpt>
      <trkpt lat="48.08959390" lon="8.757915010">
        <ele>980.00000</ele>
        <time>2010-01-01T03:40:24Z</time>
      </trkpt>
      <trkpt lat="48.08927890" lon="8.758030010">
        <ele>981.00000</ele>
        <time>2010-01-01T03:40:57Z</time>
      </trkpt>
      <trkpt lat="48.08907690" lon="8.758090020">
        <ele>981.00000</ele>
        <time>2010-01-01T03:41:17Z</time>
      </trkpt>
      <trkpt lat="48.08906800" lon="8.758090020">
        <ele>981.00000</ele>
        <time>2010-01-01T03:41:18Z</time>
      </trkpt>
      <trkpt lat="48.08884390" lon="8.758144000">
        <ele>979.00000</ele>
        <time>2010-01-01T03:41:41Z</time>
      </trkpt>
      <trkpt lat="48.08869100" lon="8.758144000">
        <ele>977.00000</ele>
        <time>2010-01-01T03:41:56Z</time>
      </trkpt>
      <trkpt lat="48.08851590" lon="8.758043000">
        <ele>972.00000</ele>
        <time>2010-01-01T03:42:15Z</time>
      </trkpt>
      <trkpt lat="48.08833200" lon="8.758030010">
        <ele>969.00000</ele>
        <time>2010-01-01T03:42:33Z</time>
      </trkpt>
      <trkpt lat="48.08832690" lon="8.758030010">
        <ele>969.00000</ele>
        <time>2010-01-01T03:42:34Z</time>
      </trkpt>
      <trkpt lat="48.08817400" lon="8.758077030">
        <ele>969.00000</ele>
        <time>2010-01-01T03:42:49Z</time>
      </trkpt>
      <trkpt lat="48.08802190" lon="8.758164030">
        <ele>970.00000</ele>
        <time>2010-01-01T03:43:06Z</time>
      </trkpt>
      <trkpt lat="48.08790500" lon="8.758332010">
        <ele>972.00000</ele>
        <time>2010-01-01T03:43:22Z</time>
      </trkpt>
      <trkpt lat="48.08790000" lon="8.758338960">
        <ele>972.00000</ele>
        <time>2010-01-01T03:43:23Z</time>
      </trkpt>
      <trkpt lat="48.08778390" lon="8.758507020">
        <ele>973.00000</ele>
        <time>2010-01-01T03:43:39Z</time>
      </trkpt>
      <trkpt lat="48.08778390" lon="8.758513980">
        <ele>973.00000</ele>
        <time>2010-01-01T03:43:39Z</time>
      </trkpt>
      <trkpt lat="48.08770690" lon="8.758688990">
        <ele>974.00000</ele>
        <time>2010-01-01T03:43:53Z</time>
      </trkpt>
      <trkpt lat="48.08769900" lon="8.758700980">
        <ele>974.00000</ele>
        <time>2010-01-01T03:43:54Z</time>
      </trkpt>
      <trkpt lat="48.08793300" lon="8.758983030">
        <ele>978.00000</ele>
        <time>2010-01-01T03:44:24Z</time>
      </trkpt>
      <trkpt lat="48.08865990" lon="8.759884000">
        <ele>989.00000</ele>
        <time>2010-01-01T03:45:59Z</time>
      </trkpt>
      <trkpt lat="48.08934300" lon="8.760825960">
        <ele>989.00000</ele>
        <time>2010-01-01T03:47:32Z</time>
      </trkpt>
      <trkpt lat="48.09036690" lon="8.761915020">
        <ele>990.00000</ele>
        <time>2010-01-01T03:49:38Z</time>
      </trkpt>
      <trkpt lat="48.09036690" lon="8.761928010">
        <ele>990.00000</ele>
        <time>2010-01-01T03:49:38Z</time>
      </trkpt>
      <trkpt lat="48.09052890" lon="8.762048960">
        <ele>990.00000</ele>
        <time>2010-01-01T03:49:57Z</time>
      </trkpt>
      <trkpt lat="48.09116700" lon="8.762842980">
        <ele>985.00000</ele>
        <time>2010-01-01T03:51:20Z</time>
      </trkpt>
      <trkpt lat="48.09147200" lon="8.763206000">
        <ele>980.00000</ele>
        <time>2010-01-01T03:51:59Z</time>
      </trkpt>
      <trkpt lat="48.09147200" lon="8.763220000">
        <ele>980.00000</ele>
        <time>2010-01-01T03:52:00Z</time>
      </trkpt>
      <trkpt lat="48.09243300" lon="8.764578030">
        <ele>969.00000</ele>
        <time>2010-01-01T03:54:12Z</time>
      </trkpt>
      <trkpt lat="48.09387890" lon="8.766447030">
        <ele>947.00000</ele>
        <time>2010-01-01T03:57:23Z</time>
      </trkpt>
      <trkpt lat="48.09465690" lon="8.767274990">
        <ele>941.00000</ele>
        <time>2010-01-01T03:58:58Z</time>
      </trkpt>
      <trkpt lat="48.09466600" lon="8.767274990">
        <ele>941.00000</ele>
        <time>2010-01-01T03:58:59Z</time>
      </trkpt>
      <trkpt lat="48.09505200" lon="8.767813030">
        <ele>944.00000</ele>
        <time>2010-01-01T03:59:52Z</time>
      </trkpt>
      <trkpt lat="48.09505200" lon="8.767827030">
        <ele>944.00000</ele>
        <time>2010-01-01T03:59:53Z</time>
      </trkpt>
      <trkpt lat="48.09533090" lon="8.768297000">
        <ele>947.00000</ele>
        <time>2010-01-01T04:00:35Z</time>
      </trkpt>
      <trkpt lat="48.09533090" lon="8.768311000">
        <ele>947.00000</ele>
        <time>2010-01-01T04:00:36Z</time>
      </trkpt>
      <trkpt lat="48.09568990" lon="8.768955990">
        <ele>951.00000</ele>
        <time>2010-01-01T04:01:32Z</time>
      </trkpt>
      <trkpt lat="48.09569900" lon="8.768955990">
        <ele>951.00000</ele>
        <time>2010-01-01T04:01:33Z</time>
      </trkpt>
      <trkpt lat="48.09592390" lon="8.769521010">
        <ele>954.00000</ele>
        <time>2010-01-01T04:02:17Z</time>
      </trkpt>
      <trkpt lat="48.09665090" lon="8.770865970">
        <ele>959.00000</ele>
        <time>2010-01-01T04:04:13Z</time>
      </trkpt>
      <trkpt lat="48.09665090" lon="8.770892960">
        <ele>960.00000</ele>
        <time>2010-01-01T04:04:14Z</time>
      </trkpt>
      <trkpt lat="48.09692990" lon="8.771404000">
        <ele>961.00000</ele>
        <time>2010-01-01T04:04:59Z</time>
      </trkpt>
      <trkpt lat="48.09693890" lon="8.771404000">
        <ele>961.00000</ele>
        <time>2010-01-01T04:05:00Z</time>
      </trkpt>
      <trkpt lat="48.09708290" lon="8.772400030">
        <ele>960.00000</ele>
        <time>2010-01-01T04:06:08Z</time>
      </trkpt>
      <trkpt lat="48.09738790" lon="8.773893010">
        <ele>956.00000</ele>
        <time>2010-01-01T04:07:52Z</time>
      </trkpt>
      <trkpt lat="48.09767190" lon="8.775863010">
        <ele>957.00000</ele>
        <time>2010-01-01T04:10:07Z</time>
      </trkpt>
      <trkpt lat="48.09768100" lon="8.776253020">
        <ele>957.00000</ele>
        <time>2010-01-01T04:10:33Z</time>
      </trkpt>
      <trkpt lat="48.09813890" lon="8.778741020">
        <ele>953.00000</ele>
        <time>2010-01-01T04:13:25Z</time>
      </trkpt>
      <trkpt lat="48.09814790" lon="8.778755020">
        <ele>953.00000</ele>
        <time>2010-01-01T04:13:27Z</time>
      </trkpt>
      <trkpt lat="48.09844400" lon="8.780502980">
        <ele>953.00000</ele>
        <time>2010-01-01T04:15:27Z</time>
      </trkpt>
      <trkpt lat="48.09854300" lon="8.781605950">
        <ele>954.00000</ele>
        <time>2010-01-01T04:16:41Z</time>
      </trkpt>
      <trkpt lat="48.09854300" lon="8.781620040">
        <ele>954.00000</ele>
        <time>2010-01-01T04:16:42Z</time>
      </trkpt>
      <trkpt lat="48.09847100" lon="8.783328020">
        <ele>957.00000</ele>
        <time>2010-01-01T04:18:37Z</time>
      </trkpt>
      <trkpt lat="48.09847100" lon="8.783355010">
        <ele>958.00000</ele>
        <time>2010-01-01T04:18:39Z</time>
      </trkpt>
      <trkpt lat="48.09842590" lon="8.784927950">
        <ele>962.00000</ele>
        <time>2010-01-01T04:20:24Z</time>
      </trkpt>
      <trkpt lat="48.09840000" lon="8.785816020">
        <ele>963.00000</ele>
        <time>2010-01-01T04:21:23Z</time>
      </trkpt>
      <trkpt lat="48.09845390" lon="8.786339970">
        <ele>964.00000</ele>
        <time>2010-01-01T04:21:59Z</time>
      </trkpt>
      <trkpt lat="48.09879490" lon="8.787402960">
        <ele>965.00000</ele>
        <time>2010-01-01T04:23:17Z</time>
      </trkpt>
      <trkpt lat="48.09931590" lon="8.788882030">
        <ele>961.00000</ele>
        <time>2010-01-01T04:25:09Z</time>
      </trkpt>
      <trkpt lat="48.09947800" lon="8.789528030">
        <ele>960.00000</ele>
        <time>2010-01-01T04:25:55Z</time>
      </trkpt>
      <trkpt lat="48.09947800" lon="8.789542020">
        <ele>960.00000</ele>
        <time>2010-01-01T04:25:56Z</time>
      </trkpt>
      <trkpt lat="48.09962990" lon="8.790335040">
        <ele>957.00000</ele>
        <time>2010-01-01T04:26:51Z</time>
      </trkpt>
      <trkpt lat="48.09979300" lon="8.790833000">
        <ele>955.00000</ele>
        <time>2010-01-01T04:27:28Z</time>
      </trkpt>
      <trkpt lat="48.10014300" lon="8.791302980">
        <ele>955.00000</ele>
        <time>2010-01-01T04:28:16Z</time>
      </trkpt>
      <trkpt lat="48.10043890" lon="8.791842020">
        <ele>951.00000</ele>
        <time>2010-01-01T04:29:02Z</time>
      </trkpt>
      <trkpt lat="48.10056490" lon="8.792325990">
        <ele>949.00000</ele>
        <time>2010-01-01T04:29:37Z</time>
      </trkpt>
      <trkpt lat="48.10061900" lon="8.792837030">
        <ele>948.00000</ele>
        <time>2010-01-01T04:30:11Z</time>
      </trkpt>
      <trkpt lat="48.10061900" lon="8.792850030">
        <ele>948.00000</ele>
        <time>2010-01-01T04:30:12Z</time>
      </trkpt>
      <trkpt lat="48.10058290" lon="8.793469030">
        <ele>948.00000</ele>
        <time>2010-01-01T04:30:54Z</time>
      </trkpt>
      <trkpt lat="48.10058290" lon="8.793509010">
        <ele>948.00000</ele>
        <time>2010-01-01T04:30:57Z</time>
      </trkpt>
      <trkpt lat="48.10043890" lon="8.794343010">
        <ele>947.00000</ele>
        <time>2010-01-01T04:31:54Z</time>
      </trkpt>
      <trkpt lat="48.10037690" lon="8.795003000">
        <ele>949.00000</ele>
        <time>2010-01-01T04:32:39Z</time>
      </trkpt>
      <trkpt lat="48.10037690" lon="8.795015990">
        <ele>949.00000</ele>
        <time>2010-01-01T04:32:40Z</time>
      </trkpt>
      <trkpt lat="48.10037690" lon="8.795406000">
        <ele>950.00000</ele>
        <time>2010-01-01T04:33:06Z</time>
      </trkpt>
      <trkpt lat="48.10035900" lon="8.798620970">
        <ele>953.00000</ele>
        <time>2010-01-01T04:36:40Z</time>
      </trkpt>
      <trkpt lat="48.10032290" lon="8.798863040">
        <ele>952.00000</ele>
        <time>2010-01-01T04:36:57Z</time>
      </trkpt>
      <trkpt lat="48.10019700" lon="8.799078030">
        <ele>950.00000</ele>
        <time>2010-01-01T04:37:16Z</time>
      </trkpt>
      <trkpt lat="48.09987290" lon="8.799092030">
        <ele>950.00000</ele>
        <time>2010-01-01T04:37:49Z</time>
      </trkpt>
      <trkpt lat="48.09951390" lon="8.799105020">
        <ele>956.00000</ele>
        <time>2010-01-01T04:38:25Z</time>
      </trkpt>
      <trkpt lat="48.09932590" lon="8.799212980">
        <ele>958.00000</ele>
        <time>2010-01-01T04:38:45Z</time>
      </trkpt>
      <trkpt lat="48.09930800" lon="8.799239970">
        <ele>958.00000</ele>
        <time>2010-01-01T04:38:47Z</time>
      </trkpt>
      <trkpt lat="48.09909200" lon="8.799562000">
        <ele>960.00000</ele>
        <time>2010-01-01T04:39:18Z</time>
      </trkpt>
      <trkpt lat="48.09881390" lon="8.800370020">
        <ele>958.00000</ele>
        <time>2010-01-01T04:40:18Z</time>
      </trkpt>
      <trkpt lat="48.09862490" lon="8.800718960">
        <ele>957.00000</ele>
        <time>2010-01-01T04:40:48Z</time>
      </trkpt>
      <trkpt lat="48.09862490" lon="8.800732950">
        <ele>957.00000</ele>
        <time>2010-01-01T04:40:49Z</time>
      </trkpt>
      <trkpt lat="48.09825700" lon="8.801135960">
        <ele>956.00000</ele>
        <time>2010-01-01T04:41:35Z</time>
      </trkpt>
      <trkpt lat="48.09801400" lon="8.801365030">
        <ele>956.00000</ele>
        <time>2010-01-01T04:42:04Z</time>
      </trkpt>
      <trkpt lat="48.09800490" lon="8.801392020">
        <ele>956.00000</ele>
        <time>2010-01-01T04:42:06Z</time>
      </trkpt>
      <trkpt lat="48.09788890" lon="8.801621020">
        <ele>954.00000</ele>
        <time>2010-01-01T04:42:25Z</time>
      </trkpt>
      <trkpt lat="48.09788890" lon="8.801634010">
        <ele>954.00000</ele>
        <time>2010-01-01T04:42:26Z</time>
      </trkpt>
      <trkpt lat="48.09777200" lon="8.801942970">
        <ele>952.00000</ele>
        <time>2010-01-01T04:42:50Z</time>
      </trkpt>
      <trkpt lat="48.09761890" lon="8.802803950">
        <ele>946.00000</ele>
        <time>2010-01-01T04:43:49Z</time>
      </trkpt>
      <trkpt lat="48.09761890" lon="8.802818040">
        <ele>946.00000</ele>
        <time>2010-01-01T04:43:50Z</time>
      </trkpt>
      <trkpt lat="48.09740290" lon="8.803921010">
        <ele>945.00000</ele>
        <time>2010-01-01T04:45:07Z</time>
      </trkpt>
      <trkpt lat="48.09745690" lon="8.804471950">
        <ele>945.00000</ele>
        <time>2010-01-01T04:45:44Z</time>
      </trkpt>
      <trkpt lat="48.09744790" lon="8.804834970">
        <ele>944.00000</ele>
        <time>2010-01-01T04:46:08Z</time>
      </trkpt>
      <trkpt lat="48.09744790" lon="8.804861960">
        <ele>944.00000</ele>
        <time>2010-01-01T04:46:10Z</time>
      </trkpt>
      <trkpt lat="48.09736800" lon="8.805145020">
        <ele>944.00000</ele>
        <time>2010-01-01T04:46:31Z</time>
      </trkpt>
      <trkpt lat="48.09735890" lon="8.805158010">
        <ele>944.00000</ele>
        <time>2010-01-01T04:46:32Z</time>
      </trkpt>
      <trkpt lat="48.09709790" lon="8.805655980">
        <ele>943.00000</ele>
        <time>2010-01-01T04:47:14Z</time>
      </trkpt>
      <trkpt lat="48.09682390" lon="8.806200970">
        <ele>943.00000</ele>
        <time>2010-01-01T04:48:00Z</time>
      </trkpt>
      <trkpt lat="48.09657200" lon="8.806644960">
        <ele>944.00000</ele>
        <time>2010-01-01T04:48:39Z</time>
      </trkpt>
      <trkpt lat="48.09628500" lon="8.806955010">
        <ele>946.00000</ele>
        <time>2010-01-01T04:49:14Z</time>
      </trkpt>
      <trkpt lat="48.09627600" lon="8.806968000">
        <ele>946.00000</ele>
        <time>2010-01-01T04:49:16Z</time>
      </trkpt>
      <trkpt lat="48.09597890" lon="8.807209990">
        <ele>947.00000</ele>
        <time>2010-01-01T04:49:49Z</time>
      </trkpt>
      <trkpt lat="48.09598800" lon="8.807209990">
        <ele>947.00000</ele>
        <time>2010-01-01T04:49:50Z</time>
      </trkpt>
      <trkpt lat="48.09565600" lon="8.807397990">
        <ele>951.00000</ele>
        <time>2010-01-01T04:50:26Z</time>
      </trkpt>
      <trkpt lat="48.09549400" lon="8.807345020">
        <ele>953.00000</ele>
        <time>2010-01-01T04:50:42Z</time>
      </trkpt>
      <trkpt lat="48.09512600" lon="8.806994990">
        <ele>956.00000</ele>
        <time>2010-01-01T04:51:26Z</time>
      </trkpt>
      <trkpt lat="48.09469490" lon="8.806577990">
        <ele>958.00000</ele>
        <time>2010-01-01T04:52:17Z</time>
      </trkpt>
      <trkpt lat="48.09419190" lon="8.806415970">
        <ele>962.00000</ele>
        <time>2010-01-01T04:53:09Z</time>
      </trkpt>
      <trkpt lat="48.09347290" lon="8.806282030">
        <ele>966.00000</ele>
        <time>2010-01-01T04:54:21Z</time>
      </trkpt>
      <trkpt lat="48.09306900" lon="8.806053030">
        <ele>968.00000</ele>
        <time>2010-01-01T04:55:05Z</time>
      </trkpt>
      <trkpt lat="48.09297900" lon="8.805797970">
        <ele>970.00000</ele>
        <time>2010-01-01T04:55:24Z</time>
      </trkpt>
      <trkpt lat="48.09297900" lon="8.805770980">
        <ele>970.00000</ele>
        <time>2010-01-01T04:55:26Z</time>
      </trkpt>
      <trkpt lat="48.09295200" lon="8.805407960">
        <ele>971.00000</ele>
        <time>2010-01-01T04:55:50Z</time>
      </trkpt>
      <trkpt lat="48.09296090" lon="8.805192960">
        <ele>971.00000</ele>
        <time>2010-01-01T04:56:05Z</time>
      </trkpt>
      <trkpt lat="48.09258390" lon="8.804721990">
        <ele>974.00000</ele>
        <time>2010-01-01T04:56:54Z</time>
      </trkpt>
      <trkpt lat="48.09237190" lon="8.804810000">
        <ele>974.00000</ele>
        <time>2010-01-01T04:57:16Z</time>
      </trkpt>
      <trkpt lat="48.09188700" lon="8.804876970">
        <ele>970.00000</ele>
        <time>2010-01-01T04:58:04Z</time>
      </trkpt>
      <trkpt lat="48.09186000" lon="8.804876970">
        <ele>970.00000</ele>
        <time>2010-01-01T04:58:07Z</time>
      </trkpt>
      <trkpt lat="48.09121300" lon="8.804756020">
        <ele>964.00000</ele>
        <time>2010-01-01T04:59:12Z</time>
      </trkpt>
      <trkpt lat="48.09055690" lon="8.804568010">
        <ele>958.00000</ele>
        <time>2010-01-01T05:00:19Z</time>
      </trkpt>
      <trkpt lat="48.08983890" lon="8.804257960">
        <ele>953.00000</ele>
        <time>2010-01-01T05:01:34Z</time>
      </trkpt>
      <trkpt lat="48.08919190" lon="8.803922020">
        <ele>951.00000</ele>
        <time>2010-01-01T05:02:43Z</time>
      </trkpt>
      <trkpt lat="48.08876990" lon="8.803652960">
        <ele>947.00000</ele>
        <time>2010-01-01T05:03:28Z</time>
      </trkpt>
      <trkpt lat="48.08797890" lon="8.803303010">
        <ele>943.00000</ele>
        <time>2010-01-01T05:04:51Z</time>
      </trkpt>
      <trkpt lat="48.08758400" lon="8.804769010">
        <ele>946.00000</ele>
        <time>2010-01-01T05:06:37Z</time>
      </trkpt>
      <trkpt lat="48.08759290" lon="8.804783010">
        <ele>946.00000</ele>
        <time>2010-01-01T05:06:38Z</time>
      </trkpt>
      <trkpt lat="48.08796100" lon="8.805159020">
        <ele>945.00000</ele>
        <time>2010-01-01T05:07:23Z</time>
      </trkpt>
      <trkpt lat="48.08836600" lon="8.805723960">
        <ele>946.00000</ele>
        <time>2010-01-01T05:08:18Z</time>
      </trkpt>
      <trkpt lat="48.08856300" lon="8.806020010">
        <ele>948.00000</ele>
        <time>2010-01-01T05:08:46Z</time>
      </trkpt>
      <trkpt lat="48.08865300" lon="8.806208010">
        <ele>949.00000</ele>
        <time>2010-01-01T05:09:01Z</time>
      </trkpt>
      <trkpt lat="48.08904790" lon="8.806639010">
        <ele>951.00000</ele>
        <time>2010-01-01T05:09:50Z</time>
      </trkpt>
      <trkpt lat="48.08905700" lon="8.806639010">
        <ele>951.00000</ele>
        <time>2010-01-01T05:09:51Z</time>
      </trkpt>
      <trkpt lat="48.08925500" lon="8.806772950">
        <ele>952.00000</ele>
        <time>2010-01-01T05:10:13Z</time>
      </trkpt>
      <trkpt lat="48.08925500" lon="8.806787040">
        <ele>952.00000</ele>
        <time>2010-01-01T05:10:14Z</time>
      </trkpt>
      <trkpt lat="48.08938100" lon="8.806907990">
        <ele>952.00000</ele>
        <time>2010-01-01T05:10:29Z</time>
      </trkpt>
      <trkpt lat="48.08938100" lon="8.806920980">
        <ele>952.00000</ele>
        <time>2010-01-01T05:10:30Z</time>
      </trkpt>
      <trkpt lat="48.08938990" lon="8.807377960">
        <ele>953.00000</ele>
        <time>2010-01-01T05:11:00Z</time>
      </trkpt>
      <trkpt lat="48.08934500" lon="8.807486000">
        <ele>954.00000</ele>
        <time>2010-01-01T05:11:09Z</time>
      </trkpt>
      <trkpt lat="48.08921000" lon="8.807836030">
        <ele>954.00000</ele>
        <time>2010-01-01T05:11:36Z</time>
      </trkpt>
      <trkpt lat="48.08919190" lon="8.807903000">
        <ele>954.00000</ele>
        <time>2010-01-01T05:11:41Z</time>
      </trkpt>
      <trkpt lat="48.08918300" lon="8.807929990">
        <ele>954.00000</ele>
        <time>2010-01-01T05:11:43Z</time>
      </trkpt>
      <trkpt lat="48.08909290" lon="8.808426950">
        <ele>955.00000</ele>
        <time>2010-01-01T05:12:17Z</time>
      </trkpt>
      <trkpt lat="48.08907490" lon="8.808508010">
        <ele>954.00000</ele>
        <time>2010-01-01T05:12:23Z</time>
      </trkpt>
      <trkpt lat="48.08907490" lon="8.808535000">
        <ele>954.00000</ele>
        <time>2010-01-01T05:12:25Z</time>
      </trkpt>
      <trkpt lat="48.08899400" lon="8.809113010">
        <ele>952.00000</ele>
        <time>2010-01-01T05:13:04Z</time>
      </trkpt>
      <trkpt lat="48.08899400" lon="8.809193980">
        <ele>952.00000</ele>
        <time>2010-01-01T05:13:09Z</time>
      </trkpt>
      <trkpt lat="48.08901200" lon="8.809381990">
        <ele>951.00000</ele>
        <time>2010-01-01T05:13:22Z</time>
      </trkpt>
      <trkpt lat="48.08901200" lon="8.809395990">
        <ele>951.00000</ele>
        <time>2010-01-01T05:13:23Z</time>
      </trkpt>
      <trkpt lat="48.08911100" lon="8.809610980">
        <ele>951.00000</ele>
        <time>2010-01-01T05:13:41Z</time>
      </trkpt>
      <trkpt lat="48.08951500" lon="8.809852970">
        <ele>949.00000</ele>
        <time>2010-01-01T05:14:24Z</time>
      </trkpt>
      <trkpt lat="48.08954200" lon="8.809852970">
        <ele>949.00000</ele>
        <time>2010-01-01T05:14:27Z</time>
      </trkpt>
      <trkpt lat="48.08984800" lon="8.810122030">
        <ele>947.00000</ele>
        <time>2010-01-01T05:15:02Z</time>
      </trkpt>
      <trkpt lat="48.09009000" lon="8.810552020">
        <ele>946.00000</ele>
        <time>2010-01-01T05:15:40Z</time>
      </trkpt>
      <trkpt lat="48.09033300" lon="8.811304960">
        <ele>943.00000</ele>
        <time>2010-01-01T05:16:36Z</time>
      </trkpt>
      <trkpt lat="48.09021190" lon="8.811553990">
        <ele>943.00000</ele>
        <time>2010-01-01T05:16:56Z</time>
      </trkpt>
      <trkpt lat="48.09022100" lon="8.811553990">
        <ele>943.00000</ele>
        <time>2010-01-01T05:16:57Z</time>
      </trkpt>
      <trkpt lat="48.09026590" lon="8.812495030">
        <ele>940.00000</ele>
        <time>2010-01-01T05:18:00Z</time>
      </trkpt>
      <trkpt lat="48.09027500" lon="8.812576000">
        <ele>940.00000</ele>
        <time>2010-01-01T05:18:06Z</time>
      </trkpt>
      <trkpt lat="48.09027500" lon="8.812589990">
        <ele>939.00000</ele>
        <time>2010-01-01T05:18:07Z</time>
      </trkpt>
      <trkpt lat="48.09035590" lon="8.812953010">
        <ele>938.00000</ele>
        <time>2010-01-01T05:18:32Z</time>
      </trkpt>
      <trkpt lat="48.09037400" lon="8.812966010">
        <ele>938.00000</ele>
        <time>2010-01-01T05:18:34Z</time>
      </trkpt>
      <trkpt lat="48.09058000" lon="8.813329030">
        <ele>938.00000</ele>
        <time>2010-01-01T05:19:06Z</time>
      </trkpt>
      <trkpt lat="48.09060700" lon="8.813329030">
        <ele>938.00000</ele>
        <time>2010-01-01T05:19:09Z</time>
      </trkpt>
      <trkpt lat="48.09079600" lon="8.813329030">
        <ele>940.00000</ele>
        <time>2010-01-01T05:19:28Z</time>
      </trkpt>
      <trkpt lat="48.09082300" lon="8.813343020">
        <ele>940.00000</ele>
        <time>2010-01-01T05:19:31Z</time>
      </trkpt>
      <trkpt lat="48.09107390" lon="8.813571010">
        <ele>941.00000</ele>
        <time>2010-01-01T05:20:00Z</time>
      </trkpt>
      <trkpt lat="48.09110090" lon="8.813571010">
        <ele>941.00000</ele>
        <time>2010-01-01T05:20:03Z</time>
      </trkpt>
      <trkpt lat="48.09126290" lon="8.813853990">
        <ele>940.00000</ele>
        <time>2010-01-01T05:20:28Z</time>
      </trkpt>
      <trkpt lat="48.09126290" lon="8.813880980">
        <ele>940.00000</ele>
        <time>2010-01-01T05:20:29Z</time>
      </trkpt>
      <trkpt lat="48.09131690" lon="8.814498970">
        <ele>934.00000</ele>
        <time>2010-01-01T05:21:11Z</time>
      </trkpt>
      <trkpt lat="48.09124490" lon="8.815387040">
        <ele>923.00000</ele>
        <time>2010-01-01T05:22:11Z</time>
      </trkpt>
      <trkpt lat="48.09124490" lon="8.815441010">
        <ele>922.00000</ele>
        <time>2010-01-01T05:22:15Z</time>
      </trkpt>
      <trkpt lat="48.09120900" lon="8.815736980">
        <ele>919.00000</ele>
        <time>2010-01-01T05:22:35Z</time>
      </trkpt>
      <trkpt lat="48.09122700" lon="8.815749970">
        <ele>919.00000</ele>
        <time>2010-01-01T05:22:37Z</time>
      </trkpt>
      <trkpt lat="48.09132600" lon="8.815937980">
        <ele>917.00000</ele>
        <time>2010-01-01T05:22:53Z</time>
      </trkpt>
      <trkpt lat="48.09139800" lon="8.815951980">
        <ele>917.00000</ele>
        <time>2010-01-01T05:23:00Z</time>
      </trkpt>
      <trkpt lat="48.09141590" lon="8.815951980">
        <ele>917.00000</ele>
        <time>2010-01-01T05:23:02Z</time>
      </trkpt>
      <trkpt lat="48.09203490" lon="8.815991960">
        <ele>916.00000</ele>
        <time>2010-01-01T05:24:04Z</time>
      </trkpt>
      <trkpt lat="48.09207100" lon="8.816005960">
        <ele>915.00000</ele>
        <time>2010-01-01T05:24:07Z</time>
      </trkpt>
      <trkpt lat="48.09223300" lon="8.816073010">
        <ele>914.00000</ele>
        <time>2010-01-01T05:24:24Z</time>
      </trkpt>
      <trkpt lat="48.09173490" lon="8.816563020">
        <ele>907.00000</ele>
        <time>2010-01-01T05:25:24Z</time>
      </trkpt>
      <trkpt lat="48.09171700" lon="8.816577010">
        <ele>907.00000</ele>
        <time>2010-01-01T05:25:26Z</time>
      </trkpt>
      <trkpt lat="48.09102500" lon="8.817236000">
        <ele>905.00000</ele>
        <time>2010-01-01T05:26:48Z</time>
      </trkpt>
      <trkpt lat="48.09102500" lon="8.817248990">
        <ele>905.00000</ele>
        <time>2010-01-01T05:26:49Z</time>
      </trkpt>
      <trkpt lat="48.09079200" lon="8.817705970">
        <ele>903.00000</ele>
        <time>2010-01-01T05:27:27Z</time>
      </trkpt>
      <trkpt lat="48.09078300" lon="8.817719970">
        <ele>903.00000</ele>
        <time>2010-01-01T05:27:29Z</time>
      </trkpt>
      <trkpt lat="48.09066600" lon="8.818029010">
        <ele>902.00000</ele>
        <time>2010-01-01T05:27:52Z</time>
      </trkpt>
      <trkpt lat="48.09072890" lon="8.818392030">
        <ele>900.00000</ele>
        <time>2010-01-01T05:28:17Z</time>
      </trkpt>
      <trkpt lat="48.09074690" lon="8.818406030">
        <ele>900.00000</ele>
        <time>2010-01-01T05:28:19Z</time>
      </trkpt>
      <trkpt lat="48.09102500" lon="8.818795960">
        <ele>899.00000</ele>
        <time>2010-01-01T05:28:58Z</time>
      </trkpt>
      <trkpt lat="48.09103390" lon="8.818809030">
        <ele>899.00000</ele>
        <time>2010-01-01T05:28:59Z</time>
      </trkpt>
      <trkpt lat="48.09173490" lon="8.819319990">
        <ele>891.00000</ele>
        <time>2010-01-01T05:30:17Z</time>
      </trkpt>
      <trkpt lat="48.09175290" lon="8.819319990">
        <ele>891.00000</ele>
        <time>2010-01-01T05:30:19Z</time>
      </trkpt>
      <trkpt lat="48.09219290" lon="8.819763980">
        <ele>890.00000</ele>
        <time>2010-01-01T05:31:12Z</time>
      </trkpt>
      <trkpt lat="48.09222900" lon="8.819776970">
        <ele>889.00000</ele>
        <time>2010-01-01T05:31:15Z</time>
      </trkpt>
      <trkpt lat="48.09280400" lon="8.820275030">
        <ele>889.00000</ele>
        <time>2010-01-01T05:32:22Z</time>
      </trkpt>
      <trkpt lat="48.09269690" lon="8.820785990">
        <ele>891.00000</ele>
        <time>2010-01-01T05:32:58Z</time>
      </trkpt>
      <trkpt lat="48.09270600" lon="8.820812980">
        <ele>891.00000</ele>
        <time>2010-01-01T05:33:00Z</time>
      </trkpt>
      <trkpt lat="48.09278590" lon="8.821444970">
        <ele>893.00000</ele>
        <time>2010-01-01T05:33:43Z</time>
      </trkpt>
      <trkpt lat="48.09281290" lon="8.821444970">
        <ele>893.00000</ele>
        <time>2010-01-01T05:33:45Z</time>
      </trkpt>
      <trkpt lat="48.09318200" lon="8.822238990">
        <ele>890.00000</ele>
        <time>2010-01-01T05:34:50Z</time>
      </trkpt>
      <trkpt lat="48.09319090" lon="8.822278970">
        <ele>890.00000</ele>
        <time>2010-01-01T05:34:53Z</time>
      </trkpt>
      <trkpt lat="48.09345990" lon="8.822831000">
        <ele>889.00000</ele>
        <time>2010-01-01T05:35:39Z</time>
      </trkpt>
      <trkpt lat="48.09346900" lon="8.822897970">
        <ele>889.00000</ele>
        <time>2010-01-01T05:35:43Z</time>
      </trkpt>
      <trkpt lat="48.09364000" lon="8.823611020">
        <ele>888.00000</ele>
        <time>2010-01-01T05:36:34Z</time>
      </trkpt>
      <trkpt lat="48.09364000" lon="8.823624020">
        <ele>888.00000</ele>
        <time>2010-01-01T05:36:35Z</time>
      </trkpt>
      <trkpt lat="48.09377490" lon="8.824619030">
        <ele>885.00000</ele>
        <time>2010-01-01T05:37:43Z</time>
      </trkpt>
      <trkpt lat="48.09378400" lon="8.824646020">
        <ele>885.00000</ele>
        <time>2010-01-01T05:37:45Z</time>
      </trkpt>
      <trkpt lat="48.09391800" lon="8.825870030">
        <ele>882.00000</ele>
        <time>2010-01-01T05:39:07Z</time>
      </trkpt>
      <trkpt lat="48.09392700" lon="8.825884030">
        <ele>882.00000</ele>
        <time>2010-01-01T05:39:09Z</time>
      </trkpt>
      <trkpt lat="48.09405290" lon="8.826676960">
        <ele>877.00000</ele>
        <time>2010-01-01T05:40:03Z</time>
      </trkpt>
      <trkpt lat="48.09406200" lon="8.826704030">
        <ele>877.00000</ele>
        <time>2010-01-01T05:40:05Z</time>
      </trkpt>
      <trkpt lat="48.09416100" lon="8.827080960">
        <ele>874.00000</ele>
        <time>2010-01-01T05:40:32Z</time>
      </trkpt>
      <trkpt lat="48.09417890" lon="8.827080960">
        <ele>874.00000</ele>
        <time>2010-01-01T05:40:34Z</time>
      </trkpt>
      <trkpt lat="48.09448390" lon="8.827295960">
        <ele>876.00000</ele>
        <time>2010-01-01T05:41:08Z</time>
      </trkpt>
      <trkpt lat="48.09449300" lon="8.827295960">
        <ele>876.00000</ele>
        <time>2010-01-01T05:41:09Z</time>
      </trkpt>
      <trkpt lat="48.09485300" lon="8.827390000">
        <ele>880.00000</ele>
        <time>2010-01-01T05:41:45Z</time>
      </trkpt>
      <trkpt lat="48.09482590" lon="8.827497960">
        <ele>878.00000</ele>
        <time>2010-01-01T05:41:53Z</time>
      </trkpt>
      <trkpt lat="48.09482590" lon="8.827510960">
        <ele>878.00000</ele>
        <time>2010-01-01T05:41:54Z</time>
      </trkpt>
      <trkpt lat="48.09469100" lon="8.827671970">
        <ele>880.00000</ele>
        <time>2010-01-01T05:42:11Z</time>
      </trkpt>
      <trkpt lat="48.09447500" lon="8.827671970">
        <ele>878.00000</ele>
        <time>2010-01-01T05:42:33Z</time>
      </trkpt>
      <trkpt lat="48.09428700" lon="8.827767020">
        <ele>877.00000</ele>
        <time>2010-01-01T05:42:53Z</time>
      </trkpt>
      <trkpt lat="48.09428700" lon="8.827740030">
        <ele>877.00000</ele>
        <time>2010-01-01T05:42:54Z</time>
      </trkpt>
      <trkpt lat="48.09412490" lon="8.828048990">
        <ele>880.00000</ele>
        <time>2010-01-01T05:43:21Z</time>
      </trkpt>
      <trkpt lat="48.09411600" lon="8.828143030">
        <ele>881.00000</ele>
        <time>2010-01-01T05:43:27Z</time>
      </trkpt>
      <trkpt lat="48.09409790" lon="8.828183020">
        <ele>881.00000</ele>
        <time>2010-01-01T05:43:30Z</time>
      </trkpt>
      <trkpt lat="48.09397200" lon="8.828587020">
        <ele>884.00000</ele>
        <time>2010-01-01T05:44:00Z</time>
      </trkpt>
      <trkpt lat="48.09397200" lon="8.828627010">
        <ele>884.00000</ele>
        <time>2010-01-01T05:44:03Z</time>
      </trkpt>
      <trkpt lat="48.09390000" lon="8.828977030">
        <ele>885.00000</ele>
        <time>2010-01-01T05:44:27Z</time>
      </trkpt>
      <trkpt lat="48.09390000" lon="8.829004020">
        <ele>886.00000</ele>
        <time>2010-01-01T05:44:29Z</time>
      </trkpt>
      <trkpt lat="48.09379290" lon="8.830173970">
        <ele>890.00000</ele>
        <time>2010-01-01T05:45:48Z</time>
      </trkpt>
      <trkpt lat="48.09354100" lon="8.830457030">
        <ele>887.00000</ele>
        <time>2010-01-01T05:46:20Z</time>
      </trkpt>
      <trkpt lat="48.09353190" lon="8.830484020">
        <ele>887.00000</ele>
        <time>2010-01-01T05:46:22Z</time>
      </trkpt>
      <trkpt lat="48.09311000" lon="8.831143000">
        <ele>888.00000</ele>
        <time>2010-01-01T05:47:23Z</time>
      </trkpt>
      <trkpt lat="48.09275100" lon="8.831533010">
        <ele>890.00000</ele>
        <time>2010-01-01T05:48:07Z</time>
      </trkpt>
      <trkpt lat="48.09275100" lon="8.831546000">
        <ele>890.00000</ele>
        <time>2010-01-01T05:48:08Z</time>
      </trkpt>
      <trkpt lat="48.09235490" lon="8.832218990">
        <ele>893.00000</ele>
        <time>2010-01-01T05:49:08Z</time>
      </trkpt>
      <trkpt lat="48.09235490" lon="8.832231980">
        <ele>893.00000</ele>
        <time>2010-01-01T05:49:09Z</time>
      </trkpt>
      <trkpt lat="48.09219390" lon="8.832245980">
        <ele>890.00000</ele>
        <time>2010-01-01T05:49:25Z</time>
      </trkpt>
      <trkpt lat="48.09218490" lon="8.832258970">
        <ele>890.00000</ele>
        <time>2010-01-01T05:49:26Z</time>
      </trkpt>
      <trkpt lat="48.09190590" lon="8.832500950">
        <ele>890.00000</ele>
        <time>2010-01-01T05:49:58Z</time>
      </trkpt>
      <trkpt lat="48.09190590" lon="8.832515040">
        <ele>891.00000</ele>
        <time>2010-01-01T05:49:59Z</time>
      </trkpt>
      <trkpt lat="48.09150200" lon="8.832972020">
        <ele>890.00000</ele>
        <time>2010-01-01T05:50:50Z</time>
      </trkpt>
      <trkpt lat="48.09114290" lon="8.833226990">
        <ele>888.00000</ele>
        <time>2010-01-01T05:51:30Z</time>
      </trkpt>
      <trkpt lat="48.09048690" lon="8.833577020">
        <ele>879.00000</ele>
        <time>2010-01-01T05:52:39Z</time>
      </trkpt>
      <trkpt lat="48.09046890" lon="8.833591020">
        <ele>879.00000</ele>
        <time>2010-01-01T05:52:41Z</time>
      </trkpt>
      <trkpt lat="48.08973200" lon="8.834289990">
        <ele>878.00000</ele>
        <time>2010-01-01T05:54:09Z</time>
      </trkpt>
      <trkpt lat="48.08972290" lon="8.834329970">
        <ele>879.00000</ele>
        <time>2010-01-01T05:54:12Z</time>
      </trkpt>
      <trkpt lat="48.08884290" lon="8.834935980">
        <ele>889.00000</ele>
        <time>2010-01-01T05:55:48Z</time>
      </trkpt>
      <trkpt lat="48.08880700" lon="8.834948970">
        <ele>889.00000</ele>
        <time>2010-01-01T05:55:52Z</time>
      </trkpt>
      <trkpt lat="48.08820500" lon="8.835299000">
        <ele>891.00000</ele>
        <time>2010-01-01T05:56:57Z</time>
      </trkpt>
      <trkpt lat="48.08818690" lon="8.835299000">
        <ele>891.00000</ele>
        <time>2010-01-01T05:56:59Z</time>
      </trkpt>
      <trkpt lat="48.08778290" lon="8.835689010">
        <ele>900.00000</ele>
        <time>2010-01-01T05:57:47Z</time>
      </trkpt>
      <trkpt lat="48.08777400" lon="8.835702000">
        <ele>901.00000</ele>
        <time>2010-01-01T05:57:48Z</time>
      </trkpt>
      <trkpt lat="48.08749490" lon="8.836024960">
        <ele>907.00000</ele>
        <time>2010-01-01T05:58:23Z</time>
      </trkpt>
      <trkpt lat="48.08658690" lon="8.836106010">
        <ele>896.00000</ele>
        <time>2010-01-01T05:59:54Z</time>
      </trkpt>
      <trkpt lat="48.08658690" lon="8.836119000">
        <ele>897.00000</ele>
        <time>2010-01-01T05:59:55Z</time>
      </trkpt>
      <trkpt lat="48.08575190" lon="8.836509010">
        <ele>897.00000</ele>
        <time>2010-01-01T06:01:23Z</time>
      </trkpt>
      <trkpt lat="48.08508700" lon="8.836967000">
        <ele>898.00000</ele>
        <time>2010-01-01T06:02:36Z</time>
      </trkpt>
      <trkpt lat="48.08507790" lon="8.836979990">
        <ele>898.00000</ele>
        <time>2010-01-01T06:02:37Z</time>
      </trkpt>
      <trkpt lat="48.08457490" lon="8.837168000">
        <ele>895.00000</ele>
        <time>2010-01-01T06:03:29Z</time>
      </trkpt>
      <trkpt lat="48.08455690" lon="8.837168000">
        <ele>894.00000</ele>
        <time>2010-01-01T06:03:31Z</time>
      </trkpt>
      <trkpt lat="48.08409000" lon="8.837208990">
        <ele>889.00000</ele>
        <time>2010-01-01T06:04:18Z</time>
      </trkpt>
      <trkpt lat="48.08406300" lon="8.837182000">
        <ele>887.00000</ele>
        <time>2010-01-01T06:04:21Z</time>
      </trkpt>
      <trkpt lat="48.08368590" lon="8.837006980">
        <ele>876.00000</ele>
        <time>2010-01-01T06:05:00Z</time>
      </trkpt>
      <trkpt lat="48.08366790" lon="8.837006980">
        <ele>876.00000</ele>
        <time>2010-01-01T06:05:02Z</time>
      </trkpt>
      <trkpt lat="48.08356000" lon="8.837019970">
        <ele>875.00000</ele>
        <time>2010-01-01T06:05:13Z</time>
      </trkpt>
      <trkpt lat="48.08356890" lon="8.837019970">
        <ele>875.00000</ele>
        <time>2010-01-01T06:05:14Z</time>
      </trkpt>
      <trkpt lat="48.08337200" lon="8.837303030">
        <ele>883.00000</ele>
        <time>2010-01-01T06:05:41Z</time>
      </trkpt>
      <trkpt lat="48.08337200" lon="8.837316020">
        <ele>883.00000</ele>
        <time>2010-01-01T06:05:42Z</time>
      </trkpt>
      <trkpt lat="48.08311990" lon="8.837545020">
        <ele>882.00000</ele>
        <time>2010-01-01T06:06:12Z</time>
      </trkpt>
      <trkpt lat="48.08295800" lon="8.837948020">
        <ele>884.00000</ele>
        <time>2010-01-01T06:06:43Z</time>
      </trkpt>
      <trkpt lat="48.08295800" lon="8.837962020">
        <ele>884.00000</ele>
        <time>2010-01-01T06:06:44Z</time>
      </trkpt>
      <trkpt lat="48.08277000" lon="8.838150020">
        <ele>880.00000</ele>
        <time>2010-01-01T06:07:07Z</time>
      </trkpt>
      <trkpt lat="48.08277000" lon="8.838204000">
        <ele>882.00000</ele>
        <time>2010-01-01T06:07:10Z</time>
      </trkpt>
      <trkpt lat="48.08273390" lon="8.838445990">
        <ele>884.00000</ele>
        <time>2010-01-01T06:07:27Z</time>
      </trkpt>
      <trkpt lat="48.08272500" lon="8.838540030">
        <ele>885.00000</ele>
        <time>2010-01-01T06:07:33Z</time>
      </trkpt>
      <trkpt lat="48.08273390" lon="8.838836000">
        <ele>889.00000</ele>
        <time>2010-01-01T06:07:53Z</time>
      </trkpt>
      <trkpt lat="48.08250490" lon="8.839568990">
        <ele>893.00000</ele>
        <time>2010-01-01T06:08:47Z</time>
      </trkpt>
      <trkpt lat="48.08236090" lon="8.840093030">
        <ele>894.00000</ele>
        <time>2010-01-01T06:09:25Z</time>
      </trkpt>
      <trkpt lat="48.08236090" lon="8.840120020">
        <ele>894.00000</ele>
        <time>2010-01-01T06:09:27Z</time>
      </trkpt>
      <trkpt lat="48.08206500" lon="8.840698040">
        <ele>890.00000</ele>
        <time>2010-01-01T06:10:15Z</time>
      </trkpt>
      <trkpt lat="48.08203800" lon="8.840712030">
        <ele>889.00000</ele>
        <time>2010-01-01T06:10:18Z</time>
      </trkpt>
      <trkpt lat="48.08187600" lon="8.841142030">
        <ele>887.00000</ele>
        <time>2010-01-01T06:10:51Z</time>
      </trkpt>
      <trkpt lat="48.08184900" lon="8.841423990">
        <ele>891.00000</ele>
        <time>2010-01-01T06:11:10Z</time>
      </trkpt>
      <trkpt lat="48.08183990" lon="8.841450980">
        <ele>891.00000</ele>
        <time>2010-01-01T06:11:12Z</time>
      </trkpt>
      <trkpt lat="48.08170500" lon="8.841733030">
        <ele>889.00000</ele>
        <time>2010-01-01T06:11:36Z</time>
      </trkpt>
      <trkpt lat="48.08170500" lon="8.841747030">
        <ele>889.00000</ele>
        <time>2010-01-01T06:11:37Z</time>
      </trkpt>
      <trkpt lat="48.08162390" lon="8.841989020">
        <ele>888.00000</ele>
        <time>2010-01-01T06:11:55Z</time>
      </trkpt>
      <trkpt lat="48.08162390" lon="8.842029000">
        <ele>888.00000</ele>
        <time>2010-01-01T06:11:57Z</time>
      </trkpt>
      <trkpt lat="48.08164190" lon="8.842324960">
        <ele>893.00000</ele>
        <time>2010-01-01T06:12:17Z</time>
      </trkpt>
      <trkpt lat="48.08164190" lon="8.842338960">
        <ele>893.00000</ele>
        <time>2010-01-01T06:12:18Z</time>
      </trkpt>
      <trkpt lat="48.08155190" lon="8.842714970">
        <ele>887.00000</ele>
        <time>2010-01-01T06:12:45Z</time>
      </trkpt>
      <trkpt lat="48.08141800" lon="8.843024010">
        <ele>875.00000</ele>
        <time>2010-01-01T06:13:09Z</time>
      </trkpt>
      <trkpt lat="48.08142690" lon="8.843091990">
        <ele>875.00000</ele>
        <time>2010-01-01T06:13:14Z</time>
      </trkpt>
      <trkpt lat="48.08146300" lon="8.843213030">
        <ele>877.00000</ele>
        <time>2010-01-01T06:13:23Z</time>
      </trkpt>
      <trkpt lat="48.08148090" lon="8.843253010">
        <ele>878.00000</ele>
        <time>2010-01-01T06:13:26Z</time>
      </trkpt>
      <trkpt lat="48.08164190" lon="8.843548970">
        <ele>883.00000</ele>
        <time>2010-01-01T06:13:52Z</time>
      </trkpt>
      <trkpt lat="48.08166000" lon="8.843548970">
        <ele>885.00000</ele>
        <time>2010-01-01T06:13:53Z</time>
      </trkpt>
      <trkpt lat="48.08187600" lon="8.843818030">
        <ele>890.00000</ele>
        <time>2010-01-01T06:14:22Z</time>
      </trkpt>
      <trkpt lat="48.08187600" lon="8.843911990">
        <ele>888.00000</ele>
        <time>2010-01-01T06:14:28Z</time>
      </trkpt>
      <trkpt lat="48.08187600" lon="8.843951970">
        <ele>888.00000</ele>
        <time>2010-01-01T06:14:31Z</time>
      </trkpt>
      <trkpt lat="48.08187600" lon="8.844166970">
        <ele>884.00000</ele>
        <time>2010-01-01T06:14:45Z</time>
      </trkpt>
      <trkpt lat="48.08187600" lon="8.844221030">
        <ele>883.00000</ele>
        <time>2010-01-01T06:14:49Z</time>
      </trkpt>
      <trkpt lat="48.08190300" lon="8.844583970">
        <ele>878.00000</ele>
        <time>2010-01-01T06:15:13Z</time>
      </trkpt>
      <trkpt lat="48.08191190" lon="8.844665020">
        <ele>877.00000</ele>
        <time>2010-01-01T06:15:18Z</time>
      </trkpt>
      <trkpt lat="48.08196600" lon="8.844893010">
        <ele>876.00000</ele>
        <time>2010-01-01T06:15:35Z</time>
      </trkpt>
      <trkpt lat="48.08197500" lon="8.844920000">
        <ele>876.00000</ele>
        <time>2010-01-01T06:15:37Z</time>
      </trkpt>
      <trkpt lat="48.08217190" lon="8.845256030">
        <ele>881.00000</ele>
        <time>2010-01-01T06:16:07Z</time>
      </trkpt>
      <trkpt lat="48.08218990" lon="8.845270030">
        <ele>882.00000</ele>
        <time>2010-01-01T06:16:09Z</time>
      </trkpt>
      <trkpt lat="48.08239700" lon="8.845499020">
        <ele>889.00000</ele>
        <time>2010-01-01T06:16:34Z</time>
      </trkpt>
      <trkpt lat="48.08239700" lon="8.845552000">
        <ele>888.00000</ele>
        <time>2010-01-01T06:16:38Z</time>
      </trkpt>
      <trkpt lat="48.08245100" lon="8.845780990">
        <ele>886.00000</ele>
        <time>2010-01-01T06:16:54Z</time>
      </trkpt>
      <trkpt lat="48.08245100" lon="8.845847960">
        <ele>885.00000</ele>
        <time>2010-01-01T06:16:59Z</time>
      </trkpt>
      <trkpt lat="48.08245100" lon="8.846157000">
        <ele>877.00000</ele>
        <time>2010-01-01T06:17:19Z</time>
      </trkpt>
      <trkpt lat="48.08245100" lon="8.846171000">
        <ele>876.00000</ele>
        <time>2010-01-01T06:17:20Z</time>
      </trkpt>
      <trkpt lat="48.08255000" lon="8.846386000">
        <ele>874.00000</ele>
        <time>2010-01-01T06:17:38Z</time>
      </trkpt>
      <trkpt lat="48.08255890" lon="8.846386000">
        <ele>874.00000</ele>
        <time>2010-01-01T06:17:39Z</time>
      </trkpt>
      <trkpt lat="48.08267690" lon="8.846465040">
        <ele>875.00000</ele>
        <time>2010-01-01T06:17:51Z</time>
      </trkpt>
      <trkpt lat="48.08288400" lon="8.846474010">
        <ele>880.00000</ele>
        <time>2010-01-01T06:18:12Z</time>
      </trkpt>
      <trkpt lat="48.08289700" lon="8.846482970">
        <ele>880.00000</ele>
        <time>2010-01-01T06:18:14Z</time>
      </trkpt>
      <trkpt lat="48.08334300" lon="8.846238980">
        <ele>895.00000</ele>
        <time>2010-01-01T06:19:01Z</time>
      </trkpt>
      <trkpt lat="48.08324300" lon="8.846482970">
        <ele>889.00000</ele>
        <time>2010-01-01T06:19:20Z</time>
      </trkpt>
      <trkpt lat="48.08323590" lon="8.846493030">
        <ele>889.00000</ele>
        <time>2010-01-01T06:19:21Z</time>
      </trkpt>
      <trkpt lat="48.08307300" lon="8.846784970">
        <ele>881.00000</ele>
        <time>2010-01-01T06:19:47Z</time>
      </trkpt>
      <trkpt lat="48.08282800" lon="8.847067030">
        <ele>870.00000</ele>
        <time>2010-01-01T06:20:18Z</time>
      </trkpt>
      <trkpt lat="48.08282090" lon="8.847075990">
        <ele>870.00000</ele>
        <time>2010-01-01T06:20:19Z</time>
      </trkpt>
      <trkpt lat="48.08253190" lon="8.847265010">
        <ele>857.00000</ele>
        <time>2010-01-01T06:20:50Z</time>
      </trkpt>
      <trkpt lat="48.08252600" lon="8.847284030">
        <ele>857.00000</ele>
        <time>2010-01-01T06:20:52Z</time>
      </trkpt>
      <trkpt lat="48.08219300" lon="8.847425020">
        <ele>848.00000</ele>
        <time>2010-01-01T06:21:26Z</time>
      </trkpt>
      <trkpt lat="48.08205990" lon="8.847433980">
        <ele>846.00000</ele>
        <time>2010-01-01T06:21:39Z</time>
      </trkpt>
      <trkpt lat="48.08204800" lon="8.847425020">
        <ele>846.00000</ele>
        <time>2010-01-01T06:21:41Z</time>
      </trkpt>
      <trkpt lat="48.08187800" lon="8.847368020">
        <ele>842.00000</ele>
        <time>2010-01-01T06:21:58Z</time>
      </trkpt>
      <trkpt lat="48.08160100" lon="8.847067030">
        <ele>835.00000</ele>
        <time>2010-01-01T06:22:32Z</time>
      </trkpt>
      <trkpt lat="48.08159490" lon="8.847067030">
        <ele>835.00000</ele>
        <time>2010-01-01T06:22:33Z</time>
      </trkpt>
      <trkpt lat="48.08129290" lon="8.846539970">
        <ele>830.00000</ele>
        <time>2010-01-01T06:23:20Z</time>
      </trkpt>
      <trkpt lat="48.08106690" lon="8.846088020">
        <ele>824.00000</ele>
        <time>2010-01-01T06:23:57Z</time>
      </trkpt>
      <trkpt lat="48.08089090" lon="8.845768000">
        <ele>816.00000</ele>
        <time>2010-01-01T06:24:25Z</time>
      </trkpt>
      <trkpt lat="48.08070190" lon="8.845259970">
        <ele>806.00000</ele>
        <time>2010-01-01T06:25:04Z</time>
      </trkpt>
      <trkpt lat="48.08060790" lon="8.845090990">
        <ele>800.00000</ele>
        <time>2010-01-01T06:25:19Z</time>
      </trkpt>
      <trkpt lat="48.08043800" lon="8.844940030">
        <ele>792.00000</ele>
        <time>2010-01-01T06:25:38Z</time>
      </trkpt>
      <trkpt lat="48.08025600" lon="8.844854960">
        <ele>785.00000</ele>
        <time>2010-01-01T06:25:57Z</time>
      </trkpt>
      <trkpt lat="48.08016800" lon="8.844733000">
        <ele>781.00000</ele>
        <time>2010-01-01T06:26:09Z</time>
      </trkpt>
      <trkpt lat="48.08006700" lon="8.844788990">
        <ele>776.00000</ele>
        <time>2010-01-01T06:26:20Z</time>
      </trkpt>
      <trkpt lat="48.08007290" lon="8.844788990">
        <ele>776.00000</ele>
        <time>2010-01-01T06:26:21Z</time>
      </trkpt>
      <trkpt lat="48.07994090" lon="8.844780020">
        <ele>772.00000</ele>
        <time>2010-01-01T06:26:34Z</time>
      </trkpt>
      <trkpt lat="48.07985990" lon="8.844685980">
        <ele>770.00000</ele>
        <time>2010-01-01T06:26:44Z</time>
      </trkpt>
      <trkpt lat="48.07972790" lon="8.844581960">
        <ele>767.00000</ele>
        <time>2010-01-01T06:26:59Z</time>
      </trkpt>
      <trkpt lat="48.07958390" lon="8.845118990">
        <ele>765.00000</ele>
        <time>2010-01-01T06:27:38Z</time>
      </trkpt>
      <trkpt lat="48.07943890" lon="8.845383020">
        <ele>766.00000</ele>
        <time>2010-01-01T06:28:01Z</time>
      </trkpt>
      <trkpt lat="48.07949590" lon="8.845589970">
        <ele>772.00000</ele>
        <time>2010-01-01T06:28:16Z</time>
      </trkpt>
      <trkpt lat="48.07943890" lon="8.845692980">
        <ele>772.00000</ele>
        <time>2010-01-01T06:28:25Z</time>
      </trkpt>
      <trkpt lat="48.07936300" lon="8.845712010">
        <ele>770.00000</ele>
        <time>2010-01-01T06:28:32Z</time>
      </trkpt>
      <trkpt lat="48.07936300" lon="8.845721980">
        <ele>770.00000</ele>
        <time>2010-01-01T06:28:33Z</time>
      </trkpt>
      <trkpt lat="48.07933790" lon="8.845852990">
        <ele>772.00000</ele>
        <time>2010-01-01T06:28:42Z</time>
      </trkpt>
      <trkpt lat="48.07934500" lon="8.845852990">
        <ele>772.00000</ele>
        <time>2010-01-01T06:28:43Z</time>
      </trkpt>
      <trkpt lat="48.07913690" lon="8.845918960">
        <ele>769.00000</ele>
        <time>2010-01-01T06:29:04Z</time>
      </trkpt>
      <trkpt lat="48.07913100" lon="8.845918960">
        <ele>769.00000</ele>
        <time>2010-01-01T06:29:05Z</time>
      </trkpt>
      <trkpt lat="48.07891090" lon="8.846013000">
        <ele>770.00000</ele>
        <time>2010-01-01T06:29:28Z</time>
      </trkpt>
      <trkpt lat="48.07890400" lon="8.846013000">
        <ele>770.00000</ele>
        <time>2010-01-01T06:29:28Z</time>
      </trkpt>
      <trkpt lat="48.07865900" lon="8.846238980">
        <ele>773.00000</ele>
        <time>2010-01-01T06:29:57Z</time>
      </trkpt>
      <trkpt lat="48.07865900" lon="8.846258000">
        <ele>773.00000</ele>
        <time>2010-01-01T06:29:58Z</time>
      </trkpt>
      <trkpt lat="48.07825700" lon="8.846738040">
        <ele>772.00000</ele>
        <time>2010-01-01T06:30:50Z</time>
      </trkpt>
      <trkpt lat="48.07825700" lon="8.846756980">
        <ele>773.00000</ele>
        <time>2010-01-01T06:30:51Z</time>
      </trkpt>
      <trkpt lat="48.07768390" lon="8.847490980">
        <ele>770.00000</ele>
        <time>2010-01-01T06:32:07Z</time>
      </trkpt>
      <trkpt lat="48.07706200" lon="8.848252980">
        <ele>768.00000</ele>
        <time>2010-01-01T06:33:27Z</time>
      </trkpt>
      <trkpt lat="48.07686390" lon="8.848521960">
        <ele>768.00000</ele>
        <time>2010-01-01T06:33:54Z</time>
      </trkpt>
      <trkpt lat="48.07644300" lon="8.848972990">
        <ele>772.00000</ele>
        <time>2010-01-01T06:34:46Z</time>
      </trkpt>
      <trkpt lat="48.07643590" lon="8.848972990">
        <ele>772.00000</ele>
        <time>2010-01-01T06:34:46Z</time>
      </trkpt>
      <trkpt lat="48.07607790" lon="8.849237020">
        <ele>769.00000</ele>
        <time>2010-01-01T06:35:26Z</time>
      </trkpt>
      <trkpt lat="48.07607790" lon="8.849245980">
        <ele>770.00000</ele>
        <time>2010-01-01T06:35:27Z</time>
      </trkpt>
      <trkpt lat="48.07563190" lon="8.849435000">
        <ele>767.00000</ele>
        <time>2010-01-01T06:36:13Z</time>
      </trkpt>
      <trkpt lat="48.07562500" lon="8.849435000">
        <ele>766.00000</ele>
        <time>2010-01-01T06:36:14Z</time>
      </trkpt>
      <trkpt lat="48.07538590" lon="8.849518980">
        <ele>764.00000</ele>
        <time>2010-01-01T06:36:39Z</time>
      </trkpt>
      <trkpt lat="48.07538000" lon="8.849528960">
        <ele>764.00000</ele>
        <time>2010-01-01T06:36:39Z</time>
      </trkpt>
      <trkpt lat="48.07490200" lon="8.849876970">
        <ele>760.00000</ele>
        <time>2010-01-01T06:37:33Z</time>
      </trkpt>
      <trkpt lat="48.07490200" lon="8.849886030">
        <ele>761.00000</ele>
        <time>2010-01-01T06:37:33Z</time>
      </trkpt>
      <trkpt lat="48.07442390" lon="8.850337980">
        <ele>760.00000</ele>
        <time>2010-01-01T06:38:30Z</time>
      </trkpt>
      <trkpt lat="48.07378690" lon="8.851124030">
        <ele>756.00000</ele>
        <time>2010-01-01T06:39:52Z</time>
      </trkpt>
      <trkpt lat="48.07336500" lon="8.851594010">
        <ele>751.00000</ele>
        <time>2010-01-01T06:40:45Z</time>
      </trkpt>
      <trkpt lat="48.07296300" lon="8.852045960">
        <ele>753.00000</ele>
        <time>2010-01-01T06:41:35Z</time>
      </trkpt>
      <trkpt lat="48.07296300" lon="8.852064990">
        <ele>754.00000</ele>
        <time>2010-01-01T06:41:37Z</time>
      </trkpt>
      <trkpt lat="48.07268600" lon="8.852337980">
        <ele>750.00000</ele>
        <time>2010-01-01T06:42:10Z</time>
      </trkpt>
      <trkpt lat="48.07237200" lon="8.852620040">
        <ele>748.00000</ele>
        <time>2010-01-01T06:42:46Z</time>
      </trkpt>
      <trkpt lat="48.07225900" lon="8.852714000">
        <ele>748.00000</ele>
        <time>2010-01-01T06:42:59Z</time>
      </trkpt>
      <trkpt lat="48.07210100" lon="8.852987000">
        <ele>750.00000</ele>
        <time>2010-01-01T06:43:24Z</time>
      </trkpt>
      <trkpt lat="48.07210100" lon="8.852996970">
        <ele>751.00000</ele>
        <time>2010-01-01T06:43:24Z</time>
      </trkpt>
      <trkpt lat="48.07170800" lon="8.853471970">
        <ele>748.00000</ele>
        <time>2010-01-01T06:44:15Z</time>
      </trkpt>
      <trkpt lat="48.07168300" lon="8.853659980">
        <ele>753.00000</ele>
        <time>2010-01-01T06:44:28Z</time>
      </trkpt>
      <trkpt lat="48.07151290" lon="8.853754020">
        <ele>752.00000</ele>
        <time>2010-01-01T06:44:46Z</time>
      </trkpt>
      <trkpt lat="48.07150090" lon="8.853764000">
        <ele>752.00000</ele>
        <time>2010-01-01T06:44:47Z</time>
      </trkpt>
      <trkpt lat="48.07119300" lon="8.854120980">
        <ele>749.00000</ele>
        <time>2010-01-01T06:45:26Z</time>
      </trkpt>
      <trkpt lat="48.07118000" lon="8.854158950">
        <ele>749.00000</ele>
        <time>2010-01-01T06:45:29Z</time>
      </trkpt>
      <trkpt lat="48.07075290" lon="8.854807960">
        <ele>749.00000</ele>
        <time>2010-01-01T06:46:30Z</time>
      </trkpt>
      <trkpt lat="48.07073990" lon="8.854818020">
        <ele>749.00000</ele>
        <time>2010-01-01T06:46:31Z</time>
      </trkpt>
      <trkpt lat="48.07044400" lon="8.855251030">
        <ele>750.00000</ele>
        <time>2010-01-01T06:47:13Z</time>
      </trkpt>
      <trkpt lat="48.07014300" lon="8.855552030">
        <ele>746.00000</ele>
        <time>2010-01-01T06:47:49Z</time>
      </trkpt>
      <trkpt lat="48.06977790" lon="8.855843970">
        <ele>741.00000</ele>
        <time>2010-01-01T06:48:30Z</time>
      </trkpt>
      <trkpt lat="48.06946400" lon="8.855956030">
        <ele>739.00000</ele>
        <time>2010-01-01T06:49:03Z</time>
      </trkpt>
      <trkpt lat="48.06908690" lon="8.856144960">
        <ele>738.00000</ele>
        <time>2010-01-01T06:49:43Z</time>
      </trkpt>
      <trkpt lat="48.06895390" lon="8.856239010">
        <ele>738.00000</ele>
        <time>2010-01-01T06:49:57Z</time>
      </trkpt>
      <trkpt lat="48.06894800" lon="8.856239010">
        <ele>738.00000</ele>
        <time>2010-01-01T06:49:58Z</time>
      </trkpt>
      <trkpt lat="48.06890400" lon="8.856342020">
        <ele>738.00000</ele>
        <time>2010-01-01T06:50:06Z</time>
      </trkpt>
      <trkpt lat="48.06890400" lon="8.856360960">
        <ele>739.00000</ele>
        <time>2010-01-01T06:50:07Z</time>
      </trkpt>
      <trkpt lat="48.06887900" lon="8.856633960">
        <ele>742.00000</ele>
        <time>2010-01-01T06:50:26Z</time>
      </trkpt>
      <trkpt lat="48.06887900" lon="8.856643010">
        <ele>742.00000</ele>
        <time>2010-01-01T06:50:26Z</time>
      </trkpt>
      <trkpt lat="48.06884090" lon="8.856896990">
        <ele>744.00000</ele>
        <time>2010-01-01T06:50:44Z</time>
      </trkpt>
      <trkpt lat="48.06877190" lon="8.856973010">
        <ele>744.00000</ele>
        <time>2010-01-01T06:50:52Z</time>
      </trkpt>
      <trkpt lat="48.06867800" lon="8.857020030">
        <ele>743.00000</ele>
        <time>2010-01-01T06:51:02Z</time>
      </trkpt>
      <trkpt lat="48.06867800" lon="8.857029000">
        <ele>743.00000</ele>
        <time>2010-01-01T06:51:03Z</time>
      </trkpt>
      <trkpt lat="48.06859000" lon="8.857020030">
        <ele>741.00000</ele>
        <time>2010-01-01T06:51:12Z</time>
      </trkpt>
      <trkpt lat="48.06853300" lon="8.857001010">
        <ele>740.00000</ele>
        <time>2010-01-01T06:51:17Z</time>
      </trkpt>
      <trkpt lat="48.06846990" lon="8.856945010">
        <ele>739.00000</ele>
        <time>2010-01-01T06:51:25Z</time>
      </trkpt>
      <trkpt lat="48.06829390" lon="8.856992040">
        <ele>737.00000</ele>
        <time>2010-01-01T06:51:43Z</time>
      </trkpt>
      <trkpt lat="48.06828800" lon="8.856992040">
        <ele>737.00000</ele>
        <time>2010-01-01T06:51:43Z</time>
      </trkpt>
      <trkpt lat="48.06779090" lon="8.857169980">
        <ele>741.00000</ele>
        <time>2010-01-01T06:52:34Z</time>
      </trkpt>
      <trkpt lat="48.06778500" lon="8.857169980">
        <ele>741.00000</ele>
        <time>2010-01-01T06:52:35Z</time>
      </trkpt>
      <trkpt lat="48.06753290" lon="8.857226980">
        <ele>744.00000</ele>
        <time>2010-01-01T06:53:01Z</time>
      </trkpt>
      <trkpt lat="48.06721890" lon="8.857179960">
        <ele>746.00000</ele>
        <time>2010-01-01T06:53:32Z</time>
      </trkpt>
      <trkpt lat="48.06650890" lon="8.856992040">
        <ele>744.00000</ele>
        <time>2010-01-01T06:54:44Z</time>
      </trkpt>
      <trkpt lat="48.06617500" lon="8.857086000">
        <ele>747.00000</ele>
        <time>2010-01-01T06:55:18Z</time>
      </trkpt>
      <trkpt lat="48.06612490" lon="8.857086000">
        <ele>747.00000</ele>
        <time>2010-01-01T06:55:23Z</time>
      </trkpt>
      <trkpt lat="48.06610000" lon="8.857076020">
        <ele>746.00000</ele>
        <time>2010-01-01T06:55:26Z</time>
      </trkpt>
      <trkpt lat="48.06573490" lon="8.857057000">
        <ele>744.00000</ele>
        <time>2010-01-01T06:56:02Z</time>
      </trkpt>
      <trkpt lat="48.06572900" lon="8.857048030">
        <ele>744.00000</ele>
        <time>2010-01-01T06:56:03Z</time>
      </trkpt>
      <trkpt lat="48.06529500" lon="8.856953980">
        <ele>739.00000</ele>
        <time>2010-01-01T06:56:47Z</time>
      </trkpt>
      <trkpt lat="48.06527590" lon="8.856953980">
        <ele>739.00000</ele>
        <time>2010-01-01T06:56:49Z</time>
      </trkpt>
      <trkpt lat="48.06508100" lon="8.856963040">
        <ele>739.00000</ele>
        <time>2010-01-01T06:57:09Z</time>
      </trkpt>
      <trkpt lat="48.06507490" lon="8.856963040">
        <ele>739.00000</ele>
        <time>2010-01-01T06:57:09Z</time>
      </trkpt>
      <trkpt lat="48.06477290" lon="8.857029000">
        <ele>739.00000</ele>
        <time>2010-01-01T06:57:40Z</time>
      </trkpt>
      <trkpt lat="48.06436400" lon="8.857198990">
        <ele>738.00000</ele>
        <time>2010-01-01T06:58:22Z</time>
      </trkpt>
      <trkpt lat="48.06436400" lon="8.857207950">
        <ele>738.00000</ele>
        <time>2010-01-01T06:58:23Z</time>
      </trkpt>
      <trkpt lat="48.06417600" lon="8.857293030">
        <ele>737.00000</ele>
        <time>2010-01-01T06:58:42Z</time>
      </trkpt>
      <trkpt lat="48.06416890" lon="8.857293030">
        <ele>737.00000</ele>
        <time>2010-01-01T06:58:43Z</time>
      </trkpt>
      <trkpt lat="48.06396790" lon="8.857490010">
        <ele>735.00000</ele>
        <time>2010-01-01T06:59:07Z</time>
      </trkpt>
      <trkpt lat="48.06346900" lon="8.858022000">
        <ele>731.00000</ele>
        <time>2010-01-01T07:00:09Z</time>
      </trkpt>
      <trkpt lat="48.06321690" lon="8.858444960">
        <ele>731.00000</ele>
        <time>2010-01-01T07:00:46Z</time>
      </trkpt>
      <trkpt lat="48.06304100" lon="8.858623990">
        <ele>731.00000</ele>
        <time>2010-01-01T07:01:08Z</time>
      </trkpt>
      <trkpt lat="48.06288390" lon="8.858792970">
        <ele>730.00000</ele>
        <time>2010-01-01T07:01:27Z</time>
      </trkpt>
      <trkpt lat="48.06287800" lon="8.858803030">
        <ele>730.00000</ele>
        <time>2010-01-01T07:01:28Z</time>
      </trkpt>
      <trkpt lat="48.06278990" lon="8.858991040">
        <ele>730.00000</ele>
        <time>2010-01-01T07:01:43Z</time>
      </trkpt>
      <trkpt lat="48.06271390" lon="8.859292030">
        <ele>732.00000</ele>
        <time>2010-01-01T07:02:05Z</time>
      </trkpt>
      <trkpt lat="48.06270800" lon="8.859282980">
        <ele>732.00000</ele>
        <time>2010-01-01T07:02:06Z</time>
      </trkpt>
      <trkpt lat="48.06236790" lon="8.859734010">
        <ele>729.00000</ele>
        <time>2010-01-01T07:02:51Z</time>
      </trkpt>
      <trkpt lat="48.06212290" lon="8.859997950">
        <ele>726.00000</ele>
        <time>2010-01-01T07:03:21Z</time>
      </trkpt>
      <trkpt lat="48.06180890" lon="8.860327030">
        <ele>729.00000</ele>
        <time>2010-01-01T07:04:00Z</time>
      </trkpt>
      <trkpt lat="48.06126190" lon="8.860646970">
        <ele>728.00000</ele>
        <time>2010-01-01T07:04:59Z</time>
      </trkpt>
      <trkpt lat="48.06030600" lon="8.861211990">
        <ele>723.00000</ele>
        <time>2010-01-01T07:06:41Z</time>
      </trkpt>
      <trkpt lat="48.06029990" lon="8.861211990">
        <ele>723.00000</ele>
        <time>2010-01-01T07:06:42Z</time>
      </trkpt>
      <trkpt lat="48.06007300" lon="8.861277030">
        <ele>720.00000</ele>
        <time>2010-01-01T07:07:05Z</time>
      </trkpt>
      <trkpt lat="48.06005390" lon="8.861287010">
        <ele>719.00000</ele>
        <time>2010-01-01T07:07:07Z</time>
      </trkpt>
      <trkpt lat="48.05969000" lon="8.861436960">
        <ele>717.00000</ele>
        <time>2010-01-01T07:07:45Z</time>
      </trkpt>
      <trkpt lat="48.05968290" lon="8.861447020">
        <ele>717.00000</ele>
        <time>2010-01-01T07:07:46Z</time>
      </trkpt>
      <trkpt lat="48.05921200" lon="8.861709960">
        <ele>714.00000</ele>
        <time>2010-01-01T07:08:36Z</time>
      </trkpt>
      <trkpt lat="48.05885990" lon="8.861841970">
        <ele>717.00000</ele>
        <time>2010-01-01T07:09:13Z</time>
      </trkpt>
      <trkpt lat="48.05796690" lon="8.862021010">
        <ele>723.00000</ele>
        <time>2010-01-01T07:10:43Z</time>
      </trkpt>
      <trkpt lat="48.05796690" lon="8.862029980">
        <ele>723.00000</ele>
        <time>2010-01-01T07:10:43Z</time>
      </trkpt>
      <trkpt lat="48.05770300" lon="8.862049010">
        <ele>724.00000</ele>
        <time>2010-01-01T07:11:10Z</time>
      </trkpt>
      <trkpt lat="48.05769690" lon="8.862049010">
        <ele>724.00000</ele>
        <time>2010-01-01T07:11:10Z</time>
      </trkpt>
      <trkpt lat="48.05747600" lon="8.862049010">
        <ele>724.00000</ele>
        <time>2010-01-01T07:11:32Z</time>
      </trkpt>
      <trkpt lat="48.05747000" lon="8.862049010">
        <ele>724.00000</ele>
        <time>2010-01-01T07:11:33Z</time>
      </trkpt>
      <trkpt lat="48.05701100" lon="8.862011040">
        <ele>722.00000</ele>
        <time>2010-01-01T07:12:19Z</time>
      </trkpt>
      <trkpt lat="48.05700490" lon="8.862021010">
        <ele>723.00000</ele>
        <time>2010-01-01T07:12:20Z</time>
      </trkpt>
      <trkpt lat="48.05679090" lon="8.862057980">
        <ele>723.00000</ele>
        <time>2010-01-01T07:12:42Z</time>
      </trkpt>
      <trkpt lat="48.05653290" lon="8.862142970">
        <ele>724.00000</ele>
        <time>2010-01-01T07:13:08Z</time>
      </trkpt>
      <trkpt lat="48.05592300" lon="8.862142970">
        <ele>717.00000</ele>
        <time>2010-01-01T07:14:09Z</time>
      </trkpt>
      <trkpt lat="48.05583300" lon="8.862175990">
        <ele>717.00000</ele>
        <time>2010-01-01T07:14:18Z</time>
      </trkpt>
      <trkpt lat="48.05440490" lon="8.863106970">
        <ele>719.00000</ele>
        <time>2010-01-01T07:16:54Z</time>
      </trkpt>
      <trkpt lat="48.05416600" lon="8.863248960">
        <ele>718.00000</ele>
        <time>2010-01-01T07:17:20Z</time>
      </trkpt>
      <trkpt lat="48.05352490" lon="8.863511980">
        <ele>715.00000</ele>
        <time>2010-01-01T07:18:26Z</time>
      </trkpt>
      <trkpt lat="48.05351190" lon="8.863521040">
        <ele>715.00000</ele>
        <time>2010-01-01T07:18:28Z</time>
      </trkpt>
      <trkpt lat="48.05297790" lon="8.863765960">
        <ele>714.00000</ele>
        <time>2010-01-01T07:19:24Z</time>
      </trkpt>
      <trkpt lat="48.05297790" lon="8.863775010">
        <ele>714.00000</ele>
        <time>2010-01-01T07:19:24Z</time>
      </trkpt>
      <trkpt lat="48.05265700" lon="8.863964020">
        <ele>713.00000</ele>
        <time>2010-01-01T07:19:59Z</time>
      </trkpt>
      <trkpt lat="48.05221990" lon="8.864279010">
        <ele>713.00000</ele>
        <time>2010-01-01T07:20:47Z</time>
      </trkpt>
      <trkpt lat="48.05194390" lon="8.864410020">
        <ele>710.00000</ele>
        <time>2010-01-01T07:21:16Z</time>
      </trkpt>
      <trkpt lat="48.05194390" lon="8.864420000">
        <ele>711.00000</ele>
        <time>2010-01-01T07:21:17Z</time>
      </trkpt>
      <trkpt lat="48.05154090" lon="8.864570030">
        <ele>706.00000</ele>
        <time>2010-01-01T07:21:59Z</time>
      </trkpt>
      <trkpt lat="48.05154090" lon="8.864580010">
        <ele>706.00000</ele>
        <time>2010-01-01T07:21:59Z</time>
      </trkpt>
      <trkpt lat="48.05137090" lon="8.864729960">
        <ele>706.00000</ele>
        <time>2010-01-01T07:22:19Z</time>
      </trkpt>
      <trkpt lat="48.05123300" lon="8.865088030">
        <ele>711.00000</ele>
        <time>2010-01-01T07:22:47Z</time>
      </trkpt>
      <trkpt lat="48.05123300" lon="8.865097000">
        <ele>711.00000</ele>
        <time>2010-01-01T07:22:47Z</time>
      </trkpt>
      <trkpt lat="48.05119490" lon="8.865247960">
        <ele>714.00000</ele>
        <time>2010-01-01T07:22:58Z</time>
      </trkpt>
      <trkpt lat="48.05118900" lon="8.865265980">
        <ele>714.00000</ele>
        <time>2010-01-01T07:22:59Z</time>
      </trkpt>
      <trkpt lat="48.05111400" lon="8.865389030">
        <ele>717.00000</ele>
        <time>2010-01-01T07:23:11Z</time>
      </trkpt>
      <trkpt lat="48.05079900" lon="8.865172020">
        <ele>707.00000</ele>
        <time>2010-01-01T07:23:45Z</time>
      </trkpt>
      <trkpt lat="48.05079290" lon="8.865172020">
        <ele>707.00000</ele>
        <time>2010-01-01T07:23:46Z</time>
      </trkpt>
      <trkpt lat="48.05063590" lon="8.865105970">
        <ele>704.00000</ele>
        <time>2010-01-01T07:24:02Z</time>
      </trkpt>
      <trkpt lat="48.05062900" lon="8.865105970">
        <ele>703.00000</ele>
        <time>2010-01-01T07:24:03Z</time>
      </trkpt>
      <trkpt lat="48.05047200" lon="8.865097000">
        <ele>702.00000</ele>
        <time>2010-01-01T07:24:19Z</time>
      </trkpt>
      <trkpt lat="48.05010800" lon="8.865097000">
        <ele>698.00000</ele>
        <time>2010-01-01T07:24:55Z</time>
      </trkpt>
      <trkpt lat="48.04960500" lon="8.865209990">
        <ele>698.00000</ele>
        <time>2010-01-01T07:25:46Z</time>
      </trkpt>
      <trkpt lat="48.04917090" lon="8.865322980">
        <ele>699.00000</ele>
        <time>2010-01-01T07:26:30Z</time>
      </trkpt>
      <trkpt lat="48.04916400" lon="8.865332030">
        <ele>699.00000</ele>
        <time>2010-01-01T07:26:31Z</time>
      </trkpt>
      <trkpt lat="48.04845400" lon="8.865417020">
        <ele>700.00000</ele>
        <time>2010-01-01T07:27:42Z</time>
      </trkpt>
      <trkpt lat="48.04801990" lon="8.865473010">
        <ele>697.00000</ele>
        <time>2010-01-01T07:28:26Z</time>
      </trkpt>
      <trkpt lat="48.04784390" lon="8.865530010">
        <ele>696.00000</ele>
        <time>2010-01-01T07:28:44Z</time>
      </trkpt>
      <trkpt lat="48.04762400" lon="8.865747020">
        <ele>696.00000</ele>
        <time>2010-01-01T07:29:10Z</time>
      </trkpt>
      <trkpt lat="48.04761790" lon="8.865755990">
        <ele>696.00000</ele>
        <time>2010-01-01T07:29:11Z</time>
      </trkpt>
      <trkpt lat="48.04736600" lon="8.866076010">
        <ele>696.00000</ele>
        <time>2010-01-01T07:29:44Z</time>
      </trkpt>
      <trkpt lat="48.04736600" lon="8.866084980">
        <ele>696.00000</ele>
        <time>2010-01-01T07:29:45Z</time>
      </trkpt>
      <trkpt lat="48.04721490" lon="8.866424020">
        <ele>698.00000</ele>
        <time>2010-01-01T07:30:12Z</time>
      </trkpt>
      <trkpt lat="48.04680000" lon="8.867110000">
        <ele>694.00000</ele>
        <time>2010-01-01T07:31:14Z</time>
      </trkpt>
      <trkpt lat="48.04617790" lon="8.867824980">
        <ele>692.00000</ele>
        <time>2010-01-01T07:32:32Z</time>
      </trkpt>
      <trkpt lat="48.04617790" lon="8.867835030">
        <ele>692.00000</ele>
        <time>2010-01-01T07:32:33Z</time>
      </trkpt>
      <trkpt lat="48.04529790" lon="8.868746990">
        <ele>688.00000</ele>
        <time>2010-01-01T07:34:20Z</time>
      </trkpt>
      <trkpt lat="48.04436090" lon="8.869800000">
        <ele>685.00000</ele>
        <time>2010-01-01T07:36:18Z</time>
      </trkpt>
      <trkpt lat="48.04379190" lon="8.870358990">
        <ele>684.00000</ele>
        <time>2010-01-01T07:37:26Z</time>
      </trkpt>
      <trkpt lat="48.04359090" lon="8.870856960">
        <ele>689.00000</ele>
        <time>2010-01-01T07:38:05Z</time>
      </trkpt>
      <trkpt lat="48.04333990" lon="8.871364990">
        <ele>699.00000</ele>
        <time>2010-01-01T07:38:47Z</time>
      </trkpt>
      <trkpt lat="48.04308800" lon="8.871977040">
        <ele>712.00000</ele>
        <time>2010-01-01T07:39:35Z</time>
      </trkpt>
      <trkpt lat="48.04284900" lon="8.872380960">
        <ele>719.00000</ele>
        <time>2010-01-01T07:40:11Z</time>
      </trkpt>
      <trkpt lat="48.04243390" lon="8.872916980">
        <ele>720.00000</ele>
        <time>2010-01-01T07:41:06Z</time>
      </trkpt>
      <trkpt lat="48.04243390" lon="8.872926960">
        <ele>721.00000</ele>
        <time>2010-01-01T07:41:07Z</time>
      </trkpt>
      <trkpt lat="48.04217000" lon="8.873274970">
        <ele>720.00000</ele>
        <time>2010-01-01T07:41:42Z</time>
      </trkpt>
      <trkpt lat="48.04175500" lon="8.873565990">
        <ele>710.00000</ele>
        <time>2010-01-01T07:42:28Z</time>
      </trkpt>
      <trkpt lat="48.04142790" lon="8.873858020">
        <ele>706.00000</ele>
        <time>2010-01-01T07:43:06Z</time>
      </trkpt>
      <trkpt lat="48.04141000" lon="8.873876960">
        <ele>706.00000</ele>
        <time>2010-01-01T07:43:08Z</time>
      </trkpt>
      <trkpt lat="48.04122100" lon="8.873942010">
        <ele>702.00000</ele>
        <time>2010-01-01T07:43:27Z</time>
      </trkpt>
      <trkpt lat="48.04120190" lon="8.873979980">
        <ele>703.00000</ele>
        <time>2010-01-01T07:43:31Z</time>
      </trkpt>
      <trkpt lat="48.04101290" lon="8.874148950">
        <ele>702.00000</ele>
        <time>2010-01-01T07:43:53Z</time>
      </trkpt>
      <trkpt lat="48.04101290" lon="8.874177960">
        <ele>703.00000</ele>
        <time>2010-01-01T07:43:54Z</time>
      </trkpt>
      <trkpt lat="48.04072390" lon="8.874543990">
        <ele>706.00000</ele>
        <time>2010-01-01T07:44:32Z</time>
      </trkpt>
      <trkpt lat="48.04046590" lon="8.874921010">
        <ele>711.00000</ele>
        <time>2010-01-01T07:45:08Z</time>
      </trkpt>
      <trkpt lat="48.04047300" lon="8.874921010">
        <ele>711.00000</ele>
        <time>2010-01-01T07:45:09Z</time>
      </trkpt>
      <trkpt lat="48.04008900" lon="8.875418980">
        <ele>716.00000</ele>
        <time>2010-01-01T07:46:00Z</time>
      </trkpt>
      <trkpt lat="48.04008300" lon="8.875438010">
        <ele>717.00000</ele>
        <time>2010-01-01T07:46:01Z</time>
      </trkpt>
      <trkpt lat="48.03970490" lon="8.876076960">
        <ele>728.00000</ele>
        <time>2010-01-01T07:46:59Z</time>
      </trkpt>
      <trkpt lat="48.03903300" lon="8.876566970">
        <ele>731.00000</ele>
        <time>2010-01-01T07:48:13Z</time>
      </trkpt>
      <trkpt lat="48.03857400" lon="8.876914980">
        <ele>732.00000</ele>
        <time>2010-01-01T07:49:05Z</time>
      </trkpt>
      <trkpt lat="48.03856200" lon="8.876914980">
        <ele>732.00000</ele>
        <time>2010-01-01T07:49:06Z</time>
      </trkpt>
      <trkpt lat="48.03817200" lon="8.877168950">
        <ele>729.00000</ele>
        <time>2010-01-01T07:49:49Z</time>
      </trkpt>
      <trkpt lat="48.03813990" lon="8.877186980">
        <ele>729.00000</ele>
        <time>2010-01-01T07:49:52Z</time>
      </trkpt>
      <trkpt lat="48.03789490" lon="8.877413040">
        <ele>728.00000</ele>
        <time>2010-01-01T07:50:21Z</time>
      </trkpt>
      <trkpt lat="48.03788900" lon="8.877441030">
        <ele>729.00000</ele>
        <time>2010-01-01T07:50:23Z</time>
      </trkpt>
      <trkpt lat="48.03765600" lon="8.877723000">
        <ele>727.00000</ele>
        <time>2010-01-01T07:50:53Z</time>
      </trkpt>
      <trkpt lat="48.03705300" lon="8.877835990">
        <ele>711.00000</ele>
        <time>2010-01-01T07:51:54Z</time>
      </trkpt>
      <trkpt lat="48.03669400" lon="8.877940010">
        <ele>704.00000</ele>
        <time>2010-01-01T07:52:30Z</time>
      </trkpt>
      <trkpt lat="48.03669400" lon="8.877948970">
        <ele>704.00000</ele>
        <time>2010-01-01T07:52:31Z</time>
      </trkpt>
      <trkpt lat="48.03590790" lon="8.878532020">
        <ele>698.00000</ele>
        <time>2010-01-01T07:53:59Z</time>
      </trkpt>
      <trkpt lat="48.03573190" lon="8.878550960">
        <ele>693.00000</ele>
        <time>2010-01-01T07:54:16Z</time>
      </trkpt>
      <trkpt lat="48.03572600" lon="8.878550960">
        <ele>693.00000</ele>
        <time>2010-01-01T07:54:17Z</time>
      </trkpt>
      <trkpt lat="48.03558100" lon="8.878607960">
        <ele>690.00000</ele>
        <time>2010-01-01T07:54:32Z</time>
      </trkpt>
      <trkpt lat="48.03556900" lon="8.878635950">
        <ele>690.00000</ele>
        <time>2010-01-01T07:54:34Z</time>
      </trkpt>
      <trkpt lat="48.03545500" lon="8.878805020">
        <ele>689.00000</ele>
        <time>2010-01-01T07:54:50Z</time>
      </trkpt>
      <trkpt lat="48.03545500" lon="8.878813990">
        <ele>689.00000</ele>
        <time>2010-01-01T07:54:51Z</time>
      </trkpt>
      <trkpt lat="48.03555600" lon="8.879482020">
        <ele>694.00000</ele>
        <time>2010-01-01T07:55:37Z</time>
      </trkpt>
      <trkpt lat="48.03566290" lon="8.880470000">
        <ele>690.00000</ele>
        <time>2010-01-01T07:56:44Z</time>
      </trkpt>
      <trkpt lat="48.03590790" lon="8.881343980">
        <ele>688.00000</ele>
        <time>2010-01-01T07:57:47Z</time>
      </trkpt>
      <trkpt lat="48.03593300" lon="8.881371980">
        <ele>689.00000</ele>
        <time>2010-01-01T07:57:50Z</time>
      </trkpt>
      <trkpt lat="48.03594600" lon="8.881400980">
        <ele>689.00000</ele>
        <time>2010-01-01T07:57:52Z</time>
      </trkpt>
      <trkpt lat="48.03615290" lon="8.882237990">
        <ele>686.00000</ele>
        <time>2010-01-01T07:58:52Z</time>
      </trkpt>
      <trkpt lat="48.03617790" lon="8.882274960">
        <ele>687.00000</ele>
        <time>2010-01-01T07:58:56Z</time>
      </trkpt>
      <trkpt lat="48.03635490" lon="8.882867980">
        <ele>687.00000</ele>
        <time>2010-01-01T07:59:39Z</time>
      </trkpt>
      <trkpt lat="48.03636100" lon="8.882867980">
        <ele>687.00000</ele>
        <time>2010-01-01T07:59:40Z</time>
      </trkpt>
      <trkpt lat="48.03636690" lon="8.882951960">
        <ele>686.00000</ele>
        <time>2010-01-01T07:59:45Z</time>
      </trkpt>
      <trkpt lat="48.03636690" lon="8.882962020">
        <ele>686.00000</ele>
        <time>2010-01-01T07:59:46Z</time>
      </trkpt>
      <trkpt lat="48.03630400" lon="8.883046010">
        <ele>683.00000</ele>
        <time>2010-01-01T07:59:55Z</time>
      </trkpt>
      <trkpt lat="48.03592390" lon="8.883473990">
        <ele>669.00000</ele>
        <time>2010-01-01T08:00:42Z</time>
      </trkpt>
      <trkpt lat="48.03592390" lon="8.883483960">
        <ele>669.00000</ele>
        <time>2010-01-01T08:00:43Z</time>
      </trkpt>
      <trkpt lat="48.03556590" lon="8.883887970">
        <ele>662.00000</ele>
        <time>2010-01-01T08:01:28Z</time>
      </trkpt>
      <trkpt lat="48.03556590" lon="8.883897020">
        <ele>662.00000</ele>
        <time>2010-01-01T08:01:28Z</time>
      </trkpt>
      <trkpt lat="48.03517590" lon="8.884320980">
        <ele>657.00000</ele>
        <time>2010-01-01T08:02:17Z</time>
      </trkpt>
      <trkpt lat="48.03486090" lon="8.884667990">
        <ele>653.00000</ele>
        <time>2010-01-01T08:02:56Z</time>
      </trkpt>
      <trkpt lat="48.03486090" lon="8.884677970">
        <ele>653.00000</ele>
        <time>2010-01-01T08:02:56Z</time>
      </trkpt>
      <trkpt lat="48.03455290" lon="8.885016010">
        <ele>649.00000</ele>
        <time>2010-01-01T08:03:35Z</time>
      </trkpt>
      <trkpt lat="48.03454700" lon="8.885016010">
        <ele>649.00000</ele>
        <time>2010-01-01T08:03:35Z</time>
      </trkpt>
      <trkpt lat="48.03416990" lon="8.885581030">
        <ele>645.00000</ele>
        <time>2010-01-01T08:04:29Z</time>
      </trkpt>
      <trkpt lat="48.03415690" lon="8.885590000">
        <ele>645.00000</ele>
        <time>2010-01-01T08:04:30Z</time>
      </trkpt>
      <trkpt lat="48.03407500" lon="8.885722020">
        <ele>644.00000</ele>
        <time>2010-01-01T08:04:42Z</time>
      </trkpt>
      <trkpt lat="48.03353190" lon="8.886647960">
        <ele>640.00000</ele>
        <time>2010-01-01T08:06:05Z</time>
      </trkpt>
      <trkpt lat="48.03322990" lon="8.887192960">
        <ele>639.00000</ele>
        <time>2010-01-01T08:06:52Z</time>
      </trkpt>
      <trkpt lat="48.03321300" lon="8.887246010">
        <ele>638.00000</ele>
        <time>2010-01-01T08:06:56Z</time>
      </trkpt>
      <trkpt lat="48.03321300" lon="8.887527980">
        <ele>638.00000</ele>
        <time>2010-01-01T08:07:15Z</time>
      </trkpt>
      <trkpt lat="48.03342090" lon="8.887838030">
        <ele>638.00000</ele>
        <time>2010-01-01T08:07:44Z</time>
      </trkpt>
      <trkpt lat="48.03361600" lon="8.888168020">
        <ele>638.00000</ele>
        <time>2010-01-01T08:08:14Z</time>
      </trkpt>
      <trkpt lat="48.03362800" lon="8.888176990">
        <ele>638.00000</ele>
        <time>2010-01-01T08:08:15Z</time>
      </trkpt>
      <trkpt lat="48.03394890" lon="8.888826000">
        <ele>635.00000</ele>
        <time>2010-01-01T08:09:09Z</time>
      </trkpt>
      <trkpt lat="48.03449590" lon="8.889776010">
        <ele>634.00000</ele>
        <time>2010-01-01T08:10:33Z</time>
      </trkpt>
      <trkpt lat="48.03465300" lon="8.890039030">
        <ele>635.00000</ele>
        <time>2010-01-01T08:10:56Z</time>
      </trkpt>
      <trkpt lat="48.03465990" lon="8.890039030">
        <ele>635.00000</ele>
        <time>2010-01-01T08:10:57Z</time>
      </trkpt>
      <trkpt lat="48.03478490" lon="8.890329970">
        <ele>635.00000</ele>
        <time>2010-01-01T08:11:20Z</time>
      </trkpt>
      <trkpt lat="48.03495500" lon="8.890790970">
        <ele>634.00000</ele>
        <time>2010-01-01T08:11:55Z</time>
      </trkpt>
      <trkpt lat="48.03496190" lon="8.890801030">
        <ele>634.00000</ele>
        <time>2010-01-01T08:11:56Z</time>
      </trkpt>
      <trkpt lat="48.03504290" lon="8.891035970">
        <ele>634.00000</ele>
        <time>2010-01-01T08:12:14Z</time>
      </trkpt>
      <trkpt lat="48.03520090" lon="8.891261030">
        <ele>635.00000</ele>
        <time>2010-01-01T08:12:36Z</time>
      </trkpt>
      <trkpt lat="48.03520090" lon="8.891271000">
        <ele>635.00000</ele>
        <time>2010-01-01T08:12:37Z</time>
      </trkpt>
      <trkpt lat="48.03552800" lon="8.891506030">
        <ele>636.00000</ele>
        <time>2010-01-01T08:13:13Z</time>
      </trkpt>
      <trkpt lat="48.03579090" lon="8.891637960">
        <ele>637.00000</ele>
        <time>2010-01-01T08:13:41Z</time>
      </trkpt>
      <trkpt lat="48.03614990" lon="8.891740980">
        <ele>639.00000</ele>
        <time>2010-01-01T08:14:17Z</time>
      </trkpt>
      <trkpt lat="48.03677190" lon="8.891956980">
        <ele>643.00000</ele>
        <time>2010-01-01T08:15:21Z</time>
      </trkpt>
      <trkpt lat="48.03677900" lon="8.891956980">
        <ele>643.00000</ele>
        <time>2010-01-01T08:15:22Z</time>
      </trkpt>
      <trkpt lat="48.03733190" lon="8.892080020">
        <ele>648.00000</ele>
        <time>2010-01-01T08:16:18Z</time>
      </trkpt>
      <trkpt lat="48.03733190" lon="8.892409010">
        <ele>650.00000</ele>
        <time>2010-01-01T08:16:40Z</time>
      </trkpt>
      <trkpt lat="48.03743290" lon="8.892710010">
        <ele>651.00000</ele>
        <time>2010-01-01T08:17:02Z</time>
      </trkpt>
      <trkpt lat="48.03764000" lon="8.893339990">
        <ele>658.00000</ele>
        <time>2010-01-01T08:17:49Z</time>
      </trkpt>
      <trkpt lat="48.03784200" lon="8.893960000">
        <ele>666.00000</ele>
        <time>2010-01-01T08:18:36Z</time>
      </trkpt>
      <trkpt lat="48.03795500" lon="8.894449000">
        <ele>674.00000</ele>
        <time>2010-01-01T08:19:10Z</time>
      </trkpt>
      <trkpt lat="48.03815600" lon="8.895361960">
        <ele>689.00000</ele>
        <time>2010-01-01T08:20:14Z</time>
      </trkpt>
      <trkpt lat="48.03824400" lon="8.896141980">
        <ele>699.00000</ele>
        <time>2010-01-01T08:21:07Z</time>
      </trkpt>
      <trkpt lat="48.03837600" lon="8.896105010">
        <ele>708.00000</ele>
        <time>2010-01-01T08:21:21Z</time>
      </trkpt>
      <trkpt lat="48.03844500" lon="8.896640950">
        <ele>717.00000</ele>
        <time>2010-01-01T08:21:57Z</time>
      </trkpt>
      <trkpt lat="48.03875000" lon="8.896123960">
        <ele>734.00000</ele>
        <time>2010-01-01T08:22:43Z</time>
      </trkpt>
      <trkpt lat="48.03879100" lon="8.896399970">
        <ele>740.00000</ele>
        <time>2010-01-01T08:23:02Z</time>
      </trkpt>
      <trkpt lat="48.03876790" lon="8.896741960">
        <ele>741.00000</ele>
        <time>2010-01-01T08:23:25Z</time>
      </trkpt>
      <trkpt lat="48.03875490" lon="8.897064990">
        <ele>743.00000</ele>
        <time>2010-01-01T08:23:47Z</time>
      </trkpt>
      <trkpt lat="48.03875490" lon="8.897071030">
        <ele>743.00000</ele>
        <time>2010-01-01T08:23:47Z</time>
      </trkpt>
      <trkpt lat="48.03876400" lon="8.897488030">
        <ele>747.00000</ele>
        <time>2010-01-01T08:24:15Z</time>
      </trkpt>
      <trkpt lat="48.03877700" lon="8.897804030">
        <ele>751.00000</ele>
        <time>2010-01-01T08:24:37Z</time>
      </trkpt>
      <trkpt lat="48.03877500" lon="8.898021960">
        <ele>753.00000</ele>
        <time>2010-01-01T08:24:51Z</time>
      </trkpt>
      <trkpt lat="48.03869400" lon="8.898397970">
        <ele>752.00000</ele>
        <time>2010-01-01T08:25:18Z</time>
      </trkpt>
      <trkpt lat="48.03857300" lon="8.898646990">
        <ele>748.00000</ele>
        <time>2010-01-01T08:25:38Z</time>
      </trkpt>
      <trkpt lat="48.03854190" lon="8.898956030">
        <ele>750.00000</ele>
        <time>2010-01-01T08:25:59Z</time>
      </trkpt>
      <trkpt lat="48.03853690" lon="8.899365990">
        <ele>757.00000</ele>
        <time>2010-01-01T08:26:27Z</time>
      </trkpt>
      <trkpt lat="48.03852390" lon="8.899519970">
        <ele>760.00000</ele>
        <time>2010-01-01T08:26:37Z</time>
      </trkpt>
      <trkpt lat="48.03852390" lon="8.899527010">
        <ele>760.00000</ele>
        <time>2010-01-01T08:26:37Z</time>
      </trkpt>
      <trkpt lat="48.03848800" lon="8.899877960">
        <ele>768.00000</ele>
        <time>2010-01-01T08:27:01Z</time>
      </trkpt>
      <trkpt lat="48.03861800" lon="8.899798000">
        <ele>771.00000</ele>
        <time>2010-01-01T08:27:15Z</time>
      </trkpt>
      <trkpt lat="48.03861490" lon="8.899805960">
        <ele>771.00000</ele>
        <time>2010-01-01T08:27:16Z</time>
      </trkpt>
      <trkpt lat="48.03856690" lon="8.900026990">
        <ele>775.00000</ele>
        <time>2010-01-01T08:27:31Z</time>
      </trkpt>
      <trkpt lat="48.03869590" lon="8.899934960">
        <ele>778.00000</ele>
        <time>2010-01-01T08:27:46Z</time>
      </trkpt>
      <trkpt lat="48.03869590" lon="8.899938980">
        <ele>778.00000</ele>
        <time>2010-01-01T08:27:46Z</time>
      </trkpt>
      <trkpt lat="48.03864700" lon="8.900256990">
        <ele>784.00000</ele>
        <time>2010-01-01T08:28:08Z</time>
      </trkpt>
      <trkpt lat="48.03883600" lon="8.900172000">
        <ele>788.00000</ele>
        <time>2010-01-01T08:28:28Z</time>
      </trkpt>
      <trkpt lat="48.03902500" lon="8.900305020">
        <ele>797.00000</ele>
        <time>2010-01-01T08:28:48Z</time>
      </trkpt>
      <trkpt lat="48.03902690" lon="8.900305020">
        <ele>797.00000</ele>
        <time>2010-01-01T08:28:49Z</time>
      </trkpt>
      <trkpt lat="48.03925890" lon="8.900482970">
        <ele>804.00000</ele>
        <time>2010-01-01T08:29:15Z</time>
      </trkpt>
      <trkpt lat="48.03925890" lon="8.900486990">
        <ele>804.00000</ele>
        <time>2010-01-01T08:29:15Z</time>
      </trkpt>
      <trkpt lat="48.03951990" lon="8.900716990">
        <ele>808.00000</ele>
        <time>2010-01-01T08:29:45Z</time>
      </trkpt>
      <trkpt lat="48.04022900" lon="8.901327020">
        <ele>811.00000</ele>
        <time>2010-01-01T08:31:07Z</time>
      </trkpt>
      <trkpt lat="48.04053000" lon="8.901568000">
        <ele>811.00000</ele>
        <time>2010-01-01T08:31:41Z</time>
      </trkpt>
      <trkpt lat="48.04069990" lon="8.901688950">
        <ele>810.00000</ele>
        <time>2010-01-01T08:32:00Z</time>
      </trkpt>
      <trkpt lat="48.04087090" lon="8.902005040">
        <ele>808.00000</ele>
        <time>2010-01-01T08:32:27Z</time>
      </trkpt>
      <trkpt lat="48.04083890" lon="8.902186000">
        <ele>807.00000</ele>
        <time>2010-01-01T08:32:40Z</time>
      </trkpt>
      <trkpt lat="48.04099200" lon="8.902226990">
        <ele>807.00000</ele>
        <time>2010-01-01T08:32:55Z</time>
      </trkpt>
      <trkpt lat="48.04112200" lon="8.902119030">
        <ele>808.00000</ele>
        <time>2010-01-01T08:33:10Z</time>
      </trkpt>
      <trkpt lat="48.04113090" lon="8.902125990">
        <ele>808.00000</ele>
        <time>2010-01-01T08:33:11Z</time>
      </trkpt>
      <trkpt lat="48.04151300" lon="8.902072010">
        <ele>808.00000</ele>
        <time>2010-01-01T08:33:50Z</time>
      </trkpt>
      <trkpt lat="48.04171690" lon="8.902056000">
        <ele>809.00000</ele>
        <time>2010-01-01T08:34:10Z</time>
      </trkpt>
      <trkpt lat="48.04202290" lon="8.902116010">
        <ele>810.00000</ele>
        <time>2010-01-01T08:34:41Z</time>
      </trkpt>
      <trkpt lat="48.04218900" lon="8.902209970">
        <ele>810.00000</ele>
        <time>2010-01-01T08:34:59Z</time>
      </trkpt>
      <trkpt lat="48.04243990" lon="8.902418010">
        <ele>812.00000</ele>
        <time>2010-01-01T08:35:28Z</time>
      </trkpt>
      <trkpt lat="48.04256590" lon="8.902506020">
        <ele>812.00000</ele>
        <time>2010-01-01T08:35:41Z</time>
      </trkpt>
      <trkpt lat="48.04264700" lon="8.902593030">
        <ele>811.00000</ele>
        <time>2010-01-01T08:35:51Z</time>
      </trkpt>
      <trkpt lat="48.04265090" lon="8.902593030">
        <ele>811.00000</ele>
        <time>2010-01-01T08:35:52Z</time>
      </trkpt>
      <trkpt lat="48.04275490" lon="8.902968950">
        <ele>810.00000</ele>
        <time>2010-01-01T08:36:19Z</time>
      </trkpt>
      <trkpt lat="48.04275900" lon="8.902976000">
        <ele>810.00000</ele>
        <time>2010-01-01T08:36:20Z</time>
      </trkpt>
      <trkpt lat="48.04283990" lon="8.903317980">
        <ele>810.00000</ele>
        <time>2010-01-01T08:36:44Z</time>
      </trkpt>
      <trkpt lat="48.04283990" lon="8.903325020">
        <ele>810.00000</ele>
        <time>2010-01-01T08:36:44Z</time>
      </trkpt>
      <trkpt lat="48.04290700" lon="8.903755010">
        <ele>807.00000</ele>
        <time>2010-01-01T08:37:14Z</time>
      </trkpt>
      <trkpt lat="48.04305100" lon="8.904588000">
        <ele>802.00000</ele>
        <time>2010-01-01T08:38:12Z</time>
      </trkpt>
      <trkpt lat="48.04308290" lon="8.904776010">
        <ele>801.00000</ele>
        <time>2010-01-01T08:38:25Z</time>
      </trkpt>
      <trkpt lat="48.04307800" lon="8.904930990">
        <ele>799.00000</ele>
        <time>2010-01-01T08:38:35Z</time>
      </trkpt>
      <trkpt lat="48.04312300" lon="8.905226030">
        <ele>796.00000</ele>
        <time>2010-01-01T08:38:55Z</time>
      </trkpt>
      <trkpt lat="48.04321290" lon="8.905697010">
        <ele>792.00000</ele>
        <time>2010-01-01T08:39:28Z</time>
      </trkpt>
      <trkpt lat="48.04321290" lon="8.905702960">
        <ele>792.00000</ele>
        <time>2010-01-01T08:39:28Z</time>
      </trkpt>
      <trkpt lat="48.04328000" lon="8.906233960">
        <ele>786.00000</ele>
        <time>2010-01-01T08:40:04Z</time>
      </trkpt>
      <trkpt lat="48.04328490" lon="8.906233960">
        <ele>786.00000</ele>
        <time>2010-01-01T08:40:05Z</time>
      </trkpt>
      <trkpt lat="48.04331190" lon="8.906354990">
        <ele>785.00000</ele>
        <time>2010-01-01T08:40:13Z</time>
      </trkpt>
      <trkpt lat="48.04331590" lon="8.906354990">
        <ele>785.00000</ele>
        <time>2010-01-01T08:40:14Z</time>
      </trkpt>
      <trkpt lat="48.04335200" lon="8.906402010">
        <ele>785.00000</ele>
        <time>2010-01-01T08:40:19Z</time>
      </trkpt>
      <trkpt lat="48.04461400" lon="8.906543000">
        <ele>784.00000</ele>
        <time>2010-01-01T08:42:25Z</time>
      </trkpt>
      <trkpt lat="48.04469490" lon="8.906737960">
        <ele>782.00000</ele>
        <time>2010-01-01T08:42:41Z</time>
      </trkpt>
      <trkpt lat="48.04469490" lon="8.906745000">
        <ele>782.00000</ele>
        <time>2010-01-01T08:42:41Z</time>
      </trkpt>
      <trkpt lat="48.04494600" lon="8.906805020">
        <ele>781.00000</ele>
        <time>2010-01-01T08:43:07Z</time>
      </trkpt>
      <trkpt lat="48.04506300" lon="8.906737960">
        <ele>781.00000</ele>
        <time>2010-01-01T08:43:19Z</time>
      </trkpt>
      <trkpt lat="48.04506300" lon="8.906745000">
        <ele>781.00000</ele>
        <time>2010-01-01T08:43:20Z</time>
      </trkpt>
      <trkpt lat="48.04513500" lon="8.907167950">
        <ele>782.00000</ele>
        <time>2010-01-01T08:43:49Z</time>
      </trkpt>
      <trkpt lat="48.04502690" lon="8.907456960">
        <ele>779.00000</ele>
        <time>2010-01-01T08:44:11Z</time>
      </trkpt>
      <trkpt lat="48.04498190" lon="8.907705990">
        <ele>784.00000</ele>
        <time>2010-01-01T08:44:28Z</time>
      </trkpt>
      <trkpt lat="48.04480200" lon="8.907887040">
        <ele>789.00000</ele>
        <time>2010-01-01T08:44:50Z</time>
      </trkpt>
      <trkpt lat="48.04456390" lon="8.908203030">
        <ele>795.00000</ele>
        <time>2010-01-01T08:45:22Z</time>
      </trkpt>
      <trkpt lat="48.04456000" lon="8.908208990">
        <ele>795.00000</ele>
        <time>2010-01-01T08:45:22Z</time>
      </trkpt>
      <trkpt lat="48.04428990" lon="8.908619030">
        <ele>801.00000</ele>
        <time>2010-01-01T08:46:01Z</time>
      </trkpt>
      <trkpt lat="48.04409500" lon="8.909071990">
        <ele>807.00000</ele>
        <time>2010-01-01T08:46:37Z</time>
      </trkpt>
      <trkpt lat="48.04406390" lon="8.909496030">
        <ele>812.00000</ele>
        <time>2010-01-01T08:47:05Z</time>
      </trkpt>
      <trkpt lat="48.04401890" lon="8.909966000">
        <ele>817.00000</ele>
        <time>2010-01-01T08:47:37Z</time>
      </trkpt>
      <trkpt lat="48.04399600" lon="8.910141010">
        <ele>819.00000</ele>
        <time>2010-01-01T08:47:49Z</time>
      </trkpt>
      <trkpt lat="48.04388400" lon="8.910383000">
        <ele>821.00000</ele>
        <time>2010-01-01T08:48:09Z</time>
      </trkpt>
      <trkpt lat="48.04360090" lon="8.910618030">
        <ele>825.00000</ele>
        <time>2010-01-01T08:48:41Z</time>
      </trkpt>
      <trkpt lat="48.04333190" lon="8.910852970">
        <ele>831.00000</ele>
        <time>2010-01-01T08:49:12Z</time>
      </trkpt>
      <trkpt lat="48.04321900" lon="8.910966970">
        <ele>832.00000</ele>
        <time>2010-01-01T08:49:26Z</time>
      </trkpt>
      <trkpt lat="48.04283690" lon="8.911215990">
        <ele>835.00000</ele>
        <time>2010-01-01T08:50:08Z</time>
      </trkpt>
      <trkpt lat="48.04250890" lon="8.911175010">
        <ele>837.00000</ele>
        <time>2010-01-01T08:50:41Z</time>
      </trkpt>
      <trkpt lat="48.04230690" lon="8.911148020">
        <ele>836.00000</ele>
        <time>2010-01-01T08:51:01Z</time>
      </trkpt>
      <trkpt lat="48.04198400" lon="8.911194950">
        <ele>834.00000</ele>
        <time>2010-01-01T08:51:33Z</time>
      </trkpt>
      <trkpt lat="48.04166900" lon="8.911309950">
        <ele>833.00000</ele>
        <time>2010-01-01T08:52:06Z</time>
      </trkpt>
      <trkpt lat="48.04142200" lon="8.911430990">
        <ele>832.00000</ele>
        <time>2010-01-01T08:52:32Z</time>
      </trkpt>
      <trkpt lat="48.04113900" lon="8.911619000">
        <ele>832.00000</ele>
        <time>2010-01-01T08:53:03Z</time>
      </trkpt>
      <trkpt lat="48.04083400" lon="8.911840030">
        <ele>831.00000</ele>
        <time>2010-01-01T08:53:37Z</time>
      </trkpt>
      <trkpt lat="48.04033100" lon="8.912189970">
        <ele>827.00000</ele>
        <time>2010-01-01T08:54:32Z</time>
      </trkpt>
      <trkpt lat="48.04033490" lon="8.912189970">
        <ele>827.00000</ele>
        <time>2010-01-01T08:54:33Z</time>
      </trkpt>
      <trkpt lat="48.03969800" lon="8.912766980">
        <ele>821.00000</ele>
        <time>2010-01-01T08:55:47Z</time>
      </trkpt>
      <trkpt lat="48.03952700" lon="8.912962030">
        <ele>819.00000</ele>
        <time>2010-01-01T08:56:09Z</time>
      </trkpt>
      <trkpt lat="48.03936500" lon="8.913257990">
        <ele>820.00000</ele>
        <time>2010-01-01T08:56:34Z</time>
      </trkpt>
      <trkpt lat="48.03919890" lon="8.913708020">
        <ele>819.00000</ele>
        <time>2010-01-01T08:57:09Z</time>
      </trkpt>
      <trkpt lat="48.03919400" lon="8.913708020">
        <ele>819.00000</ele>
        <time>2010-01-01T08:57:09Z</time>
      </trkpt>
      <trkpt lat="48.03908690" lon="8.914084030">
        <ele>816.00000</ele>
        <time>2010-01-01T08:57:37Z</time>
      </trkpt>
      <trkpt lat="48.03911790" lon="8.914467000">
        <ele>817.00000</ele>
        <time>2010-01-01T08:58:02Z</time>
      </trkpt>
      <trkpt lat="48.03912300" lon="8.914467000">
        <ele>817.00000</ele>
        <time>2010-01-01T08:58:03Z</time>
      </trkpt>
      <trkpt lat="48.03919890" lon="8.914795990">
        <ele>818.00000</ele>
        <time>2010-01-01T08:58:26Z</time>
      </trkpt>
      <trkpt lat="48.03919890" lon="8.914803030">
        <ele>818.00000</ele>
        <time>2010-01-01T08:58:27Z</time>
      </trkpt>
      <trkpt lat="48.03931590" lon="8.915233020">
        <ele>817.00000</ele>
        <time>2010-01-01T08:58:58Z</time>
      </trkpt>
      <trkpt lat="48.03931990" lon="8.915233020">
        <ele>817.00000</ele>
        <time>2010-01-01T08:58:58Z</time>
      </trkpt>
      <trkpt lat="48.03940590" lon="8.915502000">
        <ele>816.00000</ele>
        <time>2010-01-01T08:59:18Z</time>
      </trkpt>
      <trkpt lat="48.03941000" lon="8.915502000">
        <ele>816.00000</ele>
        <time>2010-01-01T08:59:19Z</time>
      </trkpt>
      <trkpt lat="48.03956700" lon="8.915824030">
        <ele>817.00000</ele>
        <time>2010-01-01T08:59:45Z</time>
      </trkpt>
      <trkpt lat="48.03975200" lon="8.916085960">
        <ele>820.00000</ele>
        <time>2010-01-01T09:00:11Z</time>
      </trkpt>
      <trkpt lat="48.03994000" lon="8.916320990">
        <ele>824.00000</ele>
        <time>2010-01-01T09:00:35Z</time>
      </trkpt>
      <trkpt lat="48.04004400" lon="8.916395000">
        <ele>825.00000</ele>
        <time>2010-01-01T09:00:47Z</time>
      </trkpt>
      <trkpt lat="48.04031990" lon="8.916445970">
        <ele>822.00000</ele>
        <time>2010-01-01T09:01:15Z</time>
      </trkpt>
      <trkpt lat="48.04064290" lon="8.916526010">
        <ele>817.00000</ele>
        <time>2010-01-01T09:01:47Z</time>
      </trkpt>
      <trkpt lat="48.04077300" lon="8.916412020">
        <ele>817.00000</ele>
        <time>2010-01-01T09:02:02Z</time>
      </trkpt>
      <trkpt lat="48.04083600" lon="8.916230970">
        <ele>819.00000</ele>
        <time>2010-01-01T09:02:16Z</time>
      </trkpt>
      <trkpt lat="48.04091700" lon="8.915712970">
        <ele>826.00000</ele>
        <time>2010-01-01T09:02:52Z</time>
      </trkpt>
      <trkpt lat="48.04107390" lon="8.915566030">
        <ele>827.00000</ele>
        <time>2010-01-01T09:03:10Z</time>
      </trkpt>
      <trkpt lat="48.04129890" lon="8.915524960">
        <ele>827.00000</ele>
        <time>2010-01-01T09:03:33Z</time>
      </trkpt>
      <trkpt lat="48.04158200" lon="8.915478020">
        <ele>827.00000</ele>
        <time>2010-01-01T09:04:01Z</time>
      </trkpt>
      <trkpt lat="48.04191590" lon="8.915448020">
        <ele>828.00000</ele>
        <time>2010-01-01T09:04:35Z</time>
      </trkpt>
      <trkpt lat="48.04224000" lon="8.915440980">
        <ele>830.00000</ele>
        <time>2010-01-01T09:05:07Z</time>
      </trkpt>
      <trkpt lat="48.04272000" lon="8.915326980">
        <ele>834.00000</ele>
        <time>2010-01-01T09:05:56Z</time>
      </trkpt>
      <trkpt lat="48.04305890" lon="8.915269980">
        <ele>836.00000</ele>
        <time>2010-01-01T09:06:30Z</time>
      </trkpt>
      <trkpt lat="48.04311800" lon="8.915585980">
        <ele>836.00000</ele>
        <time>2010-01-01T09:06:52Z</time>
      </trkpt>
      <trkpt lat="48.04311800" lon="8.915593020">
        <ele>836.00000</ele>
        <time>2010-01-01T09:06:52Z</time>
      </trkpt>
      <trkpt lat="48.04318000" lon="8.915961990">
        <ele>835.00000</ele>
        <time>2010-01-01T09:07:18Z</time>
      </trkpt>
      <trkpt lat="48.04318000" lon="8.915969040">
        <ele>835.00000</ele>
        <time>2010-01-01T09:07:18Z</time>
      </trkpt>
      <trkpt lat="48.04321190" lon="8.916431970">
        <ele>834.00000</ele>
        <time>2010-01-01T09:07:50Z</time>
      </trkpt>
      <trkpt lat="48.04329300" lon="8.917003030">
        <ele>834.00000</ele>
        <time>2010-01-01T09:08:29Z</time>
      </trkpt>
      <trkpt lat="48.04338290" lon="8.917426980">
        <ele>834.00000</ele>
        <time>2010-01-01T09:08:58Z</time>
      </trkpt>
      <trkpt lat="48.04320500" lon="8.918060990">
        <ele>830.00000</ele>
        <time>2010-01-01T09:09:44Z</time>
      </trkpt>
      <trkpt lat="48.04300300" lon="8.918767000">
        <ele>830.00000</ele>
        <time>2010-01-01T09:10:36Z</time>
      </trkpt>
      <trkpt lat="48.04289100" lon="8.919304030">
        <ele>832.00000</ele>
        <time>2010-01-01T09:11:13Z</time>
      </trkpt>
      <trkpt lat="48.04282390" lon="8.919753970">
        <ele>833.00000</ele>
        <time>2010-01-01T09:11:44Z</time>
      </trkpt>
      <trkpt lat="48.04281900" lon="8.919761010">
        <ele>833.00000</ele>
        <time>2010-01-01T09:11:45Z</time>
      </trkpt>
      <trkpt lat="48.04276100" lon="8.920331980">
        <ele>832.00000</ele>
        <time>2010-01-01T09:12:24Z</time>
      </trkpt>
      <trkpt lat="48.04275590" lon="8.920339020">
        <ele>832.00000</ele>
        <time>2010-01-01T09:12:24Z</time>
      </trkpt>
      <trkpt lat="48.04270200" lon="8.920821990">
        <ele>830.00000</ele>
        <time>2010-01-01T09:12:57Z</time>
      </trkpt>
      <trkpt lat="48.04272900" lon="8.921427000">
        <ele>826.00000</ele>
        <time>2010-01-01T09:13:38Z</time>
      </trkpt>
      <trkpt lat="48.04272900" lon="8.921434040">
        <ele>826.00000</ele>
        <time>2010-01-01T09:13:38Z</time>
      </trkpt>
      <trkpt lat="48.04274300" lon="8.921917000">
        <ele>823.00000</ele>
        <time>2010-01-01T09:14:10Z</time>
      </trkpt>
      <trkpt lat="48.04274300" lon="8.921923960">
        <ele>823.00000</ele>
        <time>2010-01-01T09:14:11Z</time>
      </trkpt>
      <trkpt lat="48.04277200" lon="8.922881000">
        <ele>818.00000</ele>
        <time>2010-01-01T09:15:15Z</time>
      </trkpt>
      <trkpt lat="48.04277200" lon="8.922887960">
        <ele>818.00000</ele>
        <time>2010-01-01T09:15:15Z</time>
      </trkpt>
      <trkpt lat="48.04279490" lon="8.923868980">
        <ele>814.00000</ele>
        <time>2010-01-01T09:16:21Z</time>
      </trkpt>
      <trkpt lat="48.04279490" lon="8.923876020">
        <ele>814.00000</ele>
        <time>2010-01-01T09:16:22Z</time>
      </trkpt>
      <trkpt lat="48.04279890" lon="8.924271980">
        <ele>812.00000</ele>
        <time>2010-01-01T09:16:48Z</time>
      </trkpt>
      <trkpt lat="48.04270500" lon="8.924674980">
        <ele>812.00000</ele>
        <time>2010-01-01T09:17:17Z</time>
      </trkpt>
      <trkpt lat="48.04270000" lon="8.924682020">
        <ele>812.00000</ele>
        <time>2010-01-01T09:17:17Z</time>
      </trkpt>
      <trkpt lat="48.04248900" lon="8.925232970">
        <ele>810.00000</ele>
        <time>2010-01-01T09:18:00Z</time>
      </trkpt>
      <trkpt lat="48.04199700" lon="8.926296960">
        <ele>806.00000</ele>
        <time>2010-01-01T09:19:26Z</time>
      </trkpt>
      <trkpt lat="48.04174590" lon="8.926707010">
        <ele>805.00000</ele>
        <time>2010-01-01T09:20:04Z</time>
      </trkpt>
      <trkpt lat="48.04150800" lon="8.927015960">
        <ele>804.00000</ele>
        <time>2010-01-01T09:20:35Z</time>
      </trkpt>
      <trkpt lat="48.04112990" lon="8.927459950">
        <ele>804.00000</ele>
        <time>2010-01-01T09:21:23Z</time>
      </trkpt>
      <trkpt lat="48.04075790" lon="8.927808980">
        <ele>805.00000</ele>
        <time>2010-01-01T09:22:07Z</time>
      </trkpt>
      <trkpt lat="48.04039390" lon="8.928137970">
        <ele>803.00000</ele>
        <time>2010-01-01T09:22:50Z</time>
      </trkpt>
      <trkpt lat="48.04009700" lon="8.928413980">
        <ele>802.00000</ele>
        <time>2010-01-01T09:23:25Z</time>
      </trkpt>
      <trkpt lat="48.03971500" lon="8.928782950">
        <ele>798.00000</ele>
        <time>2010-01-01T09:24:10Z</time>
      </trkpt>
      <trkpt lat="48.03945100" lon="8.928984960">
        <ele>798.00000</ele>
        <time>2010-01-01T09:24:40Z</time>
      </trkpt>
      <trkpt lat="48.03903700" lon="8.929112030">
        <ele>797.00000</ele>
        <time>2010-01-01T09:25:22Z</time>
      </trkpt>
      <trkpt lat="48.03866890" lon="8.929205990">
        <ele>797.00000</ele>
        <time>2010-01-01T09:26:00Z</time>
      </trkpt>
      <trkpt lat="48.03853890" lon="8.929280000">
        <ele>797.00000</ele>
        <time>2010-01-01T09:26:13Z</time>
      </trkpt>
      <trkpt lat="48.03825090" lon="8.929529030">
        <ele>795.00000</ele>
        <time>2010-01-01T09:26:47Z</time>
      </trkpt>
      <trkpt lat="48.03798600" lon="8.929763970">
        <ele>792.00000</ele>
        <time>2010-01-01T09:27:18Z</time>
      </trkpt>
      <trkpt lat="48.03768100" lon="8.930033030">
        <ele>791.00000</ele>
        <time>2010-01-01T09:27:53Z</time>
      </trkpt>
      <trkpt lat="48.03751000" lon="8.930221040">
        <ele>790.00000</ele>
        <time>2010-01-01T09:28:14Z</time>
      </trkpt>
      <trkpt lat="48.03738400" lon="8.930482970">
        <ele>788.00000</ele>
        <time>2010-01-01T09:28:36Z</time>
      </trkpt>
      <trkpt lat="48.03712790" lon="8.930738030">
        <ele>787.00000</ele>
        <time>2010-01-01T09:29:07Z</time>
      </trkpt>
      <trkpt lat="48.03690800" lon="8.930966020">
        <ele>787.00000</ele>
        <time>2010-01-01T09:29:33Z</time>
      </trkpt>
      <trkpt lat="48.03676400" lon="8.931282020">
        <ele>786.00000</ele>
        <time>2010-01-01T09:29:59Z</time>
      </trkpt>
      <trkpt lat="48.03665000" lon="8.931547980">
        <ele>785.00000</ele>
        <time>2010-01-01T09:30:20Z</time>
      </trkpt>
      <trkpt lat="48.03643400" lon="8.931890960">
        <ele>784.00000</ele>
        <time>2010-01-01T09:30:52Z</time>
      </trkpt>
      <trkpt lat="48.03626400" lon="8.932205960">
        <ele>785.00000</ele>
        <time>2010-01-01T09:31:19Z</time>
      </trkpt>
      <trkpt lat="48.03607890" lon="8.932549030">
        <ele>787.00000</ele>
        <time>2010-01-01T09:31:48Z</time>
      </trkpt>
      <trkpt lat="48.03582800" lon="8.932958990">
        <ele>788.00000</ele>
        <time>2010-01-01T09:32:25Z</time>
      </trkpt>
      <trkpt lat="48.03558100" lon="8.933314960">
        <ele>785.00000</ele>
        <time>2010-01-01T09:33:00Z</time>
      </trkpt>
      <trkpt lat="48.03533800" lon="8.933502970">
        <ele>784.00000</ele>
        <time>2010-01-01T09:33:27Z</time>
      </trkpt>
      <trkpt lat="48.03500090" lon="8.933899020">
        <ele>786.00000</ele>
        <time>2010-01-01T09:34:10Z</time>
      </trkpt>
      <trkpt lat="48.03484000" lon="8.934127000">
        <ele>783.00000</ele>
        <time>2010-01-01T09:34:32Z</time>
      </trkpt>
      <trkpt lat="48.03478990" lon="8.934692030">
        <ele>785.00000</ele>
        <time>2010-01-01T09:35:10Z</time>
      </trkpt>
      <trkpt lat="48.03478590" lon="8.934692030">
        <ele>785.00000</ele>
        <time>2010-01-01T09:35:11Z</time>
      </trkpt>
      <trkpt lat="48.03470900" lon="8.935410020">
        <ele>788.00000</ele>
        <time>2010-01-01T09:35:59Z</time>
      </trkpt>
      <trkpt lat="48.03469600" lon="8.935833980">
        <ele>791.00000</ele>
        <time>2010-01-01T09:36:28Z</time>
      </trkpt>
      <trkpt lat="48.03462400" lon="8.936102030">
        <ele>790.00000</ele>
        <time>2010-01-01T09:36:47Z</time>
      </trkpt>
      <trkpt lat="48.03462000" lon="8.936102030">
        <ele>790.00000</ele>
        <time>2010-01-01T09:36:48Z</time>
      </trkpt>
      <trkpt lat="48.03458790" lon="8.936358010">
        <ele>790.00000</ele>
        <time>2010-01-01T09:37:05Z</time>
      </trkpt>
      <trkpt lat="48.03451590" lon="8.936371010">
        <ele>788.00000</ele>
        <time>2010-01-01T09:37:12Z</time>
      </trkpt>
      <trkpt lat="48.03441700" lon="8.936592960">
        <ele>787.00000</ele>
        <time>2010-01-01T09:37:30Z</time>
      </trkpt>
      <trkpt lat="48.03432290" lon="8.936821030">
        <ele>786.00000</ele>
        <time>2010-01-01T09:37:48Z</time>
      </trkpt>
      <trkpt lat="48.03422000" lon="8.936981960">
        <ele>785.00000</ele>
        <time>2010-01-01T09:38:03Z</time>
      </trkpt>
      <trkpt lat="48.03414300" lon="8.937050020">
        <ele>782.00000</ele>
        <time>2010-01-01T09:38:12Z</time>
      </trkpt>
      <trkpt lat="48.03403590" lon="8.936600000">
        <ele>776.00000</ele>
        <time>2010-01-01T09:38:44Z</time>
      </trkpt>
      <trkpt lat="48.03363100" lon="8.937218000">
        <ele>752.00000</ele>
        <time>2010-01-01T09:39:42Z</time>
      </trkpt>
      <trkpt lat="48.03360390" lon="8.937090010">
        <ele>750.00000</ele>
        <time>2010-01-01T09:39:51Z</time>
      </trkpt>
      <trkpt lat="48.03347890" lon="8.937654020">
        <ele>740.00000</ele>
        <time>2010-01-01T09:40:30Z</time>
      </trkpt>
      <trkpt lat="48.03341600" lon="8.937311960">
        <ele>739.00000</ele>
        <time>2010-01-01T09:40:54Z</time>
      </trkpt>
      <trkpt lat="48.03337990" lon="8.937708000">
        <ele>733.00000</ele>
        <time>2010-01-01T09:41:21Z</time>
      </trkpt>
      <trkpt lat="48.03337990" lon="8.937721000">
        <ele>733.00000</ele>
        <time>2010-01-01T09:41:22Z</time>
      </trkpt>
      <trkpt lat="48.03340690" lon="8.938158030">
        <ele>729.00000</ele>
        <time>2010-01-01T09:41:51Z</time>
      </trkpt>
      <trkpt lat="48.03317290" lon="8.937741030">
        <ele>720.00000</ele>
        <time>2010-01-01T09:42:28Z</time>
      </trkpt>
      <trkpt lat="48.03306090" lon="8.937431990">
        <ele>715.00000</ele>
        <time>2010-01-01T09:42:51Z</time>
      </trkpt>
      <trkpt lat="48.03293500" lon="8.938379980">
        <ele>699.00000</ele>
        <time>2010-01-01T09:43:56Z</time>
      </trkpt>
      <trkpt lat="48.03287690" lon="8.938049990">
        <ele>698.00000</ele>
        <time>2010-01-01T09:44:19Z</time>
      </trkpt>
      <trkpt lat="48.03271490" lon="8.937520000">
        <ele>692.00000</ele>
        <time>2010-01-01T09:44:58Z</time>
      </trkpt>
      <trkpt lat="48.03253990" lon="8.938057030">
        <ele>678.00000</ele>
        <time>2010-01-01T09:45:38Z</time>
      </trkpt>
      <trkpt lat="48.03236500" lon="8.938708970">
        <ele>665.00000</ele>
        <time>2010-01-01T09:46:25Z</time>
      </trkpt>
      <trkpt lat="48.03225190" lon="8.938386020">
        <ele>662.00000</ele>
        <time>2010-01-01T09:46:49Z</time>
      </trkpt>
      <trkpt lat="48.03225690" lon="8.938386020">
        <ele>662.00000</ele>
        <time>2010-01-01T09:46:50Z</time>
      </trkpt>
      <trkpt lat="48.03212200" lon="8.938117960">
        <ele>658.00000</ele>
        <time>2010-01-01T09:47:12Z</time>
      </trkpt>
      <trkpt lat="48.03210890" lon="8.938917010">
        <ele>652.00000</ele>
        <time>2010-01-01T09:48:05Z</time>
      </trkpt>
      <trkpt lat="48.03198700" lon="8.938574020">
        <ele>649.00000</ele>
        <time>2010-01-01T09:48:31Z</time>
      </trkpt>
      <trkpt lat="48.03159690" lon="8.938204970">
        <ele>635.00000</ele>
        <time>2010-01-01T09:49:18Z</time>
      </trkpt>
      <trkpt lat="48.03151090" lon="8.937619990">
        <ele>637.00000</ele>
        <time>2010-01-01T09:49:58Z</time>
      </trkpt>
      <trkpt lat="48.03147990" lon="8.937090010">
        <ele>639.00000</ele>
        <time>2010-01-01T09:50:33Z</time>
      </trkpt>
      <trkpt lat="48.03147100" lon="8.936713990">
        <ele>640.00000</ele>
        <time>2010-01-01T09:50:59Z</time>
      </trkpt>
      <trkpt lat="48.03153390" lon="8.936143020">
        <ele>637.00000</ele>
        <time>2010-01-01T09:51:37Z</time>
      </trkpt>
      <trkpt lat="48.03068000" lon="8.935585040">
        <ele>627.00000</ele>
        <time>2010-01-01T09:53:11Z</time>
      </trkpt>
      <trkpt lat="48.02982190" lon="8.935048010">
        <ele>627.00000</ele>
        <time>2010-01-01T09:54:44Z</time>
      </trkpt>
      <trkpt lat="48.02967790" lon="8.934894030">
        <ele>626.00000</ele>
        <time>2010-01-01T09:55:01Z</time>
      </trkpt>
      <trkpt lat="48.02949900" lon="8.934618020">
        <ele>626.00000</ele>
        <time>2010-01-01T09:55:27Z</time>
      </trkpt>
      <trkpt lat="48.02936000" lon="8.934477030">
        <ele>625.00000</ele>
        <time>2010-01-01T09:55:44Z</time>
      </trkpt>
      <trkpt lat="48.02928300" lon="8.934496980">
        <ele>625.00000</ele>
        <time>2010-01-01T09:55:52Z</time>
      </trkpt>
      <trkpt lat="48.02920000" lon="8.934615000">
        <ele>626.00000</ele>
        <time>2010-01-01T09:56:03Z</time>
      </trkpt>
      <trkpt lat="48.02907890" lon="8.934823040">
        <ele>626.00000</ele>
        <time>2010-01-01T09:56:22Z</time>
      </trkpt>
      <trkpt lat="48.02893490" lon="8.934997970">
        <ele>626.00000</ele>
        <time>2010-01-01T09:56:40Z</time>
      </trkpt>
      <trkpt lat="48.02868300" lon="8.935145990">
        <ele>627.00000</ele>
        <time>2010-01-01T09:57:07Z</time>
      </trkpt>
      <trkpt lat="48.02850390" lon="8.935193010">
        <ele>628.00000</ele>
        <time>2010-01-01T09:57:25Z</time>
      </trkpt>
      <trkpt lat="48.02835100" lon="8.935334000">
        <ele>629.00000</ele>
        <time>2010-01-01T09:57:43Z</time>
      </trkpt>
      <trkpt lat="48.02829300" lon="8.935487970">
        <ele>631.00000</ele>
        <time>2010-01-01T09:57:55Z</time>
      </trkpt>
      <trkpt lat="48.02809500" lon="8.935433990">
        <ele>631.00000</ele>
        <time>2010-01-01T09:58:15Z</time>
      </trkpt>
      <trkpt lat="48.02783890" lon="8.935408010">
        <ele>631.00000</ele>
        <time>2010-01-01T09:58:41Z</time>
      </trkpt>
      <trkpt lat="48.02760100" lon="8.935441030">
        <ele>633.00000</ele>
        <time>2010-01-01T09:59:05Z</time>
      </trkpt>
      <trkpt lat="48.02748960" lon="8.935492330">
        <ele>634.00000</ele>
        <time>2010-01-01T09:59:17Z</time>
      </trkpt>
      <trkpt lat="48.02734940" lon="8.935492330">
        <ele>634.00000</ele>
        <time>2010-01-01T09:59:31Z</time>
      </trkpt>
      <trkpt lat="48.02704220" lon="8.935486630">
        <ele>635.00000</ele>
        <time>2010-01-01T10:00:01Z</time>
      </trkpt>
      <trkpt lat="48.02690750" lon="8.935463750">
        <ele>635.00000</ele>
        <time>2010-01-01T10:00:15Z</time>
      </trkpt>
      <trkpt lat="48.02672970" lon="8.935437930">
        <ele>635.00000</ele>
        <time>2010-01-01T10:00:33Z</time>
      </trkpt>
      <trkpt lat="48.02658100" lon="8.935642950">
        <ele>640.00000</ele>
        <time>2010-01-01T10:00:53Z</time>
      </trkpt>
      <trkpt lat="48.02654100" lon="8.935776980">
        <ele>644.00000</ele>
        <time>2010-01-01T10:01:03Z</time>
      </trkpt>
      <trkpt lat="48.02654100" lon="8.935784020">
        <ele>644.00000</ele>
        <time>2010-01-01T10:01:03Z</time>
      </trkpt>
      <trkpt lat="48.02653600" lon="8.935925010">
        <ele>647.00000</ele>
        <time>2010-01-01T10:01:13Z</time>
      </trkpt>
      <trkpt lat="48.02662600" lon="8.936026010">
        <ele>647.00000</ele>
        <time>2010-01-01T10:01:24Z</time>
      </trkpt>
      <trkpt lat="48.02664390" lon="8.936254000">
        <ele>651.00000</ele>
        <time>2010-01-01T10:01:39Z</time>
      </trkpt>
      <trkpt lat="48.02679190" lon="8.936502020">
        <ele>653.00000</ele>
        <time>2010-01-01T10:02:02Z</time>
      </trkpt>
      <trkpt lat="48.02692190" lon="8.936683990">
        <ele>654.00000</ele>
        <time>2010-01-01T10:02:20Z</time>
      </trkpt>
      <trkpt lat="48.02692190" lon="8.936690020">
        <ele>654.00000</ele>
        <time>2010-01-01T10:02:20Z</time>
      </trkpt>
      <trkpt lat="48.02703490" lon="8.937327970">
        <ele>662.00000</ele>
        <time>2010-01-01T10:03:04Z</time>
      </trkpt>
      <trkpt lat="48.02689600" lon="8.937725020">
        <ele>670.00000</ele>
        <time>2010-01-01T10:03:34Z</time>
      </trkpt>
      <trkpt lat="48.02690390" lon="8.938356010">
        <ele>679.00000</ele>
        <time>2010-01-01T10:04:16Z</time>
      </trkpt>
      <trkpt lat="48.02690390" lon="8.938362970">
        <ele>679.00000</ele>
        <time>2010-01-01T10:04:17Z</time>
      </trkpt>
      <trkpt lat="48.02699390" lon="8.938993960">
        <ele>686.00000</ele>
        <time>2010-01-01T10:05:00Z</time>
      </trkpt>
      <trkpt lat="48.02699900" lon="8.938993960">
        <ele>686.00000</ele>
        <time>2010-01-01T10:05:01Z</time>
      </trkpt>
      <trkpt lat="48.02723690" lon="8.939618990">
        <ele>694.00000</ele>
        <time>2010-01-01T10:05:49Z</time>
      </trkpt>
      <trkpt lat="48.02743490" lon="8.940188960">
        <ele>704.00000</ele>
        <time>2010-01-01T10:06:32Z</time>
      </trkpt>
      <trkpt lat="48.02743890" lon="8.940188960">
        <ele>704.00000</ele>
        <time>2010-01-01T10:06:32Z</time>
      </trkpt>
      <trkpt lat="48.02760500" lon="8.940766980">
        <ele>718.00000</ele>
        <time>2010-01-01T10:07:14Z</time>
      </trkpt>
      <trkpt lat="48.02776300" lon="8.941345000">
        <ele>730.00000</ele>
        <time>2010-01-01T10:07:56Z</time>
      </trkpt>
      <trkpt lat="48.02777090" lon="8.941345000">
        <ele>730.00000</ele>
        <time>2010-01-01T10:07:57Z</time>
      </trkpt>
      <trkpt lat="48.02796890" lon="8.941888980">
        <ele>737.00000</ele>
        <time>2010-01-01T10:08:38Z</time>
      </trkpt>
      <trkpt lat="48.02827900" lon="8.942734970">
        <ele>740.00000</ele>
        <time>2010-01-01T10:09:43Z</time>
      </trkpt>
      <trkpt lat="48.02855500" lon="8.943464020">
        <ele>744.00000</ele>
        <time>2010-01-01T10:10:39Z</time>
      </trkpt>
      <trkpt lat="48.02881100" lon="8.944055030">
        <ele>746.00000</ele>
        <time>2010-01-01T10:11:26Z</time>
      </trkpt>
      <trkpt lat="48.02881590" lon="8.944060980">
        <ele>746.00000</ele>
        <time>2010-01-01T10:11:27Z</time>
      </trkpt>
      <trkpt lat="48.02903590" lon="8.944705970">
        <ele>744.00000</ele>
        <time>2010-01-01T10:12:15Z</time>
      </trkpt>
      <trkpt lat="48.02911890" lon="8.945133030">
        <ele>743.00000</ele>
        <time>2010-01-01T10:12:45Z</time>
      </trkpt>
      <trkpt lat="48.02916390" lon="8.945623040">
        <ele>746.00000</ele>
        <time>2010-01-01T10:13:18Z</time>
      </trkpt>
      <trkpt lat="48.02916800" lon="8.945623040">
        <ele>746.00000</ele>
        <time>2010-01-01T10:13:18Z</time>
      </trkpt>
      <trkpt lat="48.02917690" lon="8.945830990">
        <ele>748.00000</ele>
        <time>2010-01-01T10:13:32Z</time>
      </trkpt>
      <trkpt lat="48.02916390" lon="8.946287970">
        <ele>752.00000</ele>
        <time>2010-01-01T10:14:03Z</time>
      </trkpt>
      <trkpt lat="48.02924890" lon="8.946610000">
        <ele>753.00000</ele>
        <time>2010-01-01T10:14:26Z</time>
      </trkpt>
      <trkpt lat="48.02946000" lon="8.947228000">
        <ele>752.00000</ele>
        <time>2010-01-01T10:15:12Z</time>
      </trkpt>
      <trkpt lat="48.02946490" lon="8.947228000">
        <ele>752.00000</ele>
        <time>2010-01-01T10:15:13Z</time>
      </trkpt>
      <trkpt lat="48.02962690" lon="8.947846000">
        <ele>754.00000</ele>
        <time>2010-01-01T10:15:57Z</time>
      </trkpt>
      <trkpt lat="48.02978390" lon="8.948424020">
        <ele>758.00000</ele>
        <time>2010-01-01T10:16:39Z</time>
      </trkpt>
      <trkpt lat="48.02978800" lon="8.948429970">
        <ele>758.00000</ele>
        <time>2010-01-01T10:16:40Z</time>
      </trkpt>
      <trkpt lat="48.02983300" lon="8.948565000">
        <ele>759.00000</ele>
        <time>2010-01-01T10:16:50Z</time>
      </trkpt>
      <trkpt lat="48.02983790" lon="8.948571030">
        <ele>760.00000</ele>
        <time>2010-01-01T10:16:50Z</time>
      </trkpt>
      <trkpt lat="48.02999890" lon="8.948927010">
        <ele>763.00000</ele>
        <time>2010-01-01T10:17:19Z</time>
      </trkpt>
      <trkpt lat="48.03003500" lon="8.949511990">
        <ele>770.00000</ele>
        <time>2010-01-01T10:17:59Z</time>
      </trkpt>
      <trkpt lat="48.03007600" lon="8.949935020">
        <ele>773.00000</ele>
        <time>2010-01-01T10:18:27Z</time>
      </trkpt>
      <trkpt lat="48.03007600" lon="8.950081960">
        <ele>773.00000</ele>
        <time>2010-01-01T10:18:37Z</time>
      </trkpt>
      <trkpt lat="48.02994090" lon="8.950324030">
        <ele>772.00000</ele>
        <time>2010-01-01T10:18:58Z</time>
      </trkpt>
      <trkpt lat="48.02981500" lon="8.950572970">
        <ele>771.00000</ele>
        <time>2010-01-01T10:19:19Z</time>
      </trkpt>
      <trkpt lat="48.02968500" lon="8.950613030">
        <ele>771.00000</ele>
        <time>2010-01-01T10:19:32Z</time>
      </trkpt>
      <trkpt lat="48.02951900" lon="8.950539020">
        <ele>772.00000</ele>
        <time>2010-01-01T10:19:50Z</time>
      </trkpt>
      <trkpt lat="48.02951400" lon="8.950539020">
        <ele>773.00000</ele>
        <time>2010-01-01T10:19:50Z</time>
      </trkpt>
      <trkpt lat="48.02916390" lon="8.950264010">
        <ele>777.00000</ele>
        <time>2010-01-01T10:20:30Z</time>
      </trkpt>
      <trkpt lat="48.02880490" lon="8.949981960">
        <ele>775.00000</ele>
        <time>2010-01-01T10:21:10Z</time>
      </trkpt>
      <trkpt lat="48.02880900" lon="8.949981960">
        <ele>775.00000</ele>
        <time>2010-01-01T10:21:11Z</time>
      </trkpt>
      <trkpt lat="48.02850800" lon="8.949625980">
        <ele>777.00000</ele>
        <time>2010-01-01T10:21:49Z</time>
      </trkpt>
      <trkpt lat="48.02822990" lon="8.949195990">
        <ele>784.00000</ele>
        <time>2010-01-01T10:22:29Z</time>
      </trkpt>
      <trkpt lat="48.02800090" lon="8.948867000">
        <ele>785.00000</ele>
        <time>2010-01-01T10:23:01Z</time>
      </trkpt>
      <trkpt lat="48.02782100" lon="8.948699030">
        <ele>785.00000</ele>
        <time>2010-01-01T10:23:22Z</time>
      </trkpt>
      <trkpt lat="48.02759390" lon="8.948574970">
        <ele>786.00000</ele>
        <time>2010-01-01T10:23:46Z</time>
      </trkpt>
      <trkpt lat="48.02740100" lon="8.948574970">
        <ele>787.00000</ele>
        <time>2010-01-01T10:24:06Z</time>
      </trkpt>
      <trkpt lat="48.02692500" lon="8.948393000">
        <ele>793.00000</ele>
        <time>2010-01-01T10:24:55Z</time>
      </trkpt>
      <trkpt lat="48.02664200" lon="8.948312960">
        <ele>796.00000</ele>
        <time>2010-01-01T10:25:24Z</time>
      </trkpt>
      <trkpt lat="48.02635000" lon="8.948171970">
        <ele>795.00000</ele>
        <time>2010-01-01T10:25:54Z</time>
      </trkpt>
      <trkpt lat="48.02609790" lon="8.948037020">
        <ele>793.00000</ele>
        <time>2010-01-01T10:26:21Z</time>
      </trkpt>
      <trkpt lat="48.02603090" lon="8.947727980">
        <ele>793.00000</ele>
        <time>2010-01-01T10:26:43Z</time>
      </trkpt>
      <trkpt lat="48.02583300" lon="8.947547020">
        <ele>791.00000</ele>
        <time>2010-01-01T10:27:06Z</time>
      </trkpt>
      <trkpt lat="48.02563100" lon="8.947398990">
        <ele>789.00000</ele>
        <time>2010-01-01T10:27:29Z</time>
      </trkpt>
      <trkpt lat="48.02531700" lon="8.947332020">
        <ele>787.00000</ele>
        <time>2010-01-01T10:28:00Z</time>
      </trkpt>
      <trkpt lat="48.02507400" lon="8.947325990">
        <ele>785.00000</ele>
        <time>2010-01-01T10:28:25Z</time>
      </trkpt>
      <trkpt lat="48.02507000" lon="8.947325990">
        <ele>785.00000</ele>
        <time>2010-01-01T10:28:25Z</time>
      </trkpt>
      <trkpt lat="48.02479600" lon="8.947378960">
        <ele>784.00000</ele>
        <time>2010-01-01T10:28:53Z</time>
      </trkpt>
      <trkpt lat="48.02459290" lon="8.947439980">
        <ele>783.00000</ele>
        <time>2010-01-01T10:29:13Z</time>
      </trkpt>
      <trkpt lat="48.02433500" lon="8.947665030">
        <ele>782.00000</ele>
        <time>2010-01-01T10:29:43Z</time>
      </trkpt>
      <trkpt lat="48.02398890" lon="8.948026970">
        <ele>780.00000</ele>
        <time>2010-01-01T10:30:26Z</time>
      </trkpt>
      <trkpt lat="48.02365690" lon="8.948429970">
        <ele>779.00000</ele>
        <time>2010-01-01T10:31:08Z</time>
      </trkpt>
      <trkpt lat="48.02365690" lon="8.948437010">
        <ele>779.00000</ele>
        <time>2010-01-01T10:31:09Z</time>
      </trkpt>
      <trkpt lat="48.02330600" lon="8.948887030">
        <ele>776.00000</ele>
        <time>2010-01-01T10:31:55Z</time>
      </trkpt>
      <trkpt lat="48.02306390" lon="8.949148970">
        <ele>776.00000</ele>
        <time>2010-01-01T10:32:25Z</time>
      </trkpt>
      <trkpt lat="48.02294300" lon="8.949357010">
        <ele>776.00000</ele>
        <time>2010-01-01T10:32:43Z</time>
      </trkpt>
      <trkpt lat="48.02281700" lon="8.949706030">
        <ele>777.00000</ele>
        <time>2010-01-01T10:33:10Z</time>
      </trkpt>
      <trkpt lat="48.02272700" lon="8.949821030">
        <ele>777.00000</ele>
        <time>2010-01-01T10:33:22Z</time>
      </trkpt>
      <trkpt lat="48.02254300" lon="8.949988000">
        <ele>779.00000</ele>
        <time>2010-01-01T10:33:43Z</time>
      </trkpt>
      <trkpt lat="48.02212500" lon="8.950224030">
        <ele>781.00000</ele>
        <time>2010-01-01T10:34:28Z</time>
      </trkpt>
      <trkpt lat="48.02141090" lon="8.950680010">
        <ele>787.00000</ele>
        <time>2010-01-01T10:35:46Z</time>
      </trkpt>
      <trkpt lat="48.02089390" lon="8.951035980">
        <ele>789.00000</ele>
        <time>2010-01-01T10:36:43Z</time>
      </trkpt>
      <trkpt lat="48.02036900" lon="8.951372010">
        <ele>788.00000</ele>
        <time>2010-01-01T10:37:40Z</time>
      </trkpt>
      <trkpt lat="48.02011000" lon="8.951549960">
        <ele>787.00000</ele>
        <time>2010-01-01T10:38:08Z</time>
      </trkpt>
      <trkpt lat="48.01997090" lon="8.951658010">
        <ele>786.00000</ele>
        <time>2010-01-01T10:38:24Z</time>
      </trkpt>
      <trkpt lat="48.01959400" lon="8.951865960">
        <ele>782.00000</ele>
        <time>2010-01-01T10:39:04Z</time>
      </trkpt>
      <trkpt lat="48.01947190" lon="8.952053970">
        <ele>781.00000</ele>
        <time>2010-01-01T10:39:22Z</time>
      </trkpt>
      <trkpt lat="48.01923890" lon="8.952235020">
        <ele>779.00000</ele>
        <time>2010-01-01T10:39:48Z</time>
      </trkpt>
      <trkpt lat="48.01873990" lon="8.952598040">
        <ele>773.00000</ele>
        <time>2010-01-01T10:40:44Z</time>
      </trkpt>
      <trkpt lat="48.01865900" lon="8.952080960">
        <ele>771.00000</ele>
        <time>2010-01-01T10:41:19Z</time>
      </trkpt>
      <trkpt lat="48.01851990" lon="8.951570000">
        <ele>770.00000</ele>
        <time>2010-01-01T10:41:56Z</time>
      </trkpt>
      <trkpt lat="48.01843000" lon="8.951361960">
        <ele>770.00000</ele>
        <time>2010-01-01T10:42:13Z</time>
      </trkpt>
      <trkpt lat="48.01831790" lon="8.951255000">
        <ele>770.00000</ele>
        <time>2010-01-01T10:42:26Z</time>
      </trkpt>
      <trkpt lat="48.01811990" lon="8.951281990">
        <ele>771.00000</ele>
        <time>2010-01-01T10:42:46Z</time>
      </trkpt>
      <trkpt lat="48.01799900" lon="8.951275040">
        <ele>771.00000</ele>
        <time>2010-01-01T10:42:58Z</time>
      </trkpt>
      <trkpt lat="48.01789600" lon="8.951053000">
        <ele>773.00000</ele>
        <time>2010-01-01T10:43:16Z</time>
      </trkpt>
      <trkpt lat="48.01789600" lon="8.951046960">
        <ele>773.00000</ele>
        <time>2010-01-01T10:43:17Z</time>
      </trkpt>
      <trkpt lat="48.01782790" lon="8.950858960">
        <ele>774.00000</ele>
        <time>2010-01-01T10:43:31Z</time>
      </trkpt>
      <trkpt lat="48.01784190" lon="8.950664000">
        <ele>776.00000</ele>
        <time>2010-01-01T10:43:44Z</time>
      </trkpt>
      <trkpt lat="48.01774290" lon="8.950112970">
        <ele>781.00000</ele>
        <time>2010-01-01T10:44:22Z</time>
      </trkpt>
      <trkpt lat="48.01769790" lon="8.949851030">
        <ele>782.00000</ele>
        <time>2010-01-01T10:44:40Z</time>
      </trkpt>
      <trkpt lat="48.01757190" lon="8.949650040">
        <ele>783.00000</ele>
        <time>2010-01-01T10:44:59Z</time>
      </trkpt>
      <trkpt lat="48.01745590" lon="8.949333960">
        <ele>782.00000</ele>
        <time>2010-01-01T10:45:23Z</time>
      </trkpt>
      <trkpt lat="48.01741490" lon="8.949046040">
        <ele>778.00000</ele>
        <time>2010-01-01T10:45:43Z</time>
      </trkpt>
      <trkpt lat="48.01742000" lon="8.948333990">
        <ele>762.00000</ele>
        <time>2010-01-01T10:46:30Z</time>
      </trkpt>
      <trkpt lat="48.01746890" lon="8.948131990">
        <ele>760.00000</ele>
        <time>2010-01-01T10:46:45Z</time>
      </trkpt>
      <trkpt lat="48.01797190" lon="8.948010960">
        <ele>777.00000</ele>
        <time>2010-01-01T10:47:36Z</time>
      </trkpt>
      <trkpt lat="48.01845300" lon="8.947877010">
        <ele>790.00000</ele>
        <time>2010-01-01T10:48:25Z</time>
      </trkpt>
      <trkpt lat="48.01845700" lon="8.947877010">
        <ele>790.00000</ele>
        <time>2010-01-01T10:48:25Z</time>
      </trkpt>
      <trkpt lat="48.01861400" lon="8.947790010">
        <ele>790.00000</ele>
        <time>2010-01-01T10:48:42Z</time>
      </trkpt>
      <trkpt lat="48.01870000" lon="8.947628990">
        <ele>789.00000</ele>
        <time>2010-01-01T10:48:56Z</time>
      </trkpt>
      <trkpt lat="48.01870400" lon="8.947622040">
        <ele>789.00000</ele>
        <time>2010-01-01T10:48:56Z</time>
      </trkpt>
      <trkpt lat="48.01872700" lon="8.947453980">
        <ele>789.00000</ele>
        <time>2010-01-01T10:49:08Z</time>
      </trkpt>
      <trkpt lat="48.01883490" lon="8.947238980">
        <ele>788.00000</ele>
        <time>2010-01-01T10:49:26Z</time>
      </trkpt>
      <trkpt lat="48.01883000" lon="8.946547980">
        <ele>786.00000</ele>
        <time>2010-01-01T10:50:12Z</time>
      </trkpt>
      <trkpt lat="48.01879900" lon="8.945956970">
        <ele>785.00000</ele>
        <time>2010-01-01T10:50:52Z</time>
      </trkpt>
      <trkpt lat="48.01879900" lon="8.945951020">
        <ele>785.00000</ele>
        <time>2010-01-01T10:50:52Z</time>
      </trkpt>
      <trkpt lat="48.01873990" lon="8.945614990">
        <ele>784.00000</ele>
        <time>2010-01-01T10:51:15Z</time>
      </trkpt>
      <trkpt lat="48.01868700" lon="8.945360010">
        <ele>783.00000</ele>
        <time>2010-01-01T10:51:33Z</time>
      </trkpt>
      <trkpt lat="48.01834990" lon="8.944467000">
        <ele>785.00000</ele>
        <time>2010-01-01T10:52:42Z</time>
      </trkpt>
      <trkpt lat="48.01827300" lon="8.944271960">
        <ele>783.00000</ele>
        <time>2010-01-01T10:52:57Z</time>
      </trkpt>
      <trkpt lat="48.01796290" lon="8.943814970">
        <ele>774.00000</ele>
        <time>2010-01-01T10:53:40Z</time>
      </trkpt>
      <trkpt lat="48.01779300" lon="8.943586990">
        <ele>772.00000</ele>
        <time>2010-01-01T10:54:03Z</time>
      </trkpt>
      <trkpt lat="48.01748690" lon="8.943264950">
        <ele>770.00000</ele>
        <time>2010-01-01T10:54:41Z</time>
      </trkpt>
      <trkpt lat="48.01697090" lon="8.942687020">
        <ele>755.00000</ele>
        <time>2010-01-01T10:55:45Z</time>
      </trkpt>
      <trkpt lat="48.01656690" lon="8.942257030">
        <ele>749.00000</ele>
        <time>2010-01-01T10:56:35Z</time>
      </trkpt>
      <trkpt lat="48.01567290" lon="8.941351030">
        <ele>734.00000</ele>
        <time>2010-01-01T10:58:23Z</time>
      </trkpt>
      <trkpt lat="48.01552890" lon="8.941209960">
        <ele>729.00000</ele>
        <time>2010-01-01T10:58:40Z</time>
      </trkpt>
      <trkpt lat="48.01468900" lon="8.940700010">
        <ele>689.00000</ele>
        <time>2010-01-01T11:00:11Z</time>
      </trkpt>
      <trkpt lat="48.01533090" lon="8.940706970">
        <ele>716.00000</ele>
        <time>2010-01-01T11:01:15Z</time>
      </trkpt>
      <trkpt lat="48.01577590" lon="8.940605960">
        <ele>728.00000</ele>
        <time>2010-01-01T11:02:00Z</time>
      </trkpt>
      <trkpt lat="48.01664300" lon="8.940472020">
        <ele>732.00000</ele>
        <time>2010-01-01T11:03:27Z</time>
      </trkpt>
      <trkpt lat="48.01715490" lon="8.940371020">
        <ele>728.00000</ele>
        <time>2010-01-01T11:04:19Z</time>
      </trkpt>
      <trkpt lat="48.01731590" lon="8.940222990">
        <ele>724.00000</ele>
        <time>2010-01-01T11:04:38Z</time>
      </trkpt>
      <trkpt lat="48.01732490" lon="8.940210000">
        <ele>724.00000</ele>
        <time>2010-01-01T11:04:39Z</time>
      </trkpt>
      <trkpt lat="48.01754090" lon="8.939854020">
        <ele>714.00000</ele>
        <time>2010-01-01T11:05:11Z</time>
      </trkpt>
      <trkpt lat="48.01776990" lon="8.939470970">
        <ele>704.00000</ele>
        <time>2010-01-01T11:05:46Z</time>
      </trkpt>
      <trkpt lat="48.01777900" lon="8.939457980">
        <ele>703.00000</ele>
        <time>2010-01-01T11:05:47Z</time>
      </trkpt>
      <trkpt lat="48.01789090" lon="8.939276010">
        <ele>699.00000</ele>
        <time>2010-01-01T11:06:04Z</time>
      </trkpt>
      <trkpt lat="48.01787290" lon="8.938947020">
        <ele>693.00000</ele>
        <time>2010-01-01T11:06:26Z</time>
      </trkpt>
      <trkpt lat="48.01787800" lon="8.938947020">
        <ele>693.00000</ele>
        <time>2010-01-01T11:06:26Z</time>
      </trkpt>
      <trkpt lat="48.01787800" lon="8.938705950">
        <ele>690.00000</ele>
        <time>2010-01-01T11:06:42Z</time>
      </trkpt>
      <trkpt lat="48.01759500" lon="8.938651970">
        <ele>689.00000</ele>
        <time>2010-01-01T11:07:11Z</time>
      </trkpt>
      <trkpt lat="48.01739300" lon="8.938571000">
        <ele>687.00000</ele>
        <time>2010-01-01T11:07:32Z</time>
      </trkpt>
      <trkpt lat="48.01738390" lon="8.938571000">
        <ele>687.00000</ele>
        <time>2010-01-01T11:07:33Z</time>
      </trkpt>
      <trkpt lat="48.01716400" lon="8.938430020">
        <ele>682.00000</ele>
        <time>2010-01-01T11:07:57Z</time>
      </trkpt>
      <trkpt lat="48.01716400" lon="8.938417030">
        <ele>682.00000</ele>
        <time>2010-01-01T11:07:58Z</time>
      </trkpt>
      <trkpt lat="48.01700890" lon="8.938226010">
        <ele>678.00000</ele>
        <time>2010-01-01T11:08:18Z</time>
      </trkpt>
      <trkpt lat="48.01681600" lon="8.937910010">
        <ele>673.00000</ele>
        <time>2010-01-01T11:08:46Z</time>
      </trkpt>
      <trkpt lat="48.01665900" lon="8.937574980">
        <ele>668.00000</ele>
        <time>2010-01-01T11:09:14Z</time>
      </trkpt>
      <trkpt lat="48.01659590" lon="8.937434000">
        <ele>666.00000</ele>
        <time>2010-01-01T11:09:25Z</time>
      </trkpt>
      <trkpt lat="48.01645700" lon="8.937293020">
        <ele>661.00000</ele>
        <time>2010-01-01T11:09:42Z</time>
      </trkpt>
      <trkpt lat="48.01637590" lon="8.937152030">
        <ele>659.00000</ele>
        <time>2010-01-01T11:09:54Z</time>
      </trkpt>
      <trkpt lat="48.01635800" lon="8.936996970">
        <ele>659.00000</ele>
        <time>2010-01-01T11:10:05Z</time>
      </trkpt>
      <trkpt lat="48.01635800" lon="8.936991020">
        <ele>659.00000</ele>
        <time>2010-01-01T11:10:05Z</time>
      </trkpt>
      <trkpt lat="48.01635290" lon="8.936890010">
        <ele>660.00000</ele>
        <time>2010-01-01T11:10:12Z</time>
      </trkpt>
      <trkpt lat="48.01635800" lon="8.936890010">
        <ele>660.00000</ele>
        <time>2010-01-01T11:10:13Z</time>
      </trkpt>
      <trkpt lat="48.01641200" lon="8.936803010">
        <ele>662.00000</ele>
        <time>2010-01-01T11:10:21Z</time>
      </trkpt>
      <trkpt lat="48.01641600" lon="8.936795970">
        <ele>662.00000</ele>
        <time>2010-01-01T11:10:21Z</time>
      </trkpt>
      <trkpt lat="48.01647400" lon="8.936735030">
        <ele>665.00000</ele>
        <time>2010-01-01T11:10:28Z</time>
      </trkpt>
      <trkpt lat="48.01646490" lon="8.936520040">
        <ele>666.00000</ele>
        <time>2010-01-01T11:10:43Z</time>
      </trkpt>
      <trkpt lat="48.01647000" lon="8.936506960">
        <ele>666.00000</ele>
        <time>2010-01-01T11:10:44Z</time>
      </trkpt>
      <trkpt lat="48.01647400" lon="8.936158020">
        <ele>668.00000</ele>
        <time>2010-01-01T11:11:07Z</time>
      </trkpt>
      <trkpt lat="48.01646100" lon="8.935700960">
        <ele>669.00000</ele>
        <time>2010-01-01T11:11:38Z</time>
      </trkpt>
      <trkpt lat="48.01643000" lon="8.935230980">
        <ele>669.00000</ele>
        <time>2010-01-01T11:12:09Z</time>
      </trkpt>
      <trkpt lat="48.01643000" lon="8.935217990">
        <ele>669.00000</ele>
        <time>2010-01-01T11:12:10Z</time>
      </trkpt>
      <trkpt lat="48.01638900" lon="8.934955970">
        <ele>668.00000</ele>
        <time>2010-01-01T11:12:28Z</time>
      </trkpt>
      <trkpt lat="48.01625900" lon="8.934674010">
        <ele>666.00000</ele>
        <time>2010-01-01T11:12:51Z</time>
      </trkpt>
      <trkpt lat="48.01607000" lon="8.934324980">
        <ele>663.00000</ele>
        <time>2010-01-01T11:13:21Z</time>
      </trkpt>
      <trkpt lat="48.01593700" lon="8.934166990">
        <ele>661.00000</ele>
        <time>2010-01-01T11:13:38Z</time>
      </trkpt>
      <trkpt lat="48.01581200" lon="8.934065980">
        <ele>660.00000</ele>
        <time>2010-01-01T11:13:52Z</time>
      </trkpt>
      <trkpt lat="48.01556900" lon="8.933999010">
        <ele>658.00000</ele>
        <time>2010-01-01T11:14:17Z</time>
      </trkpt>
      <trkpt lat="48.01531800" lon="8.933918960">
        <ele>657.00000</ele>
        <time>2010-01-01T11:14:43Z</time>
      </trkpt>
      <trkpt lat="48.01531290" lon="8.933918960">
        <ele>657.00000</ele>
        <time>2010-01-01T11:14:43Z</time>
      </trkpt>
      <trkpt lat="48.01495390" lon="8.933872030">
        <ele>653.00000</ele>
        <time>2010-01-01T11:15:19Z</time>
      </trkpt>
      <trkpt lat="48.01474300" lon="8.933918960">
        <ele>647.00000</ele>
        <time>2010-01-01T11:15:41Z</time>
      </trkpt>
      <trkpt lat="48.01454990" lon="8.933838000">
        <ele>644.00000</ele>
        <time>2010-01-01T11:16:01Z</time>
      </trkpt>
      <trkpt lat="48.01430300" lon="8.933817960">
        <ele>639.00000</ele>
        <time>2010-01-01T11:16:26Z</time>
      </trkpt>
      <trkpt lat="48.01423490" lon="8.933972020">
        <ele>635.00000</ele>
        <time>2010-01-01T11:16:38Z</time>
      </trkpt>
      <trkpt lat="48.01407790" lon="8.934275030">
        <ele>628.00000</ele>
        <time>2010-01-01T11:17:04Z</time>
      </trkpt>
      <trkpt lat="48.01381300" lon="8.934723960">
        <ele>621.00000</ele>
        <time>2010-01-01T11:17:44Z</time>
      </trkpt>
      <trkpt lat="48.01357490" lon="8.935161000">
        <ele>618.00000</ele>
        <time>2010-01-01T11:18:21Z</time>
      </trkpt>
      <trkpt lat="48.01330090" lon="8.936087030">
        <ele>621.00000</ele>
        <time>2010-01-01T11:19:29Z</time>
      </trkpt>
      <trkpt lat="48.01329200" lon="8.936174950">
        <ele>622.00000</ele>
        <time>2010-01-01T11:19:35Z</time>
      </trkpt>
      <trkpt lat="48.01329200" lon="8.936180990">
        <ele>622.00000</ele>
        <time>2010-01-01T11:19:36Z</time>
      </trkpt>
      <trkpt lat="48.01338590" lon="8.936409980">
        <ele>621.00000</ele>
        <time>2010-01-01T11:19:53Z</time>
      </trkpt>
      <trkpt lat="48.01339500" lon="8.936422970">
        <ele>621.00000</ele>
        <time>2010-01-01T11:19:55Z</time>
      </trkpt>
      <trkpt lat="48.01347190" lon="8.936684990">
        <ele>621.00000</ele>
        <time>2010-01-01T11:20:14Z</time>
      </trkpt>
      <trkpt lat="48.01348890" lon="8.937053960">
        <ele>621.00000</ele>
        <time>2010-01-01T11:20:39Z</time>
      </trkpt>
      <trkpt lat="48.01349400" lon="8.937053960">
        <ele>621.00000</ele>
        <time>2010-01-01T11:20:39Z</time>
      </trkpt>
      <trkpt lat="48.01345400" lon="8.937517990">
        <ele>622.00000</ele>
        <time>2010-01-01T11:21:10Z</time>
      </trkpt>
      <trkpt lat="48.01344900" lon="8.937530980">
        <ele>622.00000</ele>
        <time>2010-01-01T11:21:11Z</time>
      </trkpt>
      <trkpt lat="48.01335000" lon="8.937853010">
        <ele>622.00000</ele>
        <time>2010-01-01T11:21:35Z</time>
      </trkpt>
      <trkpt lat="48.01329200" lon="8.938028030">
        <ele>623.00000</ele>
        <time>2010-01-01T11:21:48Z</time>
      </trkpt>
      <trkpt lat="48.01312590" lon="8.938303040">
        <ele>623.00000</ele>
        <time>2010-01-01T11:22:13Z</time>
      </trkpt>
      <trkpt lat="48.01294090" lon="8.938551980">
        <ele>623.00000</ele>
        <time>2010-01-01T11:22:38Z</time>
      </trkpt>
      <trkpt lat="48.01294600" lon="8.938558010">
        <ele>623.00000</ele>
        <time>2010-01-01T11:22:39Z</time>
      </trkpt>
      <trkpt lat="48.01261800" lon="8.938954980">
        <ele>623.00000</ele>
        <time>2010-01-01T11:23:21Z</time>
      </trkpt>
      <trkpt lat="48.01241090" lon="8.939128990">
        <ele>623.00000</ele>
        <time>2010-01-01T11:23:45Z</time>
      </trkpt>
      <trkpt lat="48.01223590" lon="8.939237030">
        <ele>624.00000</ele>
        <time>2010-01-01T11:24:04Z</time>
      </trkpt>
      <trkpt lat="48.01196690" lon="8.939383970">
        <ele>625.00000</ele>
        <time>2010-01-01T11:24:32Z</time>
      </trkpt>
      <trkpt lat="48.01181400" lon="8.939492010">
        <ele>626.00000</ele>
        <time>2010-01-01T11:24:49Z</time>
      </trkpt>
      <trkpt lat="48.01181000" lon="8.939497960">
        <ele>626.00000</ele>
        <time>2010-01-01T11:24:50Z</time>
      </trkpt>
      <trkpt lat="48.01169700" lon="8.939854020">
        <ele>625.00000</ele>
        <time>2010-01-01T11:25:16Z</time>
      </trkpt>
      <trkpt lat="48.01157190" lon="8.940244030">
        <ele>627.00000</ele>
        <time>2010-01-01T11:25:45Z</time>
      </trkpt>
      <trkpt lat="48.01157190" lon="8.940249980">
        <ele>627.00000</ele>
        <time>2010-01-01T11:25:46Z</time>
      </trkpt>
      <trkpt lat="48.01144590" lon="8.940613000">
        <ele>632.00000</ele>
        <time>2010-01-01T11:26:13Z</time>
      </trkpt>
      <trkpt lat="48.01128390" lon="8.940894970">
        <ele>637.00000</ele>
        <time>2010-01-01T11:26:38Z</time>
      </trkpt>
      <trkpt lat="48.01114000" lon="8.941217000">
        <ele>640.00000</ele>
        <time>2010-01-01T11:27:04Z</time>
      </trkpt>
      <trkpt lat="48.01097900" lon="8.941498970">
        <ele>643.00000</ele>
        <time>2010-01-01T11:27:29Z</time>
      </trkpt>
      <trkpt lat="48.01097390" lon="8.941498970">
        <ele>643.00000</ele>
        <time>2010-01-01T11:27:29Z</time>
      </trkpt>
      <trkpt lat="48.01088390" lon="8.941835000">
        <ele>643.00000</ele>
        <time>2010-01-01T11:27:53Z</time>
      </trkpt>
      <trkpt lat="48.01083890" lon="8.942312020">
        <ele>640.00000</ele>
        <time>2010-01-01T11:28:26Z</time>
      </trkpt>
      <trkpt lat="48.01083890" lon="8.942325010">
        <ele>640.00000</ele>
        <time>2010-01-01T11:28:26Z</time>
      </trkpt>
      <trkpt lat="48.01081700" lon="8.942741000">
        <ele>643.00000</ele>
        <time>2010-01-01T11:28:54Z</time>
      </trkpt>
      <trkpt lat="48.01081700" lon="8.942747960">
        <ele>643.00000</ele>
        <time>2010-01-01T11:28:55Z</time>
      </trkpt>
      <trkpt lat="48.01083500" lon="8.943170990">
        <ele>645.00000</ele>
        <time>2010-01-01T11:29:23Z</time>
      </trkpt>
      <trkpt lat="48.01091090" lon="8.943547010">
        <ele>649.00000</ele>
        <time>2010-01-01T11:29:49Z</time>
      </trkpt>
      <trkpt lat="48.01091090" lon="8.943553960">
        <ele>650.00000</ele>
        <time>2010-01-01T11:29:50Z</time>
      </trkpt>
      <trkpt lat="48.01100090" lon="8.943956960">
        <ele>654.00000</ele>
        <time>2010-01-01T11:30:18Z</time>
      </trkpt>
      <trkpt lat="48.01121490" lon="8.944590970">
        <ele>654.00000</ele>
        <time>2010-01-01T11:31:06Z</time>
      </trkpt>
      <trkpt lat="48.01144390" lon="8.945175020">
        <ele>648.00000</ele>
        <time>2010-01-01T11:31:51Z</time>
      </trkpt>
      <trkpt lat="48.01163700" lon="8.945658990">
        <ele>645.00000</ele>
        <time>2010-01-01T11:32:29Z</time>
      </trkpt>
      <trkpt lat="48.01174000" lon="8.945907010">
        <ele>648.00000</ele>
        <time>2010-01-01T11:32:48Z</time>
      </trkpt>
      <trkpt lat="48.01174490" lon="8.945913970">
        <ele>648.00000</ele>
        <time>2010-01-01T11:32:49Z</time>
      </trkpt>
      <trkpt lat="48.01176700" lon="8.946054950">
        <ele>650.00000</ele>
        <time>2010-01-01T11:32:59Z</time>
      </trkpt>
      <trkpt lat="48.01167690" lon="8.946141960">
        <ele>651.00000</ele>
        <time>2010-01-01T11:33:10Z</time>
      </trkpt>
      <trkpt lat="48.01156700" lon="8.946240030">
        <ele>657.00000</ele>
        <time>2010-01-01T11:33:22Z</time>
      </trkpt>
      <trkpt lat="48.01152700" lon="8.946319990">
        <ele>660.00000</ele>
        <time>2010-01-01T11:33:29Z</time>
      </trkpt>
      <trkpt lat="48.01152700" lon="8.946406990">
        <ele>661.00000</ele>
        <time>2010-01-01T11:33:35Z</time>
      </trkpt>
      <trkpt lat="48.01132890" lon="8.946386960">
        <ele>668.00000</ele>
        <time>2010-01-01T11:33:55Z</time>
      </trkpt>
      <trkpt lat="48.01114900" lon="8.946428030">
        <ele>675.00000</ele>
        <time>2010-01-01T11:34:13Z</time>
      </trkpt>
      <trkpt lat="48.01082590" lon="8.946574970">
        <ele>685.00000</ele>
        <time>2010-01-01T11:34:47Z</time>
      </trkpt>
      <trkpt lat="48.01057500" lon="8.946702960">
        <ele>690.00000</ele>
        <time>2010-01-01T11:35:13Z</time>
      </trkpt>
      <trkpt lat="48.01025090" lon="8.946797000">
        <ele>699.00000</ele>
        <time>2010-01-01T11:35:46Z</time>
      </trkpt>
      <trkpt lat="48.00989590" lon="8.946816950">
        <ele>708.00000</ele>
        <time>2010-01-01T11:36:22Z</time>
      </trkpt>
      <trkpt lat="48.00930490" lon="8.946846960">
        <ele>720.00000</ele>
        <time>2010-01-01T11:37:21Z</time>
      </trkpt>
      <trkpt lat="48.00908990" lon="8.946866990">
        <ele>724.00000</ele>
        <time>2010-01-01T11:37:43Z</time>
      </trkpt>
      <trkpt lat="48.00891000" lon="8.947015020">
        <ele>729.00000</ele>
        <time>2010-01-01T11:38:03Z</time>
      </trkpt>
      <trkpt lat="48.00875690" lon="8.947129010">
        <ele>731.00000</ele>
        <time>2010-01-01T11:38:20Z</time>
      </trkpt>
      <trkpt lat="48.00850600" lon="8.947410980">
        <ele>731.00000</ele>
        <time>2010-01-01T11:38:52Z</time>
      </trkpt>
      <trkpt lat="48.00832590" lon="8.947519020">
        <ele>731.00000</ele>
        <time>2010-01-01T11:39:11Z</time>
      </trkpt>
      <trkpt lat="48.00804300" lon="8.948256960">
        <ele>736.00000</ele>
        <time>2010-01-01T11:40:08Z</time>
      </trkpt>
      <trkpt lat="48.00780300" lon="8.948341030">
        <ele>736.00000</ele>
        <time>2010-01-01T11:40:33Z</time>
      </trkpt>
      <trkpt lat="48.00719190" lon="8.948240960">
        <ele>740.00000</ele>
        <time>2010-01-01T11:41:34Z</time>
      </trkpt>
      <trkpt lat="48.00734000" lon="8.948509010">
        <ele>739.00000</ele>
        <time>2010-01-01T11:41:58Z</time>
      </trkpt>
      <trkpt lat="48.00734890" lon="8.948523010">
        <ele>739.00000</ele>
        <time>2010-01-01T11:41:59Z</time>
      </trkpt>
      <trkpt lat="48.00762290" lon="8.948790980">
        <ele>741.00000</ele>
        <time>2010-01-01T11:42:32Z</time>
      </trkpt>
      <trkpt lat="48.00807300" lon="8.948951990">
        <ele>743.00000</ele>
        <time>2010-01-01T11:43:18Z</time>
      </trkpt>
      <trkpt lat="48.00807690" lon="8.948951990">
        <ele>743.00000</ele>
        <time>2010-01-01T11:43:18Z</time>
      </trkpt>
      <trkpt lat="48.00813100" lon="8.948965990">
        <ele>743.00000</ele>
        <time>2010-01-01T11:43:24Z</time>
      </trkpt>
      <trkpt lat="48.00813990" lon="8.948965990">
        <ele>743.00000</ele>
        <time>2010-01-01T11:43:25Z</time>
      </trkpt>
      <trkpt lat="48.00824800" lon="8.949119970">
        <ele>745.00000</ele>
        <time>2010-01-01T11:43:40Z</time>
      </trkpt>
      <trkpt lat="48.00825190" lon="8.949119970">
        <ele>745.00000</ele>
        <time>2010-01-01T11:43:40Z</time>
      </trkpt>
      <trkpt lat="48.00830600" lon="8.949367990">
        <ele>746.00000</ele>
        <time>2010-01-01T11:43:58Z</time>
      </trkpt>
      <trkpt lat="48.00836490" lon="8.949180990">
        <ele>745.00000</ele>
        <time>2010-01-01T11:44:11Z</time>
      </trkpt>
      <trkpt lat="48.00837400" lon="8.949180990">
        <ele>746.00000</ele>
        <time>2010-01-01T11:44:12Z</time>
      </trkpt>
      <trkpt lat="48.00848590" lon="8.949100020">
        <ele>746.00000</ele>
        <time>2010-01-01T11:44:25Z</time>
      </trkpt>
      <trkpt lat="48.00853100" lon="8.949113010">
        <ele>747.00000</ele>
        <time>2010-01-01T11:44:29Z</time>
      </trkpt>
      <trkpt lat="48.00885390" lon="8.949408970">
        <ele>750.00000</ele>
        <time>2010-01-01T11:45:07Z</time>
      </trkpt>
      <trkpt lat="48.00881390" lon="8.949677030">
        <ele>748.00000</ele>
        <time>2010-01-01T11:45:26Z</time>
      </trkpt>
      <trkpt lat="48.00881390" lon="8.949683980">
        <ele>748.00000</ele>
        <time>2010-01-01T11:45:26Z</time>
      </trkpt>
      <trkpt lat="48.00877800" lon="8.949865030">
        <ele>747.00000</ele>
        <time>2010-01-01T11:45:39Z</time>
      </trkpt>
      <trkpt lat="48.00865590" lon="8.950200980">
        <ele>745.00000</ele>
        <time>2010-01-01T11:46:04Z</time>
      </trkpt>
      <trkpt lat="48.00845900" lon="8.950523010">
        <ele>744.00000</ele>
        <time>2010-01-01T11:46:33Z</time>
      </trkpt>
      <trkpt lat="48.00835090" lon="8.950469950">
        <ele>746.00000</ele>
        <time>2010-01-01T11:46:45Z</time>
      </trkpt>
      <trkpt lat="48.00834700" lon="8.950469950">
        <ele>746.00000</ele>
        <time>2010-01-01T11:46:45Z</time>
      </trkpt>
      <trkpt lat="48.00826590" lon="8.950442960">
        <ele>747.00000</ele>
        <time>2010-01-01T11:46:54Z</time>
      </trkpt>
      <trkpt lat="48.00826590" lon="8.950449000">
        <ele>747.00000</ele>
        <time>2010-01-01T11:46:54Z</time>
      </trkpt>
      <trkpt lat="48.00798700" lon="8.950529970">
        <ele>750.00000</ele>
        <time>2010-01-01T11:47:22Z</time>
      </trkpt>
      <trkpt lat="48.00798700" lon="8.950537010">
        <ele>750.00000</ele>
        <time>2010-01-01T11:47:23Z</time>
      </trkpt>
      <trkpt lat="48.00780300" lon="8.950643960">
        <ele>751.00000</ele>
        <time>2010-01-01T11:47:43Z</time>
      </trkpt>
      <trkpt lat="48.00761000" lon="8.950785030">
        <ele>754.00000</ele>
        <time>2010-01-01T11:48:04Z</time>
      </trkpt>
      <trkpt lat="48.00759600" lon="8.950791990">
        <ele>754.00000</ele>
        <time>2010-01-01T11:48:06Z</time>
      </trkpt>
      <trkpt lat="48.00741200" lon="8.950831970">
        <ele>757.00000</ele>
        <time>2010-01-01T11:48:24Z</time>
      </trkpt>
      <trkpt lat="48.00726390" lon="8.951046960">
        <ele>761.00000</ele>
        <time>2010-01-01T11:48:45Z</time>
      </trkpt>
      <trkpt lat="48.00715600" lon="8.951247960">
        <ele>763.00000</ele>
        <time>2010-01-01T11:49:02Z</time>
      </trkpt>
      <trkpt lat="48.00714490" lon="8.951387020">
        <ele>764.00000</ele>
        <time>2010-01-01T11:49:12Z</time>
      </trkpt>
      <trkpt lat="48.00717690" lon="8.951716010">
        <ele>764.00000</ele>
        <time>2010-01-01T11:49:34Z</time>
      </trkpt>
      <trkpt lat="48.00717190" lon="8.951749030">
        <ele>764.00000</ele>
        <time>2010-01-01T11:49:36Z</time>
      </trkpt>
      <trkpt lat="48.00708200" lon="8.952574990">
        <ele>769.00000</ele>
        <time>2010-01-01T11:50:32Z</time>
      </trkpt>
      <trkpt lat="48.00731990" lon="8.952728960">
        <ele>765.00000</ele>
        <time>2010-01-01T11:50:58Z</time>
      </trkpt>
      <trkpt lat="48.00737890" lon="8.953602020">
        <ele>771.00000</ele>
        <time>2010-01-01T11:51:57Z</time>
      </trkpt>
      <trkpt lat="48.00738300" lon="8.953602020">
        <ele>771.00000</ele>
        <time>2010-01-01T11:51:57Z</time>
      </trkpt>
      <trkpt lat="48.00747790" lon="8.954334010">
        <ele>776.00000</ele>
        <time>2010-01-01T11:52:47Z</time>
      </trkpt>
      <trkpt lat="48.00748200" lon="8.954334010">
        <ele>776.00000</ele>
        <time>2010-01-01T11:52:48Z</time>
      </trkpt>
      <trkpt lat="48.00766590" lon="8.955381000">
        <ele>782.00000</ele>
        <time>2010-01-01T11:54:00Z</time>
      </trkpt>
      <trkpt lat="48.00771100" lon="8.955643010">
        <ele>783.00000</ele>
        <time>2010-01-01T11:54:18Z</time>
      </trkpt>
      <trkpt lat="48.00771600" lon="8.955643010">
        <ele>783.00000</ele>
        <time>2010-01-01T11:54:19Z</time>
      </trkpt>
      <trkpt lat="48.00786900" lon="8.955972000">
        <ele>782.00000</ele>
        <time>2010-01-01T11:54:45Z</time>
      </trkpt>
      <trkpt lat="48.00787300" lon="8.955978960">
        <ele>782.00000</ele>
        <time>2010-01-01T11:54:46Z</time>
      </trkpt>
      <trkpt lat="48.00799900" lon="8.956147020">
        <ele>780.00000</ele>
        <time>2010-01-01T11:55:03Z</time>
      </trkpt>
      <trkpt lat="48.00804800" lon="8.956402000">
        <ele>778.00000</ele>
        <time>2010-01-01T11:55:21Z</time>
      </trkpt>
      <trkpt lat="48.00806200" lon="8.956414990">
        <ele>778.00000</ele>
        <time>2010-01-01T11:55:22Z</time>
      </trkpt>
      <trkpt lat="48.00811090" lon="8.956590000">
        <ele>777.00000</ele>
        <time>2010-01-01T11:55:35Z</time>
      </trkpt>
      <trkpt lat="48.00814890" lon="8.956996020">
        <ele>777.00000</ele>
        <time>2010-01-01T11:56:03Z</time>
      </trkpt>
      <trkpt lat="48.00833790" lon="8.957124010">
        <ele>777.00000</ele>
        <time>2010-01-01T11:56:23Z</time>
      </trkpt>
      <trkpt lat="48.00840990" lon="8.957331970">
        <ele>778.00000</ele>
        <time>2010-01-01T11:56:39Z</time>
      </trkpt>
      <trkpt lat="48.00840990" lon="8.957391980">
        <ele>778.00000</ele>
        <time>2010-01-01T11:56:43Z</time>
      </trkpt>
      <trkpt lat="48.00858090" lon="8.957587030">
        <ele>777.00000</ele>
        <time>2010-01-01T11:57:04Z</time>
      </trkpt>
      <trkpt lat="48.00863500" lon="8.957802020">
        <ele>775.00000</ele>
        <time>2010-01-01T11:57:20Z</time>
      </trkpt>
      <trkpt lat="48.00860300" lon="8.958197990">
        <ele>773.00000</ele>
        <time>2010-01-01T11:57:47Z</time>
      </trkpt>
      <trkpt lat="48.00860300" lon="8.958224980">
        <ele>773.00000</ele>
        <time>2010-01-01T11:57:48Z</time>
      </trkpt>
      <trkpt lat="48.00852200" lon="8.958942970">
        <ele>772.00000</ele>
        <time>2010-01-01T11:58:37Z</time>
      </trkpt>
      <trkpt lat="48.00844600" lon="8.959459960">
        <ele>774.00000</ele>
        <time>2010-01-01T11:59:13Z</time>
      </trkpt>
      <trkpt lat="48.00844600" lon="8.959870010">
        <ele>773.00000</ele>
        <time>2010-01-01T11:59:40Z</time>
      </trkpt>
      <trkpt lat="48.00844600" lon="8.959876960">
        <ele>773.00000</ele>
        <time>2010-01-01T11:59:40Z</time>
      </trkpt>
      <trkpt lat="48.00845000" lon="8.961299960">
        <ele>758.00000</ele>
        <time>2010-01-01T12:01:16Z</time>
      </trkpt>
      <trkpt lat="48.00830700" lon="8.961656020">
        <ele>756.00000</ele>
        <time>2010-01-01T12:01:44Z</time>
      </trkpt>
      <trkpt lat="48.00843690" lon="8.961830030">
        <ele>754.00000</ele>
        <time>2010-01-01T12:02:01Z</time>
      </trkpt>
      <trkpt lat="48.00843500" lon="8.962606030">
        <ele>758.00000</ele>
        <time>2010-01-01T12:02:53Z</time>
      </trkpt>
      <trkpt lat="48.00844400" lon="8.963150010">
        <ele>765.00000</ele>
        <time>2010-01-01T12:03:29Z</time>
      </trkpt>
      <trkpt lat="48.00845290" lon="8.963163010">
        <ele>766.00000</ele>
        <time>2010-01-01T12:03:31Z</time>
      </trkpt>
      <trkpt lat="48.00851090" lon="8.963539020">
        <ele>770.00000</ele>
        <time>2010-01-01T12:03:56Z</time>
      </trkpt>
      <trkpt lat="48.00867700" lon="8.963706990">
        <ele>773.00000</ele>
        <time>2010-01-01T12:04:17Z</time>
      </trkpt>
      <trkpt lat="48.00892400" lon="8.963706990">
        <ele>775.00000</ele>
        <time>2010-01-01T12:04:41Z</time>
      </trkpt>
      <trkpt lat="48.00893800" lon="8.963694000">
        <ele>775.00000</ele>
        <time>2010-01-01T12:04:43Z</time>
      </trkpt>
      <trkpt lat="48.00910800" lon="8.963613030">
        <ele>776.00000</ele>
        <time>2010-01-01T12:05:01Z</time>
      </trkpt>
      <trkpt lat="48.00914900" lon="8.963439020">
        <ele>775.00000</ele>
        <time>2010-01-01T12:05:13Z</time>
      </trkpt>
      <trkpt lat="48.00928790" lon="8.963264010">
        <ele>774.00000</ele>
        <time>2010-01-01T12:05:31Z</time>
      </trkpt>
      <trkpt lat="48.00929300" lon="8.963264010">
        <ele>774.00000</ele>
        <time>2010-01-01T12:05:32Z</time>
      </trkpt>
      <trkpt lat="48.00969190" lon="8.962861010">
        <ele>772.00000</ele>
        <time>2010-01-01T12:06:20Z</time>
      </trkpt>
      <trkpt lat="48.01000690" lon="8.962472000">
        <ele>770.00000</ele>
        <time>2010-01-01T12:07:01Z</time>
      </trkpt>
      <trkpt lat="48.01015490" lon="8.962162960">
        <ele>768.00000</ele>
        <time>2010-01-01T12:07:26Z</time>
      </trkpt>
      <trkpt lat="48.01038800" lon="8.961398030">
        <ele>765.00000</ele>
        <time>2010-01-01T12:08:23Z</time>
      </trkpt>
      <trkpt lat="48.01042900" lon="8.961250000">
        <ele>765.00000</ele>
        <time>2010-01-01T12:08:33Z</time>
      </trkpt>
      <trkpt lat="48.01043790" lon="8.961242960">
        <ele>766.00000</ele>
        <time>2010-01-01T12:08:34Z</time>
      </trkpt>
      <trkpt lat="48.01053690" lon="8.960733010">
        <ele>764.00000</ele>
        <time>2010-01-01T12:09:10Z</time>
      </trkpt>
      <trkpt lat="48.01058590" lon="8.960483980">
        <ele>763.00000</ele>
        <time>2010-01-01T12:09:27Z</time>
      </trkpt>
      <trkpt lat="48.01059100" lon="8.960478030">
        <ele>763.00000</ele>
        <time>2010-01-01T12:09:28Z</time>
      </trkpt>
      <trkpt lat="48.01063990" lon="8.960357000">
        <ele>762.00000</ele>
        <time>2010-01-01T12:09:37Z</time>
      </trkpt>
      <trkpt lat="48.01064500" lon="8.960349960">
        <ele>762.00000</ele>
        <time>2010-01-01T12:09:38Z</time>
      </trkpt>
      <trkpt lat="48.01080600" lon="8.960229000">
        <ele>763.00000</ele>
        <time>2010-01-01T12:09:56Z</time>
      </trkpt>
      <trkpt lat="48.01093990" lon="8.960290020">
        <ele>765.00000</ele>
        <time>2010-01-01T12:10:10Z</time>
      </trkpt>
      <trkpt lat="48.01109300" lon="8.960423970">
        <ele>767.00000</ele>
        <time>2010-01-01T12:10:28Z</time>
      </trkpt>
      <trkpt lat="48.01109790" lon="8.960423970">
        <ele>767.00000</ele>
        <time>2010-01-01T12:10:28Z</time>
      </trkpt>
      <trkpt lat="48.01138490" lon="8.960483980">
        <ele>769.00000</ele>
        <time>2010-01-01T12:10:57Z</time>
      </trkpt>
      <trkpt lat="48.01139400" lon="8.960478030">
        <ele>768.00000</ele>
        <time>2010-01-01T12:10:58Z</time>
      </trkpt>
      <trkpt lat="48.01164100" lon="8.960551960">
        <ele>771.00000</ele>
        <time>2010-01-01T12:11:24Z</time>
      </trkpt>
      <trkpt lat="48.01164590" lon="8.960551960">
        <ele>771.00000</ele>
        <time>2010-01-01T12:11:24Z</time>
      </trkpt>
      <trkpt lat="48.01193290" lon="8.960450960">
        <ele>768.00000</ele>
        <time>2010-01-01T12:11:54Z</time>
      </trkpt>
      <trkpt lat="48.01193690" lon="8.960436960">
        <ele>768.00000</ele>
        <time>2010-01-01T12:11:55Z</time>
      </trkpt>
      <trkpt lat="48.01213100" lon="8.960390020">
        <ele>767.00000</ele>
        <time>2010-01-01T12:12:14Z</time>
      </trkpt>
      <trkpt lat="48.01214000" lon="8.960383990">
        <ele>767.00000</ele>
        <time>2010-01-01T12:12:15Z</time>
      </trkpt>
      <trkpt lat="48.01251190" lon="8.960121970">
        <ele>763.00000</ele>
        <time>2010-01-01T12:12:56Z</time>
      </trkpt>
      <trkpt lat="48.01267890" lon="8.960195980">
        <ele>764.00000</ele>
        <time>2010-01-01T12:13:14Z</time>
      </trkpt>
      <trkpt lat="48.01272290" lon="8.960282980">
        <ele>765.00000</ele>
        <time>2010-01-01T12:13:21Z</time>
      </trkpt>
      <trkpt lat="48.01275900" lon="8.960578030">
        <ele>769.00000</ele>
        <time>2010-01-01T12:13:41Z</time>
      </trkpt>
      <trkpt lat="48.01283100" lon="8.960545000">
        <ele>768.00000</ele>
        <time>2010-01-01T12:13:49Z</time>
      </trkpt>
      <trkpt lat="48.01312790" lon="8.960545000">
        <ele>766.00000</ele>
        <time>2010-01-01T12:14:19Z</time>
      </trkpt>
      <trkpt lat="48.01380490" lon="8.960725970">
        <ele>752.00000</ele>
        <time>2010-01-01T12:15:27Z</time>
      </trkpt>
      <trkpt lat="48.01390000" lon="8.960772990">
        <ele>750.00000</ele>
        <time>2010-01-01T12:15:37Z</time>
      </trkpt>
      <trkpt lat="48.01383190" lon="8.960826970">
        <ele>752.00000</ele>
        <time>2010-01-01T12:15:45Z</time>
      </trkpt>
      <trkpt lat="48.01396700" lon="8.960907020">
        <ele>747.00000</ele>
        <time>2010-01-01T12:16:00Z</time>
      </trkpt>
      <trkpt lat="48.01384100" lon="8.960987990">
        <ele>749.00000</ele>
        <time>2010-01-01T12:16:13Z</time>
      </trkpt>
      <trkpt lat="48.01384590" lon="8.960987990">
        <ele>749.00000</ele>
        <time>2010-01-01T12:16:14Z</time>
      </trkpt>
      <trkpt lat="48.01398500" lon="8.961054960">
        <ele>743.00000</ele>
        <time>2010-01-01T12:16:28Z</time>
      </trkpt>
      <trkpt lat="48.01388200" lon="8.961109020">
        <ele>746.00000</ele>
        <time>2010-01-01T12:16:39Z</time>
      </trkpt>
      <trkpt lat="48.01407000" lon="8.961175990">
        <ele>738.00000</ele>
        <time>2010-01-01T12:16:59Z</time>
      </trkpt>
      <trkpt lat="48.01391790" lon="8.961270040">
        <ele>741.00000</ele>
        <time>2010-01-01T12:17:15Z</time>
      </trkpt>
      <trkpt lat="48.01393090" lon="8.961270040">
        <ele>741.00000</ele>
        <time>2010-01-01T12:17:16Z</time>
      </trkpt>
      <trkpt lat="48.01413790" lon="8.961351010">
        <ele>731.00000</ele>
        <time>2010-01-01T12:17:38Z</time>
      </trkpt>
      <trkpt lat="48.01393590" lon="8.961430970">
        <ele>738.00000</ele>
        <time>2010-01-01T12:17:59Z</time>
      </trkpt>
      <trkpt lat="48.01394000" lon="8.961430970">
        <ele>737.00000</ele>
        <time>2010-01-01T12:17:59Z</time>
      </trkpt>
      <trkpt lat="48.01378300" lon="8.961558960">
        <ele>742.00000</ele>
        <time>2010-01-01T12:18:17Z</time>
      </trkpt>
      <trkpt lat="48.01354000" lon="8.961888030">
        <ele>746.00000</ele>
        <time>2010-01-01T12:18:50Z</time>
      </trkpt>
      <trkpt lat="48.01313200" lon="8.962565960">
        <ele>748.00000</ele>
        <time>2010-01-01T12:19:51Z</time>
      </trkpt>
      <trkpt lat="48.01313200" lon="8.962573000">
        <ele>747.00000</ele>
        <time>2010-01-01T12:19:51Z</time>
      </trkpt>
      <trkpt lat="48.01291190" lon="8.963015990">
        <ele>749.00000</ele>
        <time>2010-01-01T12:20:28Z</time>
      </trkpt>
      <trkpt lat="48.01277190" lon="8.963224030">
        <ele>753.00000</ele>
        <time>2010-01-01T12:20:48Z</time>
      </trkpt>
      <trkpt lat="48.01273600" lon="8.963452010">
        <ele>751.00000</ele>
        <time>2010-01-01T12:21:04Z</time>
      </trkpt>
      <trkpt lat="48.01273600" lon="8.963466010">
        <ele>751.00000</ele>
        <time>2010-01-01T12:21:05Z</time>
      </trkpt>
      <trkpt lat="48.01278090" lon="8.963861970">
        <ele>741.00000</ele>
        <time>2010-01-01T12:21:32Z</time>
      </trkpt>
      <trkpt lat="48.01278090" lon="8.963882010">
        <ele>740.00000</ele>
        <time>2010-01-01T12:21:33Z</time>
      </trkpt>
      <trkpt lat="48.01280400" lon="8.964203950">
        <ele>733.00000</ele>
        <time>2010-01-01T12:21:55Z</time>
      </trkpt>
      <trkpt lat="48.01280800" lon="8.964237980">
        <ele>732.00000</ele>
        <time>2010-01-01T12:21:57Z</time>
      </trkpt>
      <trkpt lat="48.01280400" lon="8.964411990">
        <ele>730.00000</ele>
        <time>2010-01-01T12:22:09Z</time>
      </trkpt>
      <trkpt lat="48.01257300" lon="8.965026970">
        <ele>727.00000</ele>
        <time>2010-01-01T12:22:56Z</time>
      </trkpt>
      <trkpt lat="48.01257700" lon="8.965033010">
        <ele>726.00000</ele>
        <time>2010-01-01T12:22:56Z</time>
      </trkpt>
      <trkpt lat="48.01239290" lon="8.965556960">
        <ele>723.00000</ele>
        <time>2010-01-01T12:23:36Z</time>
      </trkpt>
      <trkpt lat="48.01231190" lon="8.965765000">
        <ele>722.00000</ele>
        <time>2010-01-01T12:23:52Z</time>
      </trkpt>
      <trkpt lat="48.01229900" lon="8.966060960">
        <ele>721.00000</ele>
        <time>2010-01-01T12:24:12Z</time>
      </trkpt>
      <trkpt lat="48.01229900" lon="8.966073960">
        <ele>721.00000</ele>
        <time>2010-01-01T12:24:13Z</time>
      </trkpt>
      <trkpt lat="48.01235700" lon="8.966510990">
        <ele>717.00000</ele>
        <time>2010-01-01T12:24:43Z</time>
      </trkpt>
      <trkpt lat="48.01235700" lon="8.966517020">
        <ele>717.00000</ele>
        <time>2010-01-01T12:24:43Z</time>
      </trkpt>
      <trkpt lat="48.01233890" lon="8.966873000">
        <ele>718.00000</ele>
        <time>2010-01-01T12:25:07Z</time>
      </trkpt>
      <trkpt lat="48.01229900" lon="8.967135020">
        <ele>720.00000</ele>
        <time>2010-01-01T12:25:25Z</time>
      </trkpt>
      <trkpt lat="48.01230790" lon="8.967363010">
        <ele>720.00000</ele>
        <time>2010-01-01T12:25:40Z</time>
      </trkpt>
      <trkpt lat="48.01230790" lon="8.967369970">
        <ele>721.00000</ele>
        <time>2010-01-01T12:25:41Z</time>
      </trkpt>
      <trkpt lat="48.01243790" lon="8.967369970">
        <ele>718.00000</ele>
        <time>2010-01-01T12:25:54Z</time>
      </trkpt>
      <trkpt lat="48.01244200" lon="8.967369970">
        <ele>718.00000</ele>
        <time>2010-01-01T12:25:54Z</time>
      </trkpt>
      <trkpt lat="48.01280200" lon="8.967175000">
        <ele>727.00000</ele>
        <time>2010-01-01T12:26:33Z</time>
      </trkpt>
      <trkpt lat="48.01281090" lon="8.967168970">
        <ele>727.00000</ele>
        <time>2010-01-01T12:26:33Z</time>
      </trkpt>
      <trkpt lat="48.01329990" lon="8.966738980">
        <ele>740.00000</ele>
        <time>2010-01-01T12:27:30Z</time>
      </trkpt>
      <trkpt lat="48.01326890" lon="8.966912990">
        <ele>741.00000</ele>
        <time>2010-01-01T12:27:42Z</time>
      </trkpt>
      <trkpt lat="48.01351590" lon="8.966719030">
        <ele>746.00000</ele>
        <time>2010-01-01T12:28:10Z</time>
      </trkpt>
      <trkpt lat="48.01352500" lon="8.966719030">
        <ele>747.00000</ele>
        <time>2010-01-01T12:28:11Z</time>
      </trkpt>
      <trkpt lat="48.01393290" lon="8.966563960">
        <ele>757.00000</ele>
        <time>2010-01-01T12:28:53Z</time>
      </trkpt>
      <trkpt lat="48.01414500" lon="8.966362960">
        <ele>759.00000</ele>
        <time>2010-01-01T12:29:18Z</time>
      </trkpt>
      <trkpt lat="48.01436900" lon="8.966188030">
        <ele>760.00000</ele>
        <time>2010-01-01T12:29:44Z</time>
      </trkpt>
      <trkpt lat="48.01444990" lon="8.966093990">
        <ele>759.00000</ele>
        <time>2010-01-01T12:29:54Z</time>
      </trkpt>
      <trkpt lat="48.01463790" lon="8.965927020">
        <ele>760.00000</ele>
        <time>2010-01-01T12:30:16Z</time>
      </trkpt>
      <trkpt lat="48.01482290" lon="8.965946970">
        <ele>763.00000</ele>
        <time>2010-01-01T12:30:34Z</time>
      </trkpt>
      <trkpt lat="48.01489390" lon="8.966019980">
        <ele>765.00000</ele>
        <time>2010-01-01T12:30:43Z</time>
      </trkpt>
      <trkpt lat="48.01494400" lon="8.966101030">
        <ele>767.00000</ele>
        <time>2010-01-01T12:30:50Z</time>
      </trkpt>
      <trkpt lat="48.01514600" lon="8.966476960">
        <ele>770.00000</ele>
        <time>2010-01-01T12:31:23Z</time>
      </trkpt>
      <trkpt lat="48.01515000" lon="8.966484000">
        <ele>770.00000</ele>
        <time>2010-01-01T12:31:23Z</time>
      </trkpt>
      <trkpt lat="48.01527190" lon="8.966724980">
        <ele>770.00000</ele>
        <time>2010-01-01T12:31:44Z</time>
      </trkpt>
      <trkpt lat="48.01528100" lon="8.966724980">
        <ele>770.00000</ele>
        <time>2010-01-01T12:31:44Z</time>
      </trkpt>
      <trkpt lat="48.01536990" lon="8.966953970">
        <ele>770.00000</ele>
        <time>2010-01-01T12:32:02Z</time>
      </trkpt>
      <trkpt lat="48.01536990" lon="8.966961010">
        <ele>770.00000</ele>
        <time>2010-01-01T12:32:03Z</time>
      </trkpt>
      <trkpt lat="48.01539300" lon="8.967443980">
        <ele>773.00000</ele>
        <time>2010-01-01T12:32:35Z</time>
      </trkpt>
      <trkpt lat="48.01539690" lon="8.967451020">
        <ele>773.00000</ele>
        <time>2010-01-01T12:32:36Z</time>
      </trkpt>
      <trkpt lat="48.01546890" lon="8.967973970">
        <ele>773.00000</ele>
        <time>2010-01-01T12:33:11Z</time>
      </trkpt>
      <trkpt lat="48.01547390" lon="8.967973970">
        <ele>773.00000</ele>
        <time>2010-01-01T12:33:12Z</time>
      </trkpt>
      <trkpt lat="48.01555500" lon="8.968458020">
        <ele>772.00000</ele>
        <time>2010-01-01T12:33:45Z</time>
      </trkpt>
      <trkpt lat="48.01566190" lon="8.968559020">
        <ele>770.00000</ele>
        <time>2010-01-01T12:33:58Z</time>
      </trkpt>
      <trkpt lat="48.01566700" lon="8.968559020">
        <ele>770.00000</ele>
        <time>2010-01-01T12:33:58Z</time>
      </trkpt>
      <trkpt lat="48.01574290" lon="8.968705960">
        <ele>768.00000</ele>
        <time>2010-01-01T12:34:11Z</time>
      </trkpt>
      <trkpt lat="48.01575690" lon="8.968733030">
        <ele>768.00000</ele>
        <time>2010-01-01T12:34:13Z</time>
      </trkpt>
      <trkpt lat="48.01579300" lon="8.968961020">
        <ele>766.00000</ele>
        <time>2010-01-01T12:34:29Z</time>
      </trkpt>
      <trkpt lat="48.01579700" lon="8.968975020">
        <ele>766.00000</ele>
        <time>2010-01-01T12:34:30Z</time>
      </trkpt>
      <trkpt lat="48.01581100" lon="8.969163020">
        <ele>765.00000</ele>
        <time>2010-01-01T12:34:43Z</time>
      </trkpt>
      <trkpt lat="48.01581100" lon="8.969209960">
        <ele>765.00000</ele>
        <time>2010-01-01T12:34:46Z</time>
      </trkpt>
      <trkpt lat="48.01576600" lon="8.969452030">
        <ele>762.00000</ele>
        <time>2010-01-01T12:35:03Z</time>
      </trkpt>
      <trkpt lat="48.01575690" lon="8.969457980">
        <ele>762.00000</ele>
        <time>2010-01-01T12:35:04Z</time>
      </trkpt>
      <trkpt lat="48.01550500" lon="8.969833990">
        <ele>762.00000</ele>
        <time>2010-01-01T12:35:39Z</time>
      </trkpt>
      <trkpt lat="48.01539300" lon="8.970048990">
        <ele>762.00000</ele>
        <time>2010-01-01T12:35:57Z</time>
      </trkpt>
      <trkpt lat="48.01533500" lon="8.970350990">
        <ele>761.00000</ele>
        <time>2010-01-01T12:36:18Z</time>
      </trkpt>
      <trkpt lat="48.01530600" lon="8.970575960">
        <ele>760.00000</ele>
        <time>2010-01-01T12:36:34Z</time>
      </trkpt>
      <trkpt lat="48.01531000" lon="8.970575960">
        <ele>760.00000</ele>
        <time>2010-01-01T12:36:34Z</time>
      </trkpt>
      <trkpt lat="48.01548990" lon="8.970885000">
        <ele>751.00000</ele>
        <time>2010-01-01T12:37:02Z</time>
      </trkpt>
      <trkpt lat="48.01543090" lon="8.971052980">
        <ele>752.00000</ele>
        <time>2010-01-01T12:37:14Z</time>
      </trkpt>
      <trkpt lat="48.01557090" lon="8.971006040">
        <ele>748.00000</ele>
        <time>2010-01-01T12:37:29Z</time>
      </trkpt>
      <trkpt lat="48.01557490" lon="8.971006040">
        <ele>748.00000</ele>
        <time>2010-01-01T12:37:29Z</time>
      </trkpt>
      <trkpt lat="48.01562000" lon="8.971308040">
        <ele>745.00000</ele>
        <time>2010-01-01T12:37:50Z</time>
      </trkpt>
      <trkpt lat="48.01571000" lon="8.971213990">
        <ele>743.00000</ele>
        <time>2010-01-01T12:38:01Z</time>
      </trkpt>
      <trkpt lat="48.01590290" lon="8.971308040">
        <ele>740.00000</ele>
        <time>2010-01-01T12:38:21Z</time>
      </trkpt>
      <trkpt lat="48.01590290" lon="8.971314990">
        <ele>740.00000</ele>
        <time>2010-01-01T12:38:22Z</time>
      </trkpt>
      <trkpt lat="48.01571890" lon="8.971455980">
        <ele>742.00000</ele>
        <time>2010-01-01T12:38:42Z</time>
      </trkpt>
      <trkpt lat="48.01577690" lon="8.971629990">
        <ele>740.00000</ele>
        <time>2010-01-01T12:38:55Z</time>
      </trkpt>
      <trkpt lat="48.01609190" lon="8.971691010">
        <ele>740.00000</ele>
        <time>2010-01-01T12:39:27Z</time>
      </trkpt>
      <trkpt lat="48.01612700" lon="8.971604000">
        <ele>740.00000</ele>
        <time>2010-01-01T12:39:34Z</time>
      </trkpt>
      <trkpt lat="48.01613190" lon="8.971495960">
        <ele>739.00000</ele>
        <time>2010-01-01T12:39:41Z</time>
      </trkpt>
      <trkpt lat="48.01614100" lon="8.971495960">
        <ele>739.00000</ele>
        <time>2010-01-01T12:39:42Z</time>
      </trkpt>
      <trkpt lat="48.01632090" lon="8.971670970">
        <ele>740.00000</ele>
        <time>2010-01-01T12:40:03Z</time>
      </trkpt>
      <trkpt lat="48.01645500" lon="8.971953020">
        <ele>744.00000</ele>
        <time>2010-01-01T12:40:27Z</time>
      </trkpt>
      <trkpt lat="48.01648700" lon="8.972121000">
        <ele>746.00000</ele>
        <time>2010-01-01T12:40:38Z</time>
      </trkpt>
      <trkpt lat="48.01644600" lon="8.972470020">
        <ele>751.00000</ele>
        <time>2010-01-01T12:41:02Z</time>
      </trkpt>
      <trkpt lat="48.01630100" lon="8.972848970">
        <ele>758.00000</ele>
        <time>2010-01-01T12:41:31Z</time>
      </trkpt>
      <trkpt lat="48.01614300" lon="8.973272000">
        <ele>765.00000</ele>
        <time>2010-01-01T12:42:04Z</time>
      </trkpt>
      <trkpt lat="48.01605800" lon="8.973594030">
        <ele>767.00000</ele>
        <time>2010-01-01T12:42:27Z</time>
      </trkpt>
      <trkpt lat="48.01605800" lon="8.973608030">
        <ele>767.00000</ele>
        <time>2010-01-01T12:42:28Z</time>
      </trkpt>
      <trkpt lat="48.01605400" lon="8.973855970">
        <ele>769.00000</ele>
        <time>2010-01-01T12:42:44Z</time>
      </trkpt>
      <trkpt lat="48.01605400" lon="8.973876000">
        <ele>769.00000</ele>
        <time>2010-01-01T12:42:46Z</time>
      </trkpt>
      <trkpt lat="48.01606190" lon="8.974024020">
        <ele>770.00000</ele>
        <time>2010-01-01T12:42:56Z</time>
      </trkpt>
      <trkpt lat="48.01607100" lon="8.974030980">
        <ele>770.00000</ele>
        <time>2010-01-01T12:42:57Z</time>
      </trkpt>
      <trkpt lat="48.01616090" lon="8.974285960">
        <ele>771.00000</ele>
        <time>2010-01-01T12:43:16Z</time>
      </trkpt>
      <trkpt lat="48.01691290" lon="8.973981030">
        <ele>772.00000</ele>
        <time>2010-01-01T12:44:34Z</time>
      </trkpt>
      <trkpt lat="48.01723200" lon="8.973893020">
        <ele>773.00000</ele>
        <time>2010-01-01T12:45:06Z</time>
      </trkpt>
      <trkpt lat="48.01724090" lon="8.973893020">
        <ele>773.00000</ele>
        <time>2010-01-01T12:45:07Z</time>
      </trkpt>
      <trkpt lat="48.01765890" lon="8.973806010">
        <ele>775.00000</ele>
        <time>2010-01-01T12:45:50Z</time>
      </trkpt>
      <trkpt lat="48.01779400" lon="8.973543990">
        <ele>776.00000</ele>
        <time>2010-01-01T12:46:12Z</time>
      </trkpt>
      <trkpt lat="48.01785200" lon="8.973254980">
        <ele>777.00000</ele>
        <time>2010-01-01T12:46:32Z</time>
      </trkpt>
      <trkpt lat="48.01783390" lon="8.972812000">
        <ele>775.00000</ele>
        <time>2010-01-01T12:47:02Z</time>
      </trkpt>
      <trkpt lat="48.01783390" lon="8.972804960">
        <ele>775.00000</ele>
        <time>2010-01-01T12:47:02Z</time>
      </trkpt>
      <trkpt lat="48.01778000" lon="8.972402960">
        <ele>772.00000</ele>
        <time>2010-01-01T12:47:30Z</time>
      </trkpt>
      <trkpt lat="48.01775300" lon="8.972268020">
        <ele>771.00000</ele>
        <time>2010-01-01T12:47:39Z</time>
      </trkpt>
      <trkpt lat="48.01776190" lon="8.972255020">
        <ele>770.00000</ele>
        <time>2010-01-01T12:47:40Z</time>
      </trkpt>
      <trkpt lat="48.01781590" lon="8.972099960">
        <ele>770.00000</ele>
        <time>2010-01-01T12:47:52Z</time>
      </trkpt>
      <trkpt lat="48.01782100" lon="8.972099960">
        <ele>770.00000</ele>
        <time>2010-01-01T12:47:52Z</time>
      </trkpt>
      <trkpt lat="48.01793290" lon="8.972006000">
        <ele>771.00000</ele>
        <time>2010-01-01T12:48:05Z</time>
      </trkpt>
      <trkpt lat="48.01810490" lon="8.972076990">
        <ele>773.00000</ele>
        <time>2010-01-01T12:48:23Z</time>
      </trkpt>
      <trkpt lat="48.01829900" lon="8.972271960">
        <ele>777.00000</ele>
        <time>2010-01-01T12:48:47Z</time>
      </trkpt>
      <trkpt lat="48.01830290" lon="8.972277990">
        <ele>777.00000</ele>
        <time>2010-01-01T12:48:47Z</time>
      </trkpt>
      <trkpt lat="48.01843790" lon="8.972325010">
        <ele>778.00000</ele>
        <time>2010-01-01T12:49:01Z</time>
      </trkpt>
      <trkpt lat="48.01844200" lon="8.972325010">
        <ele>778.00000</ele>
        <time>2010-01-01T12:49:01Z</time>
      </trkpt>
      <trkpt lat="48.01864000" lon="8.972487030">
        <ele>778.00000</ele>
        <time>2010-01-01T12:49:24Z</time>
      </trkpt>
      <trkpt lat="48.01887300" lon="8.972789030">
        <ele>779.00000</ele>
        <time>2010-01-01T12:49:55Z</time>
      </trkpt>
      <trkpt lat="48.01887790" lon="8.972789030">
        <ele>779.00000</ele>
        <time>2010-01-01T12:49:55Z</time>
      </trkpt>
      <trkpt lat="48.01902190" lon="8.972922980">
        <ele>779.00000</ele>
        <time>2010-01-01T12:50:12Z</time>
      </trkpt>
      <trkpt lat="48.01912900" lon="8.972715020">
        <ele>778.00000</ele>
        <time>2010-01-01T12:50:30Z</time>
      </trkpt>
      <trkpt lat="48.01913400" lon="8.972405980">
        <ele>776.00000</ele>
        <time>2010-01-01T12:50:51Z</time>
      </trkpt>
      <trkpt lat="48.01913790" lon="8.972399020">
        <ele>776.00000</ele>
        <time>2010-01-01T12:50:51Z</time>
      </trkpt>
      <trkpt lat="48.01920990" lon="8.971983030">
        <ele>773.00000</ele>
        <time>2010-01-01T12:51:20Z</time>
      </trkpt>
      <trkpt lat="48.01921490" lon="8.971983030">
        <ele>773.00000</ele>
        <time>2010-01-01T12:51:20Z</time>
      </trkpt>
      <trkpt lat="48.01927300" lon="8.971613980">
        <ele>771.00000</ele>
        <time>2010-01-01T12:51:46Z</time>
      </trkpt>
      <trkpt lat="48.01930500" lon="8.971419010">
        <ele>768.00000</ele>
        <time>2010-01-01T12:51:59Z</time>
      </trkpt>
      <trkpt lat="48.01930890" lon="8.971419010">
        <ele>768.00000</ele>
        <time>2010-01-01T12:52:00Z</time>
      </trkpt>
      <trkpt lat="48.01943890" lon="8.971022970">
        <ele>765.00000</ele>
        <time>2010-01-01T12:52:29Z</time>
      </trkpt>
      <trkpt lat="48.01944800" lon="8.971016010">
        <ele>765.00000</ele>
        <time>2010-01-01T12:52:30Z</time>
      </trkpt>
      <trkpt lat="48.01952890" lon="8.970854990">
        <ele>764.00000</ele>
        <time>2010-01-01T12:52:44Z</time>
      </trkpt>
      <trkpt lat="48.01959690" lon="8.970720970">
        <ele>762.00000</ele>
        <time>2010-01-01T12:52:55Z</time>
      </trkpt>
      <trkpt lat="48.01960600" lon="8.970714010">
        <ele>762.00000</ele>
        <time>2010-01-01T12:52:56Z</time>
      </trkpt>
      <trkpt lat="48.01972690" lon="8.970613010">
        <ele>762.00000</ele>
        <time>2010-01-01T12:53:10Z</time>
      </trkpt>
      <trkpt lat="48.01973090" lon="8.970619970">
        <ele>762.00000</ele>
        <time>2010-01-01T12:53:10Z</time>
      </trkpt>
      <trkpt lat="48.01978490" lon="8.970640000">
        <ele>763.00000</ele>
        <time>2010-01-01T12:53:16Z</time>
      </trkpt>
      <trkpt lat="48.01995790" lon="8.970744020">
        <ele>765.00000</ele>
        <time>2010-01-01T12:53:35Z</time>
      </trkpt>
      <trkpt lat="48.01996190" lon="8.970744020">
        <ele>765.00000</ele>
        <time>2010-01-01T12:53:35Z</time>
      </trkpt>
      <trkpt lat="48.02011490" lon="8.970938980">
        <ele>765.00000</ele>
        <time>2010-01-01T12:53:55Z</time>
      </trkpt>
      <trkpt lat="48.02011890" lon="8.970938980">
        <ele>765.00000</ele>
        <time>2010-01-01T12:53:56Z</time>
      </trkpt>
      <trkpt lat="48.02021790" lon="8.971226980">
        <ele>765.00000</ele>
        <time>2010-01-01T12:54:17Z</time>
      </trkpt>
      <trkpt lat="48.02036190" lon="8.971476010">
        <ele>763.00000</ele>
        <time>2010-01-01T12:54:39Z</time>
      </trkpt>
      <trkpt lat="48.02036600" lon="8.971482970">
        <ele>763.00000</ele>
        <time>2010-01-01T12:54:40Z</time>
      </trkpt>
      <trkpt lat="48.02053690" lon="8.971778010">
        <ele>761.00000</ele>
        <time>2010-01-01T12:55:06Z</time>
      </trkpt>
      <trkpt lat="48.02054200" lon="8.971784970">
        <ele>761.00000</ele>
        <time>2010-01-01T12:55:07Z</time>
      </trkpt>
      <trkpt lat="48.02066290" lon="8.972032990">
        <ele>761.00000</ele>
        <time>2010-01-01T12:55:27Z</time>
      </trkpt>
      <trkpt lat="48.02066690" lon="8.972032990">
        <ele>761.00000</ele>
        <time>2010-01-01T12:55:28Z</time>
      </trkpt>
      <trkpt lat="48.02073890" lon="8.972322000">
        <ele>763.00000</ele>
        <time>2010-01-01T12:55:48Z</time>
      </trkpt>
      <trkpt lat="48.02073890" lon="8.972329040">
        <ele>763.00000</ele>
        <time>2010-01-01T12:55:49Z</time>
      </trkpt>
      <trkpt lat="48.02075290" lon="8.972536990">
        <ele>765.00000</ele>
        <time>2010-01-01T12:56:03Z</time>
      </trkpt>
      <trkpt lat="48.02075700" lon="8.972544030">
        <ele>765.00000</ele>
        <time>2010-01-01T12:56:03Z</time>
      </trkpt>
      <trkpt lat="48.02079290" lon="8.972590970">
        <ele>765.00000</ele>
        <time>2010-01-01T12:56:08Z</time>
      </trkpt>
      <trkpt lat="48.02090490" lon="8.972557020">
        <ele>765.00000</ele>
        <time>2010-01-01T12:56:20Z</time>
      </trkpt>
      <trkpt lat="48.02112090" lon="8.972113960">
        <ele>761.00000</ele>
        <time>2010-01-01T12:56:56Z</time>
      </trkpt>
      <trkpt lat="48.02113890" lon="8.971831990">
        <ele>758.00000</ele>
        <time>2010-01-01T12:57:15Z</time>
      </trkpt>
      <trkpt lat="48.02114800" lon="8.971811960">
        <ele>758.00000</ele>
        <time>2010-01-01T12:57:17Z</time>
      </trkpt>
      <trkpt lat="48.02121090" lon="8.971321030">
        <ele>755.00000</ele>
        <time>2010-01-01T12:57:50Z</time>
      </trkpt>
      <trkpt lat="48.02121090" lon="8.971314990">
        <ele>755.00000</ele>
        <time>2010-01-01T12:57:51Z</time>
      </trkpt>
      <trkpt lat="48.02130100" lon="8.970736980">
        <ele>752.00000</ele>
        <time>2010-01-01T12:58:30Z</time>
      </trkpt>
      <trkpt lat="48.02139490" lon="8.970246970">
        <ele>748.00000</ele>
        <time>2010-01-01T12:59:05Z</time>
      </trkpt>
      <trkpt lat="48.02139890" lon="8.970246970">
        <ele>748.00000</ele>
        <time>2010-01-01T12:59:05Z</time>
      </trkpt>
      <trkpt lat="48.02156600" lon="8.969769960">
        <ele>745.00000</ele>
        <time>2010-01-01T12:59:41Z</time>
      </trkpt>
      <trkpt lat="48.02156990" lon="8.969764010">
        <ele>745.00000</ele>
        <time>2010-01-01T12:59:42Z</time>
      </trkpt>
      <trkpt lat="48.02164600" lon="8.969554960">
        <ele>743.00000</ele>
        <time>2010-01-01T12:59:58Z</time>
      </trkpt>
      <trkpt lat="48.02183990" lon="8.969286990">
        <ele>741.00000</ele>
        <time>2010-01-01T13:00:24Z</time>
      </trkpt>
      <trkpt lat="48.02184390" lon="8.969286990">
        <ele>741.00000</ele>
        <time>2010-01-01T13:00:24Z</time>
      </trkpt>
      <trkpt lat="48.02202790" lon="8.969032010">
        <ele>740.00000</ele>
        <time>2010-01-01T13:00:49Z</time>
      </trkpt>
      <trkpt lat="48.02240490" lon="8.969252960">
        <ele>746.00000</ele>
        <time>2010-01-01T13:01:30Z</time>
      </trkpt>
      <trkpt lat="48.02267490" lon="8.969527970">
        <ele>748.00000</ele>
        <time>2010-01-01T13:02:03Z</time>
      </trkpt>
      <trkpt lat="48.02267890" lon="8.969541970">
        <ele>748.00000</ele>
        <time>2010-01-01T13:02:04Z</time>
      </trkpt>
      <trkpt lat="48.02288600" lon="8.969857970">
        <ele>750.00000</ele>
        <time>2010-01-01T13:02:33Z</time>
      </trkpt>
      <trkpt lat="48.02288600" lon="8.969864000">
        <ele>750.00000</ele>
        <time>2010-01-01T13:02:34Z</time>
      </trkpt>
      <trkpt lat="48.02313690" lon="8.970254010">
        <ele>754.00000</ele>
        <time>2010-01-01T13:03:10Z</time>
      </trkpt>
      <trkpt lat="48.02327400" lon="8.970425000">
        <ele>756.00000</ele>
        <time>2010-01-01T13:03:28Z</time>
      </trkpt>
      <trkpt lat="48.02344500" lon="8.970505970">
        <ele>757.00000</ele>
        <time>2010-01-01T13:03:46Z</time>
      </trkpt>
      <trkpt lat="48.02344900" lon="8.970505970">
        <ele>757.00000</ele>
        <time>2010-01-01T13:03:46Z</time>
      </trkpt>
      <trkpt lat="48.02371390" lon="8.970828000">
        <ele>762.00000</ele>
        <time>2010-01-01T13:04:20Z</time>
      </trkpt>
      <trkpt lat="48.02371390" lon="8.970834960">
        <ele>762.00000</ele>
        <time>2010-01-01T13:04:21Z</time>
      </trkpt>
      <trkpt lat="48.02392500" lon="8.971687990">
        <ele>768.00000</ele>
        <time>2010-01-01T13:05:22Z</time>
      </trkpt>
      <trkpt lat="48.02402400" lon="8.971345000">
        <ele>764.00000</ele>
        <time>2010-01-01T13:05:47Z</time>
      </trkpt>
      <trkpt lat="48.02423500" lon="8.970948960">
        <ele>761.00000</ele>
        <time>2010-01-01T13:06:21Z</time>
      </trkpt>
      <trkpt lat="48.02436600" lon="8.970854990">
        <ele>764.00000</ele>
        <time>2010-01-01T13:06:35Z</time>
      </trkpt>
      <trkpt lat="48.02450690" lon="8.970837980">
        <ele>768.00000</ele>
        <time>2010-01-01T13:06:49Z</time>
      </trkpt>
      <trkpt lat="48.02451590" lon="8.970831020">
        <ele>768.00000</ele>
        <time>2010-01-01T13:06:50Z</time>
      </trkpt>
      <trkpt lat="48.02464990" lon="8.970731030">
        <ele>772.00000</ele>
        <time>2010-01-01T13:07:05Z</time>
      </trkpt>
      <trkpt lat="48.02464200" lon="8.970293990">
        <ele>774.00000</ele>
        <time>2010-01-01T13:07:35Z</time>
      </trkpt>
      <trkpt lat="48.02437190" lon="8.969696030">
        <ele>766.00000</ele>
        <time>2010-01-01T13:08:23Z</time>
      </trkpt>
      <trkpt lat="48.02425990" lon="8.969522020">
        <ele>762.00000</ele>
        <time>2010-01-01T13:08:39Z</time>
      </trkpt>
      <trkpt lat="48.02420600" lon="8.969132010">
        <ele>760.00000</ele>
        <time>2010-01-01T13:09:06Z</time>
      </trkpt>
      <trkpt lat="48.02421490" lon="8.969132010">
        <ele>761.00000</ele>
        <time>2010-01-01T13:09:07Z</time>
      </trkpt>
      <trkpt lat="48.02428690" lon="8.968963950">
        <ele>762.00000</ele>
        <time>2010-01-01T13:09:20Z</time>
      </trkpt>
      <trkpt lat="48.02429600" lon="8.968958000">
        <ele>762.00000</ele>
        <time>2010-01-01T13:09:21Z</time>
      </trkpt>
      <trkpt lat="48.02443490" lon="8.968857000">
        <ele>766.00000</ele>
        <time>2010-01-01T13:09:36Z</time>
      </trkpt>
      <trkpt lat="48.02443900" lon="8.968857000">
        <ele>766.00000</ele>
        <time>2010-01-01T13:09:37Z</time>
      </trkpt>
      <trkpt lat="48.02457390" lon="8.968849960">
        <ele>771.00000</ele>
        <time>2010-01-01T13:09:50Z</time>
      </trkpt>
      <trkpt lat="48.02458300" lon="8.968849960">
        <ele>771.00000</ele>
        <time>2010-01-01T13:09:51Z</time>
      </trkpt>
      <trkpt lat="48.02468200" lon="8.968877030">
        <ele>775.00000</ele>
        <time>2010-01-01T13:10:01Z</time>
      </trkpt>
      <trkpt lat="48.02469090" lon="8.968877030">
        <ele>776.00000</ele>
        <time>2010-01-01T13:10:02Z</time>
      </trkpt>
      <trkpt lat="48.02483000" lon="8.969105020">
        <ele>784.00000</ele>
        <time>2010-01-01T13:10:23Z</time>
      </trkpt>
      <trkpt lat="48.02493290" lon="8.968849960">
        <ele>784.00000</ele>
        <time>2010-01-01T13:10:43Z</time>
      </trkpt>
      <trkpt lat="48.02504600" lon="8.968655000">
        <ele>785.00000</ele>
        <time>2010-01-01T13:11:00Z</time>
      </trkpt>
      <trkpt lat="48.02504990" lon="8.968648960">
        <ele>785.00000</ele>
        <time>2010-01-01T13:11:01Z</time>
      </trkpt>
      <trkpt lat="48.02522490" lon="8.968474030">
        <ele>786.00000</ele>
        <time>2010-01-01T13:11:22Z</time>
      </trkpt>
      <trkpt lat="48.02531990" lon="8.968226010">
        <ele>781.00000</ele>
        <time>2010-01-01T13:11:41Z</time>
      </trkpt>
      <trkpt lat="48.02532390" lon="8.968226010">
        <ele>781.00000</ele>
        <time>2010-01-01T13:11:41Z</time>
      </trkpt>
      <trkpt lat="48.02546390" lon="8.968030960">
        <ele>777.00000</ele>
        <time>2010-01-01T13:12:00Z</time>
      </trkpt>
      <trkpt lat="48.02546790" lon="8.968030960">
        <ele>777.00000</ele>
        <time>2010-01-01T13:12:01Z</time>
      </trkpt>
      <trkpt lat="48.02559390" lon="8.967902970">
        <ele>775.00000</ele>
        <time>2010-01-01T13:12:16Z</time>
      </trkpt>
      <trkpt lat="48.02578000" lon="8.967932980">
        <ele>779.00000</ele>
        <time>2010-01-01T13:12:35Z</time>
      </trkpt>
      <trkpt lat="48.02606700" lon="8.968073960">
        <ele>786.00000</ele>
        <time>2010-01-01T13:13:05Z</time>
      </trkpt>
      <trkpt lat="48.02633190" lon="8.968073960">
        <ele>787.00000</ele>
        <time>2010-01-01T13:13:31Z</time>
      </trkpt>
      <trkpt lat="48.02663800" lon="8.967994000">
        <ele>786.00000</ele>
        <time>2010-01-01T13:14:03Z</time>
      </trkpt>
      <trkpt lat="48.02664200" lon="8.967994000">
        <ele>786.00000</ele>
        <time>2010-01-01T13:14:03Z</time>
      </trkpt>
      <trkpt lat="48.02674990" lon="8.967940020">
        <ele>784.00000</ele>
        <time>2010-01-01T13:14:14Z</time>
      </trkpt>
      <trkpt lat="48.02679900" lon="8.967845980">
        <ele>780.00000</ele>
        <time>2010-01-01T13:14:22Z</time>
      </trkpt>
      <trkpt lat="48.02664690" lon="8.967779000">
        <ele>779.00000</ele>
        <time>2010-01-01T13:14:38Z</time>
      </trkpt>
      <trkpt lat="48.02647590" lon="8.967818990">
        <ele>780.00000</ele>
        <time>2010-01-01T13:14:55Z</time>
      </trkpt>
      <trkpt lat="48.02646700" lon="8.967805990">
        <ele>779.00000</ele>
        <time>2010-01-01T13:14:57Z</time>
      </trkpt>
      <trkpt lat="48.02625200" lon="8.967744970">
        <ele>776.00000</ele>
        <time>2010-01-01T13:15:19Z</time>
      </trkpt>
      <trkpt lat="48.02597290" lon="8.967529980">
        <ele>768.00000</ele>
        <time>2010-01-01T13:15:50Z</time>
      </trkpt>
      <trkpt lat="48.02622500" lon="8.967597950">
        <ele>771.00000</ele>
        <time>2010-01-01T13:16:16Z</time>
      </trkpt>
      <trkpt lat="48.02641790" lon="8.967543980">
        <ele>771.00000</ele>
        <time>2010-01-01T13:16:35Z</time>
      </trkpt>
      <trkpt lat="48.02644000" lon="8.967529980">
        <ele>771.00000</ele>
        <time>2010-01-01T13:16:38Z</time>
      </trkpt>
      <trkpt lat="48.02661990" lon="8.967355970">
        <ele>763.00000</ele>
        <time>2010-01-01T13:16:59Z</time>
      </trkpt>
      <trkpt lat="48.02678990" lon="8.967134020">
        <ele>751.00000</ele>
        <time>2010-01-01T13:17:22Z</time>
      </trkpt>
      <trkpt lat="48.02689800" lon="8.967074000">
        <ele>747.00000</ele>
        <time>2010-01-01T13:17:33Z</time>
      </trkpt>
      <trkpt lat="48.02700590" lon="8.967066960">
        <ele>745.00000</ele>
        <time>2010-01-01T13:17:44Z</time>
      </trkpt>
      <trkpt lat="48.02705090" lon="8.967140970">
        <ele>749.00000</ele>
        <time>2010-01-01T13:17:51Z</time>
      </trkpt>
      <trkpt lat="48.02705600" lon="8.967148010">
        <ele>749.00000</ele>
        <time>2010-01-01T13:17:51Z</time>
      </trkpt>
      <trkpt lat="48.02706000" lon="8.967315990">
        <ele>757.00000</ele>
        <time>2010-01-01T13:18:03Z</time>
      </trkpt>
      <trkpt lat="48.02706390" lon="8.967315990">
        <ele>757.00000</ele>
        <time>2010-01-01T13:18:03Z</time>
      </trkpt>
      <trkpt lat="48.02714100" lon="8.967450010">
        <ele>763.00000</ele>
        <time>2010-01-01T13:18:15Z</time>
      </trkpt>
      <trkpt lat="48.02714100" lon="8.967497040">
        <ele>765.00000</ele>
        <time>2010-01-01T13:18:18Z</time>
      </trkpt>
      <trkpt lat="48.02731600" lon="8.967644980">
        <ele>769.00000</ele>
        <time>2010-01-01T13:18:38Z</time>
      </trkpt>
      <trkpt lat="48.02745900" lon="8.967832980">
        <ele>775.00000</ele>
        <time>2010-01-01T13:18:57Z</time>
      </trkpt>
      <trkpt lat="48.02747700" lon="8.967853020">
        <ele>775.00000</ele>
        <time>2010-01-01T13:19:00Z</time>
      </trkpt>
      <trkpt lat="48.02760790" lon="8.968068010">
        <ele>782.00000</ele>
        <time>2010-01-01T13:19:19Z</time>
      </trkpt>
      <trkpt lat="48.02761190" lon="8.968068010">
        <ele>782.00000</ele>
        <time>2010-01-01T13:19:19Z</time>
      </trkpt>
      <trkpt lat="48.02776490" lon="8.968221990">
        <ele>786.00000</ele>
        <time>2010-01-01T13:19:38Z</time>
      </trkpt>
      <trkpt lat="48.02776890" lon="8.968221990">
        <ele>786.00000</ele>
        <time>2010-01-01T13:19:38Z</time>
      </trkpt>
      <trkpt lat="48.02796690" lon="8.968330030">
        <ele>787.00000</ele>
        <time>2010-01-01T13:19:59Z</time>
      </trkpt>
      <trkpt lat="48.02797600" lon="8.968330030">
        <ele>787.00000</ele>
        <time>2010-01-01T13:20:00Z</time>
      </trkpt>
      <trkpt lat="48.02811490" lon="8.968403960">
        <ele>787.00000</ele>
        <time>2010-01-01T13:20:15Z</time>
      </trkpt>
      <trkpt lat="48.02829000" lon="8.968423990">
        <ele>785.00000</ele>
        <time>2010-01-01T13:20:33Z</time>
      </trkpt>
      <trkpt lat="48.02857090" lon="8.968474030">
        <ele>785.00000</ele>
        <time>2010-01-01T13:21:01Z</time>
      </trkpt>
      <trkpt lat="48.02889400" lon="8.968514010">
        <ele>784.00000</ele>
        <time>2010-01-01T13:21:33Z</time>
      </trkpt>
      <trkpt lat="48.02890290" lon="8.968520970">
        <ele>784.00000</ele>
        <time>2010-01-01T13:21:34Z</time>
      </trkpt>
      <trkpt lat="48.02903800" lon="8.968514010">
        <ele>783.00000</ele>
        <time>2010-01-01T13:21:48Z</time>
      </trkpt>
      <trkpt lat="48.02904690" lon="8.968507980">
        <ele>783.00000</ele>
        <time>2010-01-01T13:21:49Z</time>
      </trkpt>
      <trkpt lat="48.02926190" lon="8.968427010">
        <ele>778.00000</ele>
        <time>2010-01-01T13:22:11Z</time>
      </trkpt>
      <trkpt lat="48.02926690" lon="8.968427010">
        <ele>778.00000</ele>
        <time>2010-01-01T13:22:12Z</time>
      </trkpt>
      <trkpt lat="48.02941500" lon="8.968474030">
        <ele>776.00000</ele>
        <time>2010-01-01T13:22:27Z</time>
      </trkpt>
      <trkpt lat="48.02942900" lon="8.968474030">
        <ele>775.00000</ele>
        <time>2010-01-01T13:22:28Z</time>
      </trkpt>
      <trkpt lat="48.02954990" lon="8.968433970">
        <ele>772.00000</ele>
        <time>2010-01-01T13:22:40Z</time>
      </trkpt>
      <trkpt lat="48.02959000" lon="8.968135990">
        <ele>766.00000</ele>
        <time>2010-01-01T13:23:01Z</time>
      </trkpt>
      <trkpt lat="48.02953200" lon="8.967995010">
        <ele>764.00000</ele>
        <time>2010-01-01T13:23:12Z</time>
      </trkpt>
      <trkpt lat="48.02954990" lon="8.967745980">
        <ele>758.00000</ele>
        <time>2010-01-01T13:23:29Z</time>
      </trkpt>
      <trkpt lat="48.02955900" lon="8.967739020">
        <ele>758.00000</ele>
        <time>2010-01-01T13:23:30Z</time>
      </trkpt>
      <trkpt lat="48.02988700" lon="8.967255970">
        <ele>744.00000</ele>
        <time>2010-01-01T13:24:16Z</time>
      </trkpt>
      <trkpt lat="48.03019690" lon="8.966724980">
        <ele>723.00000</ele>
        <time>2010-01-01T13:25:03Z</time>
      </trkpt>
      <trkpt lat="48.03020090" lon="8.966732020">
        <ele>723.00000</ele>
        <time>2010-01-01T13:25:04Z</time>
      </trkpt>
      <trkpt lat="48.03057390" lon="8.966430020">
        <ele>712.00000</ele>
        <time>2010-01-01T13:25:46Z</time>
      </trkpt>
      <trkpt lat="48.03094690" lon="8.966315020">
        <ele>711.00000</ele>
        <time>2010-01-01T13:26:24Z</time>
      </trkpt>
      <trkpt lat="48.03095990" lon="8.966315020">
        <ele>712.00000</ele>
        <time>2010-01-01T13:26:25Z</time>
      </trkpt>
      <trkpt lat="48.03127000" lon="8.966369000">
        <ele>718.00000</ele>
        <time>2010-01-01T13:26:57Z</time>
      </trkpt>
      <trkpt lat="48.03151200" lon="8.966933020">
        <ele>721.00000</ele>
        <time>2010-01-01T13:27:41Z</time>
      </trkpt>
      <trkpt lat="48.03143100" lon="8.967350020">
        <ele>720.00000</ele>
        <time>2010-01-01T13:28:11Z</time>
      </trkpt>
      <trkpt lat="48.03141300" lon="8.967886960">
        <ele>718.00000</ele>
        <time>2010-01-01T13:28:47Z</time>
      </trkpt>
      <trkpt lat="48.03141300" lon="8.967900960">
        <ele>718.00000</ele>
        <time>2010-01-01T13:28:47Z</time>
      </trkpt>
      <trkpt lat="48.03136390" lon="8.968377970">
        <ele>717.00000</ele>
        <time>2010-01-01T13:29:20Z</time>
      </trkpt>
      <trkpt lat="48.03136390" lon="8.968390970">
        <ele>717.00000</ele>
        <time>2010-01-01T13:29:21Z</time>
      </trkpt>
      <trkpt lat="48.03143590" lon="8.968605960">
        <ele>717.00000</ele>
        <time>2010-01-01T13:29:37Z</time>
      </trkpt>
      <trkpt lat="48.03144000" lon="8.968605960">
        <ele>717.00000</ele>
        <time>2010-01-01T13:29:37Z</time>
      </trkpt>
      <trkpt lat="48.03162900" lon="8.968687020">
        <ele>716.00000</ele>
        <time>2010-01-01T13:29:57Z</time>
      </trkpt>
      <trkpt lat="48.03188090" lon="8.968760020">
        <ele>716.00000</ele>
        <time>2010-01-01T13:30:22Z</time>
      </trkpt>
      <trkpt lat="48.03189390" lon="8.968766980">
        <ele>716.00000</ele>
        <time>2010-01-01T13:30:24Z</time>
      </trkpt>
      <trkpt lat="48.03209590" lon="8.968780980">
        <ele>716.00000</ele>
        <time>2010-01-01T13:30:44Z</time>
      </trkpt>
      <trkpt lat="48.03221290" lon="8.968679970">
        <ele>715.00000</ele>
        <time>2010-01-01T13:30:58Z</time>
      </trkpt>
      <trkpt lat="48.03222590" lon="8.968665980">
        <ele>715.00000</ele>
        <time>2010-01-01T13:30:59Z</time>
      </trkpt>
      <trkpt lat="48.03246890" lon="8.968578970">
        <ele>714.00000</ele>
        <time>2010-01-01T13:31:24Z</time>
      </trkpt>
      <trkpt lat="48.03352900" lon="8.968532030">
        <ele>716.00000</ele>
        <time>2010-01-01T13:33:10Z</time>
      </trkpt>
      <trkpt lat="48.03401800" lon="8.968565980">
        <ele>716.00000</ele>
        <time>2010-01-01T13:33:59Z</time>
      </trkpt>
      <trkpt lat="48.03431900" lon="8.968538990">
        <ele>716.00000</ele>
        <time>2010-01-01T13:34:30Z</time>
      </trkpt>
      <trkpt lat="48.03471390" lon="8.968472020">
        <ele>715.00000</ele>
        <time>2010-01-01T13:35:09Z</time>
      </trkpt>
      <trkpt lat="48.03505100" lon="8.968398010">
        <ele>713.00000</ele>
        <time>2010-01-01T13:35:43Z</time>
      </trkpt>
      <trkpt lat="48.03505990" lon="8.968398010">
        <ele>713.00000</ele>
        <time>2010-01-01T13:35:44Z</time>
      </trkpt>
      <trkpt lat="48.03540100" lon="8.968398010">
        <ele>711.00000</ele>
        <time>2010-01-01T13:36:18Z</time>
      </trkpt>
      <trkpt lat="48.03540100" lon="8.968404960">
        <ele>711.00000</ele>
        <time>2010-01-01T13:36:19Z</time>
      </trkpt>
      <trkpt lat="48.03576900" lon="8.968390970">
        <ele>709.00000</ele>
        <time>2010-01-01T13:36:56Z</time>
      </trkpt>
      <trkpt lat="48.03613790" lon="8.968263980">
        <ele>707.00000</ele>
        <time>2010-01-01T13:37:34Z</time>
      </trkpt>
      <trkpt lat="48.03634800" lon="8.968183010">
        <ele>707.00000</ele>
        <time>2010-01-01T13:37:55Z</time>
      </trkpt>
      <trkpt lat="48.03659990" lon="8.968143030">
        <ele>706.00000</ele>
        <time>2010-01-01T13:38:21Z</time>
      </trkpt>
      <trkpt lat="48.03660900" lon="8.968143030">
        <ele>706.00000</ele>
        <time>2010-01-01T13:38:22Z</time>
      </trkpt>
      <trkpt lat="48.03681090" lon="8.968143030">
        <ele>705.00000</ele>
        <time>2010-01-01T13:38:42Z</time>
      </trkpt>
      <trkpt lat="48.03681490" lon="8.968143030">
        <ele>705.00000</ele>
        <time>2010-01-01T13:38:42Z</time>
      </trkpt>
      <trkpt lat="48.03711590" lon="8.968236990">
        <ele>703.00000</ele>
        <time>2010-01-01T13:39:13Z</time>
      </trkpt>
      <trkpt lat="48.03712100" lon="8.968236990">
        <ele>703.00000</ele>
        <time>2010-01-01T13:39:13Z</time>
      </trkpt>
      <trkpt lat="48.03747590" lon="8.968311000">
        <ele>701.00000</ele>
        <time>2010-01-01T13:39:49Z</time>
      </trkpt>
      <trkpt lat="48.03748000" lon="8.968311000">
        <ele>701.00000</ele>
        <time>2010-01-01T13:39:50Z</time>
      </trkpt>
      <trkpt lat="48.03780790" lon="8.968417960">
        <ele>700.00000</ele>
        <time>2010-01-01T13:40:23Z</time>
      </trkpt>
      <trkpt lat="48.03815800" lon="8.968518960">
        <ele>699.00000</ele>
        <time>2010-01-01T13:40:59Z</time>
      </trkpt>
      <trkpt lat="48.03845390" lon="8.968592970">
        <ele>698.00000</ele>
        <time>2010-01-01T13:41:29Z</time>
      </trkpt>
      <trkpt lat="48.03882690" lon="8.968605960">
        <ele>698.00000</ele>
        <time>2010-01-01T13:42:06Z</time>
      </trkpt>
      <trkpt lat="48.03917290" lon="8.968586010">
        <ele>697.00000</ele>
        <time>2010-01-01T13:42:41Z</time>
      </trkpt>
      <trkpt lat="48.03917800" lon="8.968586010">
        <ele>697.00000</ele>
        <time>2010-01-01T13:42:42Z</time>
      </trkpt>
      <trkpt lat="48.03939800" lon="8.968600010">
        <ele>694.00000</ele>
        <time>2010-01-01T13:43:04Z</time>
      </trkpt>
      <trkpt lat="48.03940190" lon="8.968600010">
        <ele>694.00000</ele>
        <time>2010-01-01T13:43:04Z</time>
      </trkpt>
      <trkpt lat="48.03980190" lon="8.968714000">
        <ele>689.00000</ele>
        <time>2010-01-01T13:43:45Z</time>
      </trkpt>
      <trkpt lat="48.03985990" lon="8.968526000">
        <ele>688.00000</ele>
        <time>2010-01-01T13:43:59Z</time>
      </trkpt>
      <trkpt lat="48.03998990" lon="8.968404960">
        <ele>685.00000</ele>
        <time>2010-01-01T13:44:14Z</time>
      </trkpt>
      <trkpt lat="48.04011600" lon="8.968331040">
        <ele>685.00000</ele>
        <time>2010-01-01T13:44:27Z</time>
      </trkpt>
      <trkpt lat="48.04012490" lon="8.968331040">
        <ele>685.00000</ele>
        <time>2010-01-01T13:44:28Z</time>
      </trkpt>
      <trkpt lat="48.04033200" lon="8.968371020">
        <ele>684.00000</ele>
        <time>2010-01-01T13:44:49Z</time>
      </trkpt>
      <trkpt lat="48.04050400" lon="8.968448970">
        <ele>683.00000</ele>
        <time>2010-01-01T13:45:07Z</time>
      </trkpt>
      <trkpt lat="48.04072890" lon="8.968622980">
        <ele>683.00000</ele>
        <time>2010-01-01T13:45:33Z</time>
      </trkpt>
      <trkpt lat="48.04096690" lon="8.968837970">
        <ele>680.00000</ele>
        <time>2010-01-01T13:46:00Z</time>
      </trkpt>
      <trkpt lat="48.04108790" lon="8.968951970">
        <ele>678.00000</ele>
        <time>2010-01-01T13:46:15Z</time>
      </trkpt>
      <trkpt lat="48.04109300" lon="8.968959010">
        <ele>678.00000</ele>
        <time>2010-01-01T13:46:15Z</time>
      </trkpt>
      <trkpt lat="48.04131290" lon="8.969120020">
        <ele>672.00000</ele>
        <time>2010-01-01T13:46:40Z</time>
      </trkpt>
      <trkpt lat="48.04166800" lon="8.969213990">
        <ele>666.00000</ele>
        <time>2010-01-01T13:47:16Z</time>
      </trkpt>
      <trkpt lat="48.04220200" lon="8.969213990">
        <ele>661.00000</ele>
        <time>2010-01-01T13:48:09Z</time>
      </trkpt>
      <trkpt lat="48.04221100" lon="8.969208030">
        <ele>661.00000</ele>
        <time>2010-01-01T13:48:10Z</time>
      </trkpt>
      <trkpt lat="48.04252090" lon="8.969087000">
        <ele>658.00000</ele>
        <time>2010-01-01T13:48:43Z</time>
      </trkpt>
      <trkpt lat="48.04253890" lon="8.969087000">
        <ele>658.00000</ele>
        <time>2010-01-01T13:48:44Z</time>
      </trkpt>
      <trkpt lat="48.04295590" lon="8.968851970">
        <ele>656.00000</ele>
        <time>2010-01-01T13:49:29Z</time>
      </trkpt>
      <trkpt lat="48.04294290" lon="8.968818020">
        <ele>656.00000</ele>
        <time>2010-01-01T13:49:32Z</time>
      </trkpt>
      <trkpt lat="48.04302790" lon="8.968636980">
        <ele>655.00000</ele>
        <time>2010-01-01T13:49:46Z</time>
      </trkpt>
      <trkpt lat="48.04303300" lon="8.968636980">
        <ele>654.00000</ele>
        <time>2010-01-01T13:49:47Z</time>
      </trkpt>
      <trkpt lat="48.04319890" lon="8.968368000">
        <ele>648.00000</ele>
        <time>2010-01-01T13:50:11Z</time>
      </trkpt>
      <trkpt lat="48.04320800" lon="8.968368000">
        <ele>648.00000</ele>
        <time>2010-01-01T13:50:12Z</time>
      </trkpt>
      <trkpt lat="48.04340090" lon="8.968031970">
        <ele>647.00000</ele>
        <time>2010-01-01T13:50:42Z</time>
      </trkpt>
      <trkpt lat="48.04355790" lon="8.967689990">
        <ele>651.00000</ele>
        <time>2010-01-01T13:51:10Z</time>
      </trkpt>
      <trkpt lat="48.04364790" lon="8.967481030">
        <ele>653.00000</ele>
        <time>2010-01-01T13:51:26Z</time>
      </trkpt>
      <trkpt lat="48.04366600" lon="8.967320010">
        <ele>654.00000</ele>
        <time>2010-01-01T13:51:37Z</time>
      </trkpt>
      <trkpt lat="48.04362990" lon="8.966956990">
        <ele>654.00000</ele>
        <time>2010-01-01T13:52:02Z</time>
      </trkpt>
      <trkpt lat="48.04354900" lon="8.966662030">
        <ele>655.00000</ele>
        <time>2010-01-01T13:52:23Z</time>
      </trkpt>
      <trkpt lat="48.04355400" lon="8.966615010">
        <ele>656.00000</ele>
        <time>2010-01-01T13:52:26Z</time>
      </trkpt>
      <trkpt lat="48.04359400" lon="8.966158030">
        <ele>659.00000</ele>
        <time>2010-01-01T13:52:57Z</time>
      </trkpt>
      <trkpt lat="48.04359890" lon="8.966158030">
        <ele>659.00000</ele>
        <time>2010-01-01T13:52:58Z</time>
      </trkpt>
      <trkpt lat="48.04381890" lon="8.965842030">
        <ele>654.00000</ele>
        <time>2010-01-01T13:53:28Z</time>
      </trkpt>
      <trkpt lat="48.04395800" lon="8.965774970">
        <ele>650.00000</ele>
        <time>2010-01-01T13:53:43Z</time>
      </trkpt>
      <trkpt lat="48.04397100" lon="8.965768020">
        <ele>650.00000</ele>
        <time>2010-01-01T13:53:44Z</time>
      </trkpt>
      <trkpt lat="48.04422290" lon="8.965667020">
        <ele>644.00000</ele>
        <time>2010-01-01T13:54:10Z</time>
      </trkpt>
      <trkpt lat="48.04452090" lon="8.965510020">
        <ele>642.00000</ele>
        <time>2010-01-01T13:54:42Z</time>
      </trkpt>
      <trkpt lat="48.04467790" lon="8.965374990">
        <ele>640.00000</ele>
        <time>2010-01-01T13:55:00Z</time>
      </trkpt>
      <trkpt lat="48.04468290" lon="8.965368960">
        <ele>639.00000</ele>
        <time>2010-01-01T13:55:01Z</time>
      </trkpt>
      <trkpt lat="48.04481800" lon="8.965186980">
        <ele>635.00000</ele>
        <time>2010-01-01T13:55:19Z</time>
      </trkpt>
      <trkpt lat="48.04482190" lon="8.965186980">
        <ele>635.00000</ele>
        <time>2010-01-01T13:55:19Z</time>
      </trkpt>
      <trkpt lat="48.04502000" lon="8.965060000">
        <ele>629.00000</ele>
        <time>2010-01-01T13:55:41Z</time>
      </trkpt>
      <trkpt lat="48.04502390" lon="8.965052960">
        <ele>629.00000</ele>
        <time>2010-01-01T13:55:41Z</time>
      </trkpt>
      <trkpt lat="48.04509200" lon="8.964603020">
        <ele>622.00000</ele>
        <time>2010-01-01T13:56:12Z</time>
      </trkpt>
      <trkpt lat="48.04509200" lon="8.964401010">
        <ele>619.00000</ele>
        <time>2010-01-01T13:56:26Z</time>
      </trkpt>
      <trkpt lat="48.04502000" lon="8.964232960">
        <ele>617.00000</ele>
        <time>2010-01-01T13:56:39Z</time>
      </trkpt>
      <trkpt lat="48.04518590" lon="8.964146040">
        <ele>614.00000</ele>
        <time>2010-01-01T13:56:57Z</time>
      </trkpt>
      <trkpt lat="48.04537500" lon="8.964045030">
        <ele>612.00000</ele>
        <time>2010-01-01T13:57:17Z</time>
      </trkpt>
      <trkpt lat="48.04568490" lon="8.963963980">
        <ele>610.00000</ele>
        <time>2010-01-01T13:57:48Z</time>
      </trkpt>
      <trkpt lat="48.04568890" lon="8.963958030">
        <ele>610.00000</ele>
        <time>2010-01-01T13:57:49Z</time>
      </trkpt>
      <trkpt lat="48.04577390" lon="8.963944030">
        <ele>610.00000</ele>
        <time>2010-01-01T13:57:57Z</time>
      </trkpt>
      <trkpt lat="48.04652600" lon="8.963954010">
        <ele>612.00000</ele>
        <time>2010-01-01T13:59:13Z</time>
      </trkpt>
      <trkpt lat="48.04667890" lon="8.963854010">
        <ele>612.00000</ele>
        <time>2010-01-01T13:59:29Z</time>
      </trkpt>
      <trkpt lat="48.04691190" lon="8.963915030">
        <ele>611.00000</ele>
        <time>2010-01-01T13:59:53Z</time>
      </trkpt>
      <trkpt lat="48.04714600" lon="8.963996000">
        <ele>611.00000</ele>
        <time>2010-01-01T14:00:17Z</time>
      </trkpt>
      <trkpt lat="48.04715000" lon="8.963996000">
        <ele>611.00000</ele>
        <time>2010-01-01T14:00:17Z</time>
      </trkpt>
      <trkpt lat="48.04739690" lon="8.964097000">
        <ele>610.00000</ele>
        <time>2010-01-01T14:00:43Z</time>
      </trkpt>
      <trkpt lat="48.04782790" lon="8.964097000">
        <ele>608.00000</ele>
        <time>2010-01-01T14:01:26Z</time>
      </trkpt>
      <trkpt lat="48.04810190" lon="8.964103960">
        <ele>607.00000</ele>
        <time>2010-01-01T14:01:54Z</time>
      </trkpt>
      <trkpt lat="48.04857400" lon="8.964211000">
        <ele>606.00000</ele>
        <time>2010-01-01T14:02:41Z</time>
      </trkpt>
      <trkpt lat="48.04876290" lon="8.964285010">
        <ele>607.00000</ele>
        <time>2010-01-01T14:03:01Z</time>
      </trkpt>
      <trkpt lat="48.04914600" lon="8.964785990">
        <ele>608.00000</ele>
        <time>2010-01-01T14:03:52Z</time>
      </trkpt>
      <trkpt lat="48.04915090" lon="8.964792030">
        <ele>608.00000</ele>
        <time>2010-01-01T14:03:53Z</time>
      </trkpt>
      <trkpt lat="48.04979300" lon="8.965705990">
        <ele>608.00000</ele>
        <time>2010-01-01T14:05:21Z</time>
      </trkpt>
      <trkpt lat="48.05038100" lon="8.966538980">
        <ele>608.00000</ele>
        <time>2010-01-01T14:06:42Z</time>
      </trkpt>
      <trkpt lat="48.05075400" lon="8.967050030">
        <ele>611.00000</ele>
        <time>2010-01-01T14:07:33Z</time>
      </trkpt>
      <trkpt lat="48.05108800" lon="8.967355970">
        <ele>614.00000</ele>
        <time>2010-01-01T14:08:12Z</time>
      </trkpt>
      <trkpt lat="48.05129890" lon="8.967442970">
        <ele>615.00000</ele>
        <time>2010-01-01T14:08:34Z</time>
      </trkpt>
      <trkpt lat="48.05130400" lon="8.967442970">
        <ele>615.00000</ele>
        <time>2010-01-01T14:08:35Z</time>
      </trkpt>
      <trkpt lat="48.05144290" lon="8.967388990">
        <ele>615.00000</ele>
        <time>2010-01-01T14:08:49Z</time>
      </trkpt>
      <trkpt lat="48.05181590" lon="8.967423020">
        <ele>615.00000</ele>
        <time>2010-01-01T14:09:26Z</time>
      </trkpt>
      <trkpt lat="48.05182490" lon="8.967423020">
        <ele>615.00000</ele>
        <time>2010-01-01T14:09:27Z</time>
      </trkpt>
      <trkpt lat="48.05254760" lon="8.967832840">
        <ele>612.00000</ele>
        <time>2010-01-01T14:10:45Z</time>
      </trkpt>
    </trkseg>
  </trk>
</gpx>

